﻿<?xml version="1.0" encoding="utf-8"?><gpx creator="Garmin Desktop App" version="1.1" xsi:schemaLocation="http://www.topografix.com/GPX/1/1 http://www.topografix.com/GPX/1/1/gpx.xsd http://www.garmin.com/xmlschemas/WaypointExtension/v1 http://www8.garmin.com/xmlschemas/WaypointExtensionv1.xsd http://www.garmin.com/xmlschemas/TrackPointExtension/v1 http://www.garmin.com/xmlschemas/TrackPointExtensionv1.xsd http://www.garmin.com/xmlschemas/GpxExtensions/v3 http://www8.garmin.com/xmlschemas/GpxExtensionsv3.xsd http://www.garmin.com/xmlschemas/ActivityExtension/v1 http://www8.garmin.com/xmlschemas/ActivityExtensionv1.xsd http://www.garmin.com/xmlschemas/AdventuresExtensions/v1 http://www8.garmin.com/xmlschemas/AdventuresExtensionv1.xsd http://www.garmin.com/xmlschemas/PressureExtension/v1 http://www.garmin.com/xmlschemas/PressureExtensionv1.xsd http://www.garmin.com/xmlschemas/TripExtensions/v1 http://www.garmin.com/xmlschemas/TripExtensionsv1.xsd http://www.garmin.com/xmlschemas/TripMetaDataExtensions/v1 http://www.garmin.com/xmlschemas/TripMetaDataExtensionsv1.xsd http://www.garmin.com/xmlschemas/ViaPointTransportationModeExtensions/v1 http://www.garmin.com/xmlschemas/ViaPointTransportationModeExtensionsv1.xsd http://www.garmin.com/xmlschemas/CreationTimeExtensions/v1 http://www.garmin.com/xmlschemas/CreationTimeExtensionsv1.xsd" xmlns="http://www.topografix.com/GPX/1/1" xmlns:xsi="http://www.w3.org/2001/XMLSchema-instance" xmlns:wptx1="http://www.garmin.com/xmlschemas/WaypointExtension/v1" xmlns:gpxtrx="http://www.garmin.com/xmlschemas/GpxExtensions/v3" xmlns:gpxtpx="http://www.garmin.com/xmlschemas/TrackPointExtension/v1" xmlns:gpxx="http://www.garmin.com/xmlschemas/GpxExtensions/v3" xmlns:trp="http://www.garmin.com/xmlschemas/TripExtensions/v1" xmlns:adv="http://www.garmin.com/xmlschemas/AdventuresExtensions/v1" xmlns:prs="http://www.garmin.com/xmlschemas/PressureExtension/v1" xmlns:tmd="http://www.garmin.com/xmlschemas/TripMetaDataExtensions/v1" xmlns:vptm="http://www.garmin.com/xmlschemas/ViaPointTransportationModeExtensions/v1" xmlns:ctx="http://www.garmin.com/xmlschemas/CreationTimeExtension/v1">

  <metadata>
    <link href="http://www.garmin.com">
      <text>Garmin International</text>
    </link>
    <time>2014-05-24T17:21:21Z</time>
    <bounds maxlat="45.881083449348807" maxlon="9.406507266685367" minlat="45.870457710698247" minlon="9.381743688136339" />
  </metadata>

  <trk>
    <name>crocione-san-martino2014-05-24</name>
    <extensions>
      <gpxx:TrackExtension>
        <gpxx:DisplayColor>Yellow</gpxx:DisplayColor>
      </gpxx:TrackExtension>
      <gpxtrkx:TrackStatsExtension xmlns:gpxtrkx="http://www.garmin.com/xmlschemas/TrackStatsExtension/v1">
        <gpxtrkx:Distance>10064</gpxtrkx:Distance>
        <gpxtrkx:TotalElapsedTime>23185</gpxtrkx:TotalElapsedTime>
        <gpxtrkx:MovingTime>11941</gpxtrkx:MovingTime>
        <gpxtrkx:StoppedTime>11235</gpxtrkx:StoppedTime>
        <gpxtrkx:MovingSpeed>1</gpxtrkx:MovingSpeed>
        <gpxtrkx:MaxSpeed>2</gpxtrkx:MaxSpeed>
        <gpxtrkx:MaxElevation>1044</gpxtrkx:MaxElevation>
        <gpxtrkx:MinElevation>458</gpxtrkx:MinElevation>
        <gpxtrkx:Ascent>781</gpxtrkx:Ascent>
        <gpxtrkx:Descent>776</gpxtrkx:Descent>
        <gpxtrkx:AvgAscentRate>0</gpxtrkx:AvgAscentRate>
        <gpxtrkx:MaxAscentRate>0</gpxtrkx:MaxAscentRate>
        <gpxtrkx:AvgDescentRate>0</gpxtrkx:AvgDescentRate>
        <gpxtrkx:MaxDescentRate>-0</gpxtrkx:MaxDescentRate>
      </gpxtrkx:TrackStatsExtension>
    </extensions>
    <trkseg>
      <trkpt lat="45.881016813218594" lon="9.406433925032616">
        <ele>466.86000000000001</ele>
        <time>2014-05-24T06:50:00Z</time>
      </trkpt>
      <trkpt lat="45.88101614266634" lon="9.406431997194886">
        <ele>466.86000000000001</ele>
        <time>2014-05-24T06:50:01Z</time>
      </trkpt>
      <trkpt lat="45.881038773804903" lon="9.406446246430278">
        <ele>466.86000000000001</ele>
        <time>2014-05-24T06:50:19Z</time>
      </trkpt>
      <trkpt lat="45.881048748269677" lon="9.406454125419259">
        <ele>466.38</ele>
        <time>2014-05-24T06:50:37Z</time>
      </trkpt>
      <trkpt lat="45.881057130172849" lon="9.406486647203565">
        <ele>466.38</ele>
        <time>2014-05-24T06:50:58Z</time>
      </trkpt>
      <trkpt lat="45.881041623651981" lon="9.40644490532577">
        <ele>466.38</ele>
        <time>2014-05-24T06:51:09Z</time>
      </trkpt>
      <trkpt lat="45.881055956706405" lon="9.406497292220593">
        <ele>466.38</ele>
        <time>2014-05-24T06:51:23Z</time>
      </trkpt>
      <trkpt lat="45.881056459620595" lon="9.406485976651311">
        <ele>466.38</ele>
        <time>2014-05-24T06:51:36Z</time>
      </trkpt>
      <trkpt lat="45.881059225648642" lon="9.40647323615849">
        <ele>466.38</ele>
        <time>2014-05-24T06:51:49Z</time>
      </trkpt>
      <trkpt lat="45.881048915907741" lon="9.406454795971513">
        <ele>466.38</ele>
        <time>2014-05-24T06:52:06Z</time>
      </trkpt>
      <trkpt lat="45.881083449348807" lon="9.406496286392212">
        <ele>466.38</ele>
        <time>2014-05-24T06:52:20Z</time>
      </trkpt>
      <trkpt lat="45.881058806553483" lon="9.406501734629273">
        <ele>466.38</ele>
        <time>2014-05-24T06:52:35Z</time>
      </trkpt>
      <trkpt lat="45.881075570359826" lon="9.406463596969843">
        <ele>466.38</ele>
        <time>2014-05-24T06:52:53Z</time>
      </trkpt>
      <trkpt lat="45.881070038303733" lon="9.406466279178858">
        <ele>466.86000000000001</ele>
        <time>2014-05-24T06:53:11Z</time>
      </trkpt>
      <trkpt lat="45.881050089374185" lon="9.406467704102397">
        <ele>466.38</ele>
        <time>2014-05-24T06:53:28Z</time>
      </trkpt>
      <trkpt lat="45.881059477105737" lon="9.40647030249238">
        <ele>466.38</ele>
        <time>2014-05-24T06:53:42Z</time>
      </trkpt>
      <trkpt lat="45.881047071889043" lon="9.40646443516016">
        <ele>466.38</ele>
        <time>2014-05-24T06:54:00Z</time>
      </trkpt>
      <trkpt lat="45.881031984463334" lon="9.406457897275686">
        <ele>466.38</ele>
        <time>2014-05-24T06:54:19Z</time>
      </trkpt>
      <trkpt lat="45.881025614216924" lon="9.406439205631614">
        <ele>466.86000000000001</ele>
        <time>2014-05-24T06:54:45Z</time>
      </trkpt>
      <trkpt lat="45.881042713299394" lon="9.406447168439627">
        <ele>466.86000000000001</ele>
        <time>2014-05-24T06:55:04Z</time>
      </trkpt>
      <trkpt lat="45.881052436307073" lon="9.406452281400561">
        <ele>466.86000000000001</ele>
        <time>2014-05-24T06:55:35Z</time>
      </trkpt>
      <trkpt lat="45.88105377741158" lon="9.406448174268007">
        <ele>467.33999999999997</ele>
        <time>2014-05-24T06:55:47Z</time>
      </trkpt>
      <trkpt lat="45.881039025261998" lon="9.406433589756489">
        <ele>466.86000000000001</ele>
        <time>2014-05-24T06:56:03Z</time>
      </trkpt>
      <trkpt lat="45.881036929786205" lon="9.406439708545804">
        <ele>466.86000000000001</ele>
        <time>2014-05-24T06:56:22Z</time>
      </trkpt>
      <trkpt lat="45.880970880389214" lon="9.406352620571852">
        <ele>466.86000000000001</ele>
        <time>2014-05-24T06:56:37Z</time>
      </trkpt>
      <trkpt lat="45.880953781306744" lon="9.406342394649983">
        <ele>466.86000000000001</ele>
        <time>2014-05-24T06:56:40Z</time>
      </trkpt>
      <trkpt lat="45.880857557058334" lon="9.406302161514759">
        <ele>466.86000000000001</ele>
        <time>2014-05-24T06:56:55Z</time>
      </trkpt>
      <trkpt lat="45.880747502669692" lon="9.40631439909339">
        <ele>466.86000000000001</ele>
        <time>2014-05-24T06:57:09Z</time>
      </trkpt>
      <trkpt lat="45.880706431344151" lon="9.406290510669351">
        <ele>466.86000000000001</ele>
        <time>2014-05-24T06:57:20Z</time>
      </trkpt>
      <trkpt lat="45.880674161016941" lon="9.406255558133125">
        <ele>466.86000000000001</ele>
        <time>2014-05-24T06:57:34Z</time>
      </trkpt>
      <trkpt lat="45.8807039167732" lon="9.406278943642974">
        <ele>466.86000000000001</ele>
        <time>2014-05-24T06:57:47Z</time>
      </trkpt>
      <trkpt lat="45.880661169067025" lon="9.40632613375783">
        <ele>466.38</ele>
        <time>2014-05-24T06:57:59Z</time>
      </trkpt>
      <trkpt lat="45.88050258345902" lon="9.406333509832621">
        <ele>464.44999999999999</ele>
        <time>2014-05-24T06:58:14Z</time>
      </trkpt>
      <trkpt lat="45.880346680060029" lon="9.406292270869017">
        <ele>463.00999999999999</ele>
        <time>2014-05-24T06:58:29Z</time>
      </trkpt>
      <trkpt lat="45.88018205948174" lon="9.406388076022267">
        <ele>461.56999999999999</ele>
        <time>2014-05-24T06:58:46Z</time>
      </trkpt>
      <trkpt lat="45.880039818584919" lon="9.406380532309413">
        <ele>458.69</ele>
        <time>2014-05-24T06:59:00Z</time>
      </trkpt>
      <trkpt lat="45.879989946261048" lon="9.406266119331121">
        <ele>457.72000000000003</ele>
        <time>2014-05-24T06:59:13Z</time>
      </trkpt>
      <trkpt lat="45.879980977624655" lon="9.406196465715766">
        <ele>458.69</ele>
        <time>2014-05-24T06:59:25Z</time>
      </trkpt>
      <trkpt lat="45.879963710904121" lon="9.406052632257342">
        <ele>461.56999999999999</ele>
        <time>2014-05-24T06:59:40Z</time>
      </trkpt>
      <trkpt lat="45.879890033975244" lon="9.405925059691072">
        <ele>463.49000000000001</ele>
        <time>2014-05-24T06:59:54Z</time>
      </trkpt>
      <trkpt lat="45.879873773083091" lon="9.405907625332475">
        <ele>463.97000000000003</ele>
        <time>2014-05-24T06:59:57Z</time>
      </trkpt>
      <trkpt lat="45.879744105041027" lon="9.405882395803928">
        <ele>465.89999999999998</ele>
        <time>2014-05-24T07:00:12Z</time>
      </trkpt>
      <trkpt lat="45.879687191918492" lon="9.405886419117451">
        <ele>466.38</ele>
        <time>2014-05-24T07:00:19Z</time>
      </trkpt>
      <trkpt lat="45.879680151119828" lon="9.405545191839337">
        <ele>468.77999999999997</ele>
        <time>2014-05-24T07:00:34Z</time>
      </trkpt>
      <trkpt lat="45.879676043987274" lon="9.40550671890378">
        <ele>469.25999999999999</ele>
        <time>2014-05-24T07:00:37Z</time>
      </trkpt>
      <trkpt lat="45.879607060924172" lon="9.405299266800284">
        <ele>469.74000000000001</ele>
        <time>2014-05-24T07:00:52Z</time>
      </trkpt>
      <trkpt lat="45.87949700653553" lon="9.405257776379585">
        <ele>469.74000000000001</ele>
        <time>2014-05-24T07:01:04Z</time>
      </trkpt>
      <trkpt lat="45.879327524453402" lon="9.405228774994612">
        <ele>470.22000000000003</ele>
        <time>2014-05-24T07:01:19Z</time>
      </trkpt>
      <trkpt lat="45.879200706258416" lon="9.405145710334182">
        <ele>472.63</ele>
        <time>2014-05-24T07:01:32Z</time>
      </trkpt>
      <trkpt lat="45.879171285778284" lon="9.405123917385936">
        <ele>473.58999999999997</ele>
        <time>2014-05-24T07:01:36Z</time>
      </trkpt>
      <trkpt lat="45.879079084843397" lon="9.405086282640696">
        <ele>475.02999999999997</ele>
        <time>2014-05-24T07:01:46Z</time>
      </trkpt>
      <trkpt lat="45.879041953012347" lon="9.405098436400294">
        <ele>475.02999999999997</ele>
        <time>2014-05-24T07:01:49Z</time>
      </trkpt>
      <trkpt lat="45.879002474248409" lon="9.40506155602634">
        <ele>474.55000000000001</ele>
        <time>2014-05-24T07:01:53Z</time>
      </trkpt>
      <trkpt lat="45.878920834511518" lon="9.404900288209319">
        <ele>473.11000000000001</ele>
        <time>2014-05-24T07:02:05Z</time>
      </trkpt>
      <trkpt lat="45.878895353525877" lon="9.404817558825016">
        <ele>472.63</ele>
        <time>2014-05-24T07:02:11Z</time>
      </trkpt>
      <trkpt lat="45.878891749307513" lon="9.404782857745886">
        <ele>472.63</ele>
        <time>2014-05-24T07:02:13Z</time>
      </trkpt>
      <trkpt lat="45.878829471766949" lon="9.404624858871102">
        <ele>472.13999999999999</ele>
        <time>2014-05-24T07:02:24Z</time>
      </trkpt>
      <trkpt lat="45.878793094307184" lon="9.404524946585298">
        <ele>473.11000000000001</ele>
        <time>2014-05-24T07:02:32Z</time>
      </trkpt>
      <trkpt lat="45.878782030194998" lon="9.404492843896151">
        <ele>473.58999999999997</ele>
        <time>2014-05-24T07:02:35Z</time>
      </trkpt>
      <trkpt lat="45.878749173134565" lon="9.404471889138222">
        <ele>474.06999999999999</ele>
        <time>2014-05-24T07:02:39Z</time>
      </trkpt>
      <trkpt lat="45.878612129017711" lon="9.404468955472112">
        <ele>474.55000000000001</ele>
        <time>2014-05-24T07:02:52Z</time>
      </trkpt>
      <trkpt lat="45.878460919484496" lon="9.404394775629044">
        <ele>475.50999999999999</ele>
        <time>2014-05-24T07:03:07Z</time>
      </trkpt>
      <trkpt lat="45.878474079072475" lon="9.404149940237403">
        <ele>478.38999999999999</ele>
        <time>2014-05-24T07:03:23Z</time>
      </trkpt>
      <trkpt lat="45.878449268639088" lon="9.403946259990335">
        <ele>481.75999999999999</ele>
        <time>2014-05-24T07:03:40Z</time>
      </trkpt>
      <trkpt lat="45.878385901451111" lon="9.403856992721558">
        <ele>484.16000000000003</ele>
        <time>2014-05-24T07:03:54Z</time>
      </trkpt>
      <trkpt lat="45.878329994156957" lon="9.403725145384669">
        <ele>486.07999999999998</ele>
        <time>2014-05-24T07:04:08Z</time>
      </trkpt>
      <trkpt lat="45.878279283642769" lon="9.403637470677495">
        <ele>487.52999999999997</ele>
        <time>2014-05-24T07:04:18Z</time>
      </trkpt>
      <trkpt lat="45.878236871212721" lon="9.403537977486849">
        <ele>488.00999999999999</ele>
        <time>2014-05-24T07:04:26Z</time>
      </trkpt>
      <trkpt lat="45.878218850120902" lon="9.403525572270155">
        <ele>488.00999999999999</ele>
        <time>2014-05-24T07:04:28Z</time>
      </trkpt>
      <trkpt lat="45.878122793510556" lon="9.403547951951623">
        <ele>488.97000000000003</ele>
        <time>2014-05-24T07:04:38Z</time>
      </trkpt>
      <trkpt lat="45.878103179857135" lon="9.403549879789352">
        <ele>489.44999999999999</ele>
        <time>2014-05-24T07:04:40Z</time>
      </trkpt>
      <trkpt lat="45.877983151003718" lon="9.40359371714294">
        <ele>490.41000000000003</ele>
        <time>2014-05-24T07:04:53Z</time>
      </trkpt>
      <trkpt lat="45.87793193757534" lon="9.403599081560969">
        <ele>490.41000000000003</ele>
        <time>2014-05-24T07:04:57Z</time>
      </trkpt>
      <trkpt lat="45.877855662256479" lon="9.403567900881171">
        <ele>490.41000000000003</ele>
        <time>2014-05-24T07:05:04Z</time>
      </trkpt>
      <trkpt lat="45.877745021134615" lon="9.403508557006717">
        <ele>490.88999999999999</ele>
        <time>2014-05-24T07:05:15Z</time>
      </trkpt>
      <trkpt lat="45.877671595662832" lon="9.40334552899003">
        <ele>492.32999999999998</ele>
        <time>2014-05-24T07:05:27Z</time>
      </trkpt>
      <trkpt lat="45.877660112455487" lon="9.403142435476184">
        <ele>494.25999999999999</ele>
        <time>2014-05-24T07:05:43Z</time>
      </trkpt>
      <trkpt lat="45.877671260386705" lon="9.403003212064505">
        <ele>496.66000000000003</ele>
        <time>2014-05-24T07:05:55Z</time>
      </trkpt>
      <trkpt lat="45.877660783007741" lon="9.402850745245814">
        <ele>499.06</ele>
        <time>2014-05-24T07:06:09Z</time>
      </trkpt>
      <trkpt lat="45.877587106078863" lon="9.402750749140978">
        <ele>502.43000000000001</ele>
        <time>2014-05-24T07:06:24Z</time>
      </trkpt>
      <trkpt lat="45.877578975632787" lon="9.402749324217439">
        <ele>502.43000000000001</ele>
        <time>2014-05-24T07:06:25Z</time>
      </trkpt>
      <trkpt lat="45.877469591796398" lon="9.402759885415435">
        <ele>504.82999999999998</ele>
        <time>2014-05-24T07:06:39Z</time>
      </trkpt>
      <trkpt lat="45.877380911260843" lon="9.402740271762013">
        <ele>506.75</ele>
        <time>2014-05-24T07:06:49Z</time>
      </trkpt>
      <trkpt lat="45.877315532416105" lon="9.402697272598743">
        <ele>507.70999999999998</ele>
        <time>2014-05-24T07:06:58Z</time>
      </trkpt>
      <trkpt lat="45.877260798588395" lon="9.402498034760356">
        <ele>508.19</ele>
        <time>2014-05-24T07:07:13Z</time>
      </trkpt>
      <trkpt lat="45.877158036455512" lon="9.402383705601096">
        <ele>510.12</ele>
        <time>2014-05-24T07:07:28Z</time>
      </trkpt>
      <trkpt lat="45.877017555758357" lon="9.402346238493919">
        <ele>512.51999999999998</ele>
        <time>2014-05-24T07:07:43Z</time>
      </trkpt>
      <trkpt lat="45.876931641250849" lon="9.402287397533655">
        <ele>514.44000000000005</ele>
        <time>2014-05-24T07:07:53Z</time>
      </trkpt>
      <trkpt lat="45.876837009564042" lon="9.402157226577401">
        <ele>515.88</ele>
        <time>2014-05-24T07:08:05Z</time>
      </trkpt>
      <trkpt lat="45.876795183867216" lon="9.402048848569393">
        <ele>517.80999999999995</ele>
        <time>2014-05-24T07:08:14Z</time>
      </trkpt>
      <trkpt lat="45.876767104491591" lon="9.40198908559978">
        <ele>518.76999999999998</ele>
        <time>2014-05-24T07:08:20Z</time>
      </trkpt>
      <trkpt lat="45.876735169440508" lon="9.401919851079583">
        <ele>520.21000000000004</ele>
        <time>2014-05-24T07:08:33Z</time>
      </trkpt>
      <trkpt lat="45.876736929640174" lon="9.401891268789768">
        <ele>519.73000000000002</ele>
        <time>2014-05-24T07:08:52Z</time>
      </trkpt>
      <trkpt lat="45.876697115600109" lon="9.401841312646866">
        <ele>520.21000000000004</ele>
        <time>2014-05-24T07:09:24Z</time>
      </trkpt>
      <trkpt lat="45.876722345128655" lon="9.401886910200119">
        <ele>520.21000000000004</ele>
        <time>2014-05-24T07:09:42Z</time>
      </trkpt>
      <trkpt lat="45.876740114763379" lon="9.401898728683591">
        <ele>520.21000000000004</ele>
        <time>2014-05-24T07:09:59Z</time>
      </trkpt>
      <trkpt lat="45.876726200804114" lon="9.401835445314646">
        <ele>520.69000000000005</ele>
        <time>2014-05-24T07:10:10Z</time>
      </trkpt>
      <trkpt lat="45.876697786152363" lon="9.401648947969079">
        <ele>520.69000000000005</ele>
        <time>2014-05-24T07:10:24Z</time>
      </trkpt>
      <trkpt lat="45.87662628851831" lon="9.401458343490958">
        <ele>520.69000000000005</ele>
        <time>2014-05-24T07:10:39Z</time>
      </trkpt>
      <trkpt lat="45.876532159745693" lon="9.401284167543054">
        <ele>521.64999999999998</ele>
        <time>2014-05-24T07:10:55Z</time>
      </trkpt>
      <trkpt lat="45.876482622697949" lon="9.401236139237881">
        <ele>524.53999999999996</ele>
        <time>2014-05-24T07:11:07Z</time>
      </trkpt>
      <trkpt lat="45.876431576907635" lon="9.401144189760089">
        <ele>527.89999999999998</ele>
        <time>2014-05-24T07:11:19Z</time>
      </trkpt>
      <trkpt lat="45.876367706805468" lon="9.40104017034173">
        <ele>529.82000000000005</ele>
        <time>2014-05-24T07:11:34Z</time>
      </trkpt>
      <trkpt lat="45.876361588016152" lon="9.40105919726193">
        <ele>529.82000000000005</ele>
        <time>2014-05-24T07:11:48Z</time>
      </trkpt>
      <trkpt lat="45.876372316852212" lon="9.401035644114018">
        <ele>529.82000000000005</ele>
        <time>2014-05-24T07:11:50Z</time>
      </trkpt>
      <trkpt lat="45.876504499465227" lon="9.400914777070284">
        <ele>532.71000000000004</ele>
        <time>2014-05-24T07:12:04Z</time>
      </trkpt>
      <trkpt lat="45.876602148637176" lon="9.40084520727396">
        <ele>536.07000000000005</ele>
        <time>2014-05-24T07:12:17Z</time>
      </trkpt>
      <trkpt lat="45.876737767830491" lon="9.400824839249253">
        <ele>538.48000000000002</ele>
        <time>2014-05-24T07:12:31Z</time>
      </trkpt>
      <trkpt lat="45.876847235485911" lon="9.400676060467959">
        <ele>540.88</ele>
        <time>2014-05-24T07:12:47Z</time>
      </trkpt>
      <trkpt lat="45.876921834424138" lon="9.40051294863224">
        <ele>541.36000000000001</ele>
        <time>2014-05-24T07:13:02Z</time>
      </trkpt>
      <trkpt lat="45.876957625150681" lon="9.40044061280787">
        <ele>541.84000000000003</ele>
        <time>2014-05-24T07:13:07Z</time>
      </trkpt>
      <trkpt lat="45.877039935439825" lon="9.400224527344108">
        <ele>542.79999999999995</ele>
        <time>2014-05-24T07:13:23Z</time>
      </trkpt>
      <trkpt lat="45.877111600711942" lon="9.400055715814233">
        <ele>544.72000000000003</ele>
        <time>2014-05-24T07:13:38Z</time>
      </trkpt>
      <trkpt lat="45.877193743363023" lon="9.399920012801886">
        <ele>547.13</ele>
        <time>2014-05-24T07:13:54Z</time>
      </trkpt>
      <trkpt lat="45.877239843830466" lon="9.399830913171172">
        <ele>546.16999999999996</ele>
        <time>2014-05-24T07:14:06Z</time>
      </trkpt>
      <trkpt lat="45.877257948741317" lon="9.399825716391206">
        <ele>545.69000000000005</ele>
        <time>2014-05-24T07:14:18Z</time>
      </trkpt>
      <trkpt lat="45.877255266532302" lon="9.399910122156143">
        <ele>546.16999999999996</ele>
        <time>2014-05-24T07:14:47Z</time>
      </trkpt>
      <trkpt lat="45.877182008698583" lon="9.40000718459487">
        <ele>546.16999999999996</ele>
        <time>2014-05-24T07:15:09Z</time>
      </trkpt>
      <trkpt lat="45.877209920436144" lon="9.400004502385855">
        <ele>546.64999999999998</ele>
        <time>2014-05-24T07:15:24Z</time>
      </trkpt>
      <trkpt lat="45.877218386158347" lon="9.39999301917851">
        <ele>546.64999999999998</ele>
        <time>2014-05-24T07:15:51Z</time>
      </trkpt>
      <trkpt lat="45.877183517441154" lon="9.400058900937438">
        <ele>546.64999999999998</ele>
        <time>2014-05-24T07:16:16Z</time>
      </trkpt>
      <trkpt lat="45.87713934481144" lon="9.400055380538106">
        <ele>546.64999999999998</ele>
        <time>2014-05-24T07:16:30Z</time>
      </trkpt>
      <trkpt lat="45.87710078805685" lon="9.400023780763149">
        <ele>546.16999999999996</ele>
        <time>2014-05-24T07:16:38Z</time>
      </trkpt>
      <trkpt lat="45.877080336213112" lon="9.400009363889694">
        <ele>545.69000000000005</ele>
        <time>2014-05-24T07:16:41Z</time>
      </trkpt>
      <trkpt lat="45.876951338723302" lon="9.399959156289697">
        <ele>544.24000000000001</ele>
        <time>2014-05-24T07:16:53Z</time>
      </trkpt>
      <trkpt lat="45.876811109483242" lon="9.399968963116407">
        <ele>541.84000000000003</ele>
        <time>2014-05-24T07:17:05Z</time>
      </trkpt>
      <trkpt lat="45.876652104780078" lon="9.400073317810893">
        <ele>539.44000000000005</ele>
        <time>2014-05-24T07:17:18Z</time>
      </trkpt>
      <trkpt lat="45.876639448106289" lon="9.400072647258639">
        <ele>539.44000000000005</ele>
        <time>2014-05-24T07:17:19Z</time>
      </trkpt>
      <trkpt lat="45.876623773947358" lon="9.400074742734432">
        <ele>538.96000000000004</ele>
        <time>2014-05-24T07:17:22Z</time>
      </trkpt>
      <trkpt lat="45.876466361805797" lon="9.400138948112726">
        <ele>536.07000000000005</ele>
        <time>2014-05-24T07:17:36Z</time>
      </trkpt>
      <trkpt lat="45.876423614099622" lon="9.400164345279336">
        <ele>535.11000000000001</ele>
        <time>2014-05-24T07:17:40Z</time>
      </trkpt>
      <trkpt lat="45.876247091218829" lon="9.40023391507566">
        <ele>531.75</ele>
        <time>2014-05-24T07:17:53Z</time>
      </trkpt>
      <trkpt lat="45.87610593996942" lon="9.400290492922068">
        <ele>529.34000000000003</ele>
        <time>2014-05-24T07:18:06Z</time>
      </trkpt>
      <trkpt lat="45.876053050160408" lon="9.400304742157459">
        <ele>528.38</ele>
        <time>2014-05-24T07:18:10Z</time>
      </trkpt>
      <trkpt lat="45.875969901680946" lon="9.400326535105705">
        <ele>526.94000000000005</ele>
        <time>2014-05-24T07:18:18Z</time>
      </trkpt>
      <trkpt lat="45.875800671055913" lon="9.400305999442935">
        <ele>523.58000000000004</ele>
        <time>2014-05-24T07:18:33Z</time>
      </trkpt>
      <trkpt lat="45.875634541735053" lon="9.400251936167479">
        <ele>521.16999999999996</ele>
        <time>2014-05-24T07:18:48Z</time>
      </trkpt>
      <trkpt lat="45.875406721606851" lon="9.400275154039264">
        <ele>517.80999999999995</ele>
        <time>2014-05-24T07:19:07Z</time>
      </trkpt>
      <trkpt lat="45.875225756317377" lon="9.400286972522736">
        <ele>514.44000000000005</ele>
        <time>2014-05-24T07:19:24Z</time>
      </trkpt>
      <trkpt lat="45.875066500157118" lon="9.400280434638262">
        <ele>512.03999999999996</ele>
        <time>2014-05-24T07:19:38Z</time>
      </trkpt>
      <trkpt lat="45.875132465735078" lon="9.399449117481709">
        <ele>508.67000000000002</ele>
        <time>2014-05-24T07:19:55Z</time>
      </trkpt>
      <trkpt lat="45.875118216499686" lon="9.399196403101087">
        <ele>505.31</ele>
        <time>2014-05-24T07:20:11Z</time>
      </trkpt>
      <trkpt lat="45.875121904537082" lon="9.398949053138495">
        <ele>503.87</ele>
        <time>2014-05-24T07:20:27Z</time>
      </trkpt>
      <trkpt lat="45.875120982527733" lon="9.39892684109509">
        <ele>503.87</ele>
        <time>2014-05-24T07:20:28Z</time>
      </trkpt>
      <trkpt lat="45.875028111040592" lon="9.398733805865049">
        <ele>503.38999999999999</ele>
        <time>2014-05-24T07:20:44Z</time>
      </trkpt>
      <trkpt lat="45.874877823516726" lon="9.39864881336689">
        <ele>502.91000000000003</ele>
        <time>2014-05-24T07:20:58Z</time>
      </trkpt>
      <trkpt lat="45.874709095805883" lon="9.398597264662385">
        <ele>502.43000000000001</ele>
        <time>2014-05-24T07:21:13Z</time>
      </trkpt>
      <trkpt lat="45.874687302857637" lon="9.398608915507793">
        <ele>502.43000000000001</ele>
        <time>2014-05-24T07:21:31Z</time>
      </trkpt>
      <trkpt lat="45.874589402228594" lon="9.398600198328495">
        <ele>502.43000000000001</ele>
        <time>2014-05-24T07:21:45Z</time>
      </trkpt>
      <trkpt lat="45.874431822448969" lon="9.398535657674074">
        <ele>501.94999999999999</ele>
        <time>2014-05-24T07:22:00Z</time>
      </trkpt>
      <trkpt lat="45.874347416684031" lon="9.398365337401629">
        <ele>501.94999999999999</ele>
        <time>2014-05-24T07:22:10Z</time>
      </trkpt>
      <trkpt lat="45.874326126649976" lon="9.398271460086107">
        <ele>501.94999999999999</ele>
        <time>2014-05-24T07:22:14Z</time>
      </trkpt>
      <trkpt lat="45.874244319275022" lon="9.398073814809322">
        <ele>501.45999999999998</ele>
        <time>2014-05-24T07:22:29Z</time>
      </trkpt>
      <trkpt lat="45.87410693988204" lon="9.397959653288126">
        <ele>500.98000000000002</ele>
        <time>2014-05-24T07:22:44Z</time>
      </trkpt>
      <trkpt lat="45.873935194686055" lon="9.397801151499152">
        <ele>497.62</ele>
        <time>2014-05-24T07:23:02Z</time>
      </trkpt>
      <trkpt lat="45.873813237994909" lon="9.397653378546238">
        <ele>495.22000000000003</ele>
        <time>2014-05-24T07:23:16Z</time>
      </trkpt>
      <trkpt lat="45.873658340424299" lon="9.397462103515863">
        <ele>492.32999999999998</ele>
        <time>2014-05-24T07:23:34Z</time>
      </trkpt>
      <trkpt lat="45.873544178903103" lon="9.397222967818379">
        <ele>490.41000000000003</ele>
        <time>2014-05-24T07:23:51Z</time>
      </trkpt>
      <trkpt lat="45.873440159484744" lon="9.397052312269807">
        <ele>488.49000000000001</ele>
        <time>2014-05-24T07:24:07Z</time>
      </trkpt>
      <trkpt lat="45.873449044302106" lon="9.397056670859456">
        <ele>488.49000000000001</ele>
        <time>2014-05-24T07:24:23Z</time>
      </trkpt>
      <trkpt lat="45.873370757326484" lon="9.396913340315223">
        <ele>487.52999999999997</ele>
        <time>2014-05-24T07:24:36Z</time>
      </trkpt>
      <trkpt lat="45.873383330181241" lon="9.39688190817833">
        <ele>487.52999999999997</ele>
        <time>2014-05-24T07:24:48Z</time>
      </trkpt>
      <trkpt lat="45.873384503647685" lon="9.396917531266809">
        <ele>487.52999999999997</ele>
        <time>2014-05-24T07:25:03Z</time>
      </trkpt>
      <trkpt lat="45.873385174199939" lon="9.396937480196357">
        <ele>487.05000000000001</ele>
        <time>2014-05-24T07:25:18Z</time>
      </trkpt>
      <trkpt lat="45.873360866680741" lon="9.396853912621737">
        <ele>488.00999999999999</ele>
        <time>2014-05-24T07:25:35Z</time>
      </trkpt>
      <trkpt lat="45.873304707929492" lon="9.396924152970314">
        <ele>487.05000000000001</ele>
        <time>2014-05-24T07:25:54Z</time>
      </trkpt>
      <trkpt lat="45.873281490057707" lon="9.396901521831751">
        <ele>486.56</ele>
        <time>2014-05-24T07:25:57Z</time>
      </trkpt>
      <trkpt lat="45.87327872402966" lon="9.39683991484344">
        <ele>485.12</ele>
        <time>2014-05-24T07:26:01Z</time>
      </trkpt>
      <trkpt lat="45.873315688222647" lon="9.396836562082171">
        <ele>485.12</ele>
        <time>2014-05-24T07:26:27Z</time>
      </trkpt>
      <trkpt lat="45.873334044590592" lon="9.396855756640434">
        <ele>485.60000000000002</ele>
        <time>2014-05-24T07:26:41Z</time>
      </trkpt>
      <trkpt lat="45.873406883329153" lon="9.396920464932919">
        <ele>486.07999999999998</ele>
        <time>2014-05-24T07:27:08Z</time>
      </trkpt>
      <trkpt lat="45.873380564153194" lon="9.396863635629416">
        <ele>487.52999999999997</ele>
        <time>2014-05-24T07:27:12Z</time>
      </trkpt>
      <trkpt lat="45.873372349888086" lon="9.396643694490194">
        <ele>489.44999999999999</ele>
        <time>2014-05-24T07:27:28Z</time>
      </trkpt>
      <trkpt lat="45.873376876115799" lon="9.396568592637777">
        <ele>490.41000000000003</ele>
        <time>2014-05-24T07:27:33Z</time>
      </trkpt>
      <trkpt lat="45.873376876115799" lon="9.39652475528419">
        <ele>490.41000000000003</ele>
        <time>2014-05-24T07:27:36Z</time>
      </trkpt>
      <trkpt lat="45.873376792296767" lon="9.396317219361663">
        <ele>490.41000000000003</ele>
        <time>2014-05-24T07:27:46Z</time>
      </trkpt>
      <trkpt lat="45.873379977419972" lon="9.396051680669189">
        <ele>490.88999999999999</ele>
        <time>2014-05-24T07:28:01Z</time>
      </trkpt>
      <trkpt lat="45.873376876115799" lon="9.395982194691896">
        <ele>491.37</ele>
        <time>2014-05-24T07:28:05Z</time>
      </trkpt>
      <trkpt lat="45.87333052419126" lon="9.395754961296916">
        <ele>492.32999999999998</ele>
        <time>2014-05-24T07:28:18Z</time>
      </trkpt>
      <trkpt lat="45.873231282457709" lon="9.395445752888918">
        <ele>495.22000000000003</ele>
        <time>2014-05-24T07:28:36Z</time>
      </trkpt>
      <trkpt lat="45.873169424012303" lon="9.395337710157037">
        <ele>496.18000000000001</ele>
        <time>2014-05-24T07:28:48Z</time>
      </trkpt>
      <trkpt lat="45.873146038502455" lon="9.395321281626821">
        <ele>496.18000000000001</ele>
        <time>2014-05-24T07:29:12Z</time>
      </trkpt>
      <trkpt lat="45.873135142028332" lon="9.395299991592765">
        <ele>496.18000000000001</ele>
        <time>2014-05-24T07:29:32Z</time>
      </trkpt>
      <trkpt lat="45.873114271089435" lon="9.39531491138041">
        <ele>496.66000000000003</ele>
        <time>2014-05-24T07:29:48Z</time>
      </trkpt>
      <trkpt lat="45.873107817023993" lon="9.395304182544351">
        <ele>497.13999999999999</ele>
        <time>2014-05-24T07:30:07Z</time>
      </trkpt>
      <trkpt lat="45.873107230290771" lon="9.395291693508625">
        <ele>497.13999999999999</ele>
        <time>2014-05-24T07:30:26Z</time>
      </trkpt>
      <trkpt lat="45.873101446777582" lon="9.395304517820478">
        <ele>497.13999999999999</ele>
        <time>2014-05-24T07:30:49Z</time>
      </trkpt>
      <trkpt lat="45.873109493404627" lon="9.395289933308959">
        <ele>497.62</ele>
        <time>2014-05-24T07:31:22Z</time>
      </trkpt>
      <trkpt lat="45.87308862246573" lon="9.395271325483918">
        <ele>498.10000000000002</ele>
        <time>2014-05-24T07:31:37Z</time>
      </trkpt>
      <trkpt lat="45.873029613867402" lon="9.395304434001446">
        <ele>499.54000000000002</ele>
        <time>2014-05-24T07:31:50Z</time>
      </trkpt>
      <trkpt lat="45.872950572520494" lon="9.395296638831496">
        <ele>501.45999999999998</ele>
        <time>2014-05-24T07:32:05Z</time>
      </trkpt>
      <trkpt lat="45.872890306636691" lon="9.395274594426155">
        <ele>501.94999999999999</ele>
        <time>2014-05-24T07:32:14Z</time>
      </trkpt>
      <trkpt lat="45.87274756282568" lon="9.395179124549031">
        <ele>502.91000000000003</ele>
        <time>2014-05-24T07:32:31Z</time>
      </trkpt>
      <trkpt lat="45.872645890340209" lon="9.395058089867234">
        <ele>504.35000000000002</ele>
        <time>2014-05-24T07:32:46Z</time>
      </trkpt>
      <trkpt lat="45.872558047994971" lon="9.394887266680598">
        <ele>506.26999999999998</ele>
        <time>2014-05-24T07:33:03Z</time>
      </trkpt>
      <trkpt lat="45.872489903122187" lon="9.394750474020839">
        <ele>507.23000000000002</ele>
        <time>2014-05-24T07:33:17Z</time>
      </trkpt>
      <trkpt lat="45.872442461550236" lon="9.394577722996473">
        <ele>508.67000000000002</ele>
        <time>2014-05-24T07:33:34Z</time>
      </trkpt>
      <trkpt lat="45.872456040233374" lon="9.394528605043888">
        <ele>509.16000000000003</ele>
        <time>2014-05-24T07:33:54Z</time>
      </trkpt>
      <trkpt lat="45.872432570904493" lon="9.394495664164424">
        <ele>509.16000000000003</ele>
        <time>2014-05-24T07:34:07Z</time>
      </trkpt>
      <trkpt lat="45.872407341375947" lon="9.39443782903254">
        <ele>509.63999999999999</ele>
        <time>2014-05-24T07:34:23Z</time>
      </trkpt>
      <trkpt lat="45.872393175959587" lon="9.394341185688973">
        <ele>510.60000000000002</ele>
        <time>2014-05-24T07:34:31Z</time>
      </trkpt>
      <trkpt lat="45.872293766587973" lon="9.394157789647579">
        <ele>511.56</ele>
        <time>2014-05-24T07:34:49Z</time>
      </trkpt>
      <trkpt lat="45.87220617569983" lon="9.393998282030225">
        <ele>512.51999999999998</ele>
        <time>2014-05-24T07:35:05Z</time>
      </trkpt>
      <trkpt lat="45.87210944853723" lon="9.393822345882654">
        <ele>513.48000000000002</ele>
        <time>2014-05-24T07:35:21Z</time>
      </trkpt>
      <trkpt lat="45.872018337249756" lon="9.393695360049605">
        <ele>514.44000000000005</ele>
        <time>2014-05-24T07:35:36Z</time>
      </trkpt>
      <trkpt lat="45.87196284905076" lon="9.393654791638255">
        <ele>515.39999999999998</ele>
        <time>2014-05-24T07:35:49Z</time>
      </trkpt>
      <trkpt lat="45.871946169063449" lon="9.393652360886335">
        <ele>515.88</ele>
        <time>2014-05-24T07:36:05Z</time>
      </trkpt>
      <trkpt lat="45.871925801038742" lon="9.393650349229574">
        <ele>516.37</ele>
        <time>2014-05-24T07:36:23Z</time>
      </trkpt>
      <trkpt lat="45.87193057872355" lon="9.393659401685">
        <ele>516.37</ele>
        <time>2014-05-24T07:36:45Z</time>
      </trkpt>
      <trkpt lat="45.871892021968961" lon="9.393590083345771">
        <ele>516.85000000000002</ele>
        <time>2014-05-24T07:36:58Z</time>
      </trkpt>
      <trkpt lat="45.871818596497178" lon="9.393435772508383">
        <ele>518.76999999999998</ele>
        <time>2014-05-24T07:37:12Z</time>
      </trkpt>
      <trkpt lat="45.871764197945595" lon="9.393292106688023">
        <ele>521.16999999999996</ele>
        <time>2014-05-24T07:37:28Z</time>
      </trkpt>
      <trkpt lat="45.871693454682827" lon="9.393138969317079">
        <ele>523.58000000000004</ele>
        <time>2014-05-24T07:37:44Z</time>
      </trkpt>
      <trkpt lat="45.871642073616385" lon="9.392995638772845">
        <ele>525.01999999999998</ele>
        <time>2014-05-24T07:37:59Z</time>
      </trkpt>
      <trkpt lat="45.871579796075821" lon="9.392910059541464">
        <ele>527.41999999999996</ele>
        <time>2014-05-24T07:38:13Z</time>
      </trkpt>
      <trkpt lat="45.871538557112217" lon="9.392825989052653">
        <ele>528.86000000000001</ele>
        <time>2014-05-24T07:38:27Z</time>
      </trkpt>
      <trkpt lat="45.871463706716895" lon="9.392683245241642">
        <ele>530.78999999999996</ele>
        <time>2014-05-24T07:38:42Z</time>
      </trkpt>
      <trkpt lat="45.871392041444778" lon="9.392547542229295">
        <ele>532.71000000000004</ele>
        <time>2014-05-24T07:38:58Z</time>
      </trkpt>
      <trkpt lat="45.871333116665483" lon="9.392424579709768">
        <ele>534.14999999999998</ele>
        <time>2014-05-24T07:39:11Z</time>
      </trkpt>
      <trkpt lat="45.871277041733265" lon="9.392317710444331">
        <ele>536.54999999999995</ele>
        <time>2014-05-24T07:39:26Z</time>
      </trkpt>
      <trkpt lat="45.871227253228426" lon="9.392194747924805">
        <ele>537.50999999999999</ele>
        <time>2014-05-24T07:39:43Z</time>
      </trkpt>
      <trkpt lat="45.871206717565656" lon="9.392200699076057">
        <ele>537.99000000000001</ele>
        <time>2014-05-24T07:39:56Z</time>
      </trkpt>
      <trkpt lat="45.87114192545414" lon="9.392104810103774">
        <ele>538.96000000000004</ele>
        <time>2014-05-24T07:40:08Z</time>
      </trkpt>
      <trkpt lat="45.871082162484527" lon="9.391939267516136">
        <ele>540.39999999999998</ele>
        <time>2014-05-24T07:40:23Z</time>
      </trkpt>
      <trkpt lat="45.870992979034781" lon="9.391818149015307">
        <ele>542.32000000000005</ele>
        <time>2014-05-24T07:40:37Z</time>
      </trkpt>
      <trkpt lat="45.870891390368342" lon="9.391727289184928">
        <ele>543.75999999999999</ele>
        <time>2014-05-24T07:40:53Z</time>
      </trkpt>
      <trkpt lat="45.870813438668847" lon="9.391615893691778">
        <ele>545.69000000000005</ele>
        <time>2014-05-24T07:41:08Z</time>
      </trkpt>
      <trkpt lat="45.870792400091887" lon="9.39161011017859">
        <ele>545.69000000000005</ele>
        <time>2014-05-24T07:41:23Z</time>
      </trkpt>
      <trkpt lat="45.870802626013756" lon="9.391566356644034">
        <ele>545.69000000000005</ele>
        <time>2014-05-24T07:41:41Z</time>
      </trkpt>
      <trkpt lat="45.870765745639801" lon="9.391560070216656">
        <ele>546.64999999999998</ele>
        <time>2014-05-24T07:41:59Z</time>
      </trkpt>
      <trkpt lat="45.87079256772995" lon="9.39156074076891">
        <ele>546.16999999999996</ele>
        <time>2014-05-24T07:42:11Z</time>
      </trkpt>
      <trkpt lat="45.870821652933955" lon="9.391573313623667">
        <ele>546.16999999999996</ele>
        <time>2014-05-24T07:42:29Z</time>
      </trkpt>
      <trkpt lat="45.870812516659498" lon="9.391569709405303">
        <ele>545.69000000000005</ele>
        <time>2014-05-24T07:42:50Z</time>
      </trkpt>
      <trkpt lat="45.870815366506577" lon="9.391568871214986">
        <ele>546.16999999999996</ele>
        <time>2014-05-24T07:43:10Z</time>
      </trkpt>
      <trkpt lat="45.870820144191384" lon="9.391574822366238">
        <ele>546.16999999999996</ele>
        <time>2014-05-24T07:43:35Z</time>
      </trkpt>
      <trkpt lat="45.870822323486209" lon="9.391587814316154">
        <ele>545.69000000000005</ele>
        <time>2014-05-24T07:43:51Z</time>
      </trkpt>
      <trkpt lat="45.870809499174356" lon="9.391591753810644">
        <ele>546.16999999999996</ele>
        <time>2014-05-24T07:44:07Z</time>
      </trkpt>
      <trkpt lat="45.870826095342636" lon="9.391609858721495">
        <ele>545.69000000000005</ele>
        <time>2014-05-24T07:44:25Z</time>
      </trkpt>
      <trkpt lat="45.870854677632451" lon="9.391617737710476">
        <ele>546.16999999999996</ele>
        <time>2014-05-24T07:45:01Z</time>
      </trkpt>
      <trkpt lat="45.870809080079198" lon="9.391606925055385">
        <ele>546.16999999999996</ele>
        <time>2014-05-24T07:45:17Z</time>
      </trkpt>
      <trkpt lat="45.870818551629782" lon="9.391592340543866">
        <ele>546.64999999999998</ele>
        <time>2014-05-24T07:45:36Z</time>
      </trkpt>
      <trkpt lat="45.870808744803071" lon="9.39155537635088">
        <ele>547.13</ele>
        <time>2014-05-24T07:46:00Z</time>
      </trkpt>
      <trkpt lat="45.870866412296891" lon="9.391595274209976">
        <ele>548.57000000000005</ele>
        <time>2014-05-24T07:46:19Z</time>
      </trkpt>
      <trkpt lat="45.870964983478189" lon="9.391631735488772">
        <ele>550.49000000000001</ele>
        <time>2014-05-24T07:46:33Z</time>
      </trkpt>
      <trkpt lat="45.871038660407066" lon="9.391671633347869">
        <ele>551.45000000000005</ele>
        <time>2014-05-24T07:46:42Z</time>
      </trkpt>
      <trkpt lat="45.87116782553494" lon="9.391736090183258">
        <ele>553.38</ele>
        <time>2014-05-24T07:47:00Z</time>
      </trkpt>
      <trkpt lat="45.871254662051797" lon="9.391812952235341">
        <ele>555.29999999999995</ele>
        <time>2014-05-24T07:47:15Z</time>
      </trkpt>
      <trkpt lat="45.871313503012061" lon="9.391890401020646">
        <ele>556.25999999999999</ele>
        <time>2014-05-24T07:47:25Z</time>
      </trkpt>
      <trkpt lat="45.871411487460136" lon="9.391979919746518">
        <ele>557.70000000000005</ele>
        <time>2014-05-24T07:47:40Z</time>
      </trkpt>
      <trkpt lat="45.871420791372657" lon="9.391942201182246">
        <ele>560.11000000000001</ele>
        <time>2014-05-24T07:47:56Z</time>
      </trkpt>
      <trkpt lat="45.871436633169651" lon="9.391908925026655">
        <ele>562.50999999999999</ele>
        <time>2014-05-24T07:48:10Z</time>
      </trkpt>
      <trkpt lat="45.871380306780338" lon="9.391853017732501">
        <ele>565.38999999999999</ele>
        <time>2014-05-24T07:48:24Z</time>
      </trkpt>
      <trkpt lat="45.871374607086182" lon="9.391843378543854">
        <ele>565.38999999999999</ele>
        <time>2014-05-24T07:48:25Z</time>
      </trkpt>
      <trkpt lat="45.871394723653793" lon="9.391755871474743">
        <ele>567.32000000000005</ele>
        <time>2014-05-24T07:48:38Z</time>
      </trkpt>
      <trkpt lat="45.871378881856799" lon="9.391681272536516">
        <ele>569.24000000000001</ele>
        <time>2014-05-24T07:48:51Z</time>
      </trkpt>
      <trkpt lat="45.871321465820074" lon="9.391577923670411">
        <ele>571.15999999999997</ele>
        <time>2014-05-24T07:49:06Z</time>
      </trkpt>
      <trkpt lat="45.871268743649125" lon="9.39152704551816">
        <ele>572.60000000000002</ele>
        <time>2014-05-24T07:49:19Z</time>
      </trkpt>
      <trkpt lat="45.871210237964988" lon="9.391473652794957">
        <ele>574.52999999999997</ele>
        <time>2014-05-24T07:49:32Z</time>
      </trkpt>
      <trkpt lat="45.871133962646127" lon="9.391358401626349">
        <ele>576.45000000000005</ele>
        <time>2014-05-24T07:49:47Z</time>
      </trkpt>
      <trkpt lat="45.871141338720918" lon="9.391324790194631">
        <ele>579.33000000000004</ele>
        <time>2014-05-24T07:50:01Z</time>
      </trkpt>
      <trkpt lat="45.871193306520581" lon="9.39137608744204">
        <ele>580.76999999999998</ele>
        <time>2014-05-24T07:50:12Z</time>
      </trkpt>
      <trkpt lat="45.87126363068819" lon="9.391382625326514">
        <ele>582.70000000000005</ele>
        <time>2014-05-24T07:50:25Z</time>
      </trkpt>
      <trkpt lat="45.871312664821744" lon="9.391347505152226">
        <ele>585.10000000000002</ele>
        <time>2014-05-24T07:50:40Z</time>
      </trkpt>
      <trkpt lat="45.871267486363649" lon="9.391269385814667">
        <ele>587.98000000000002</ele>
        <time>2014-05-24T07:50:53Z</time>
      </trkpt>
      <trkpt lat="45.871224487200379" lon="9.391197888180614">
        <ele>589.90999999999997</ele>
        <time>2014-05-24T07:51:07Z</time>
      </trkpt>
      <trkpt lat="45.871185762807727" lon="9.391131168231368">
        <ele>591.83000000000004</ele>
        <time>2014-05-24T07:51:20Z</time>
      </trkpt>
      <trkpt lat="45.871112421154976" lon="9.391020778566599">
        <ele>594.71000000000004</ele>
        <time>2014-05-24T07:51:39Z</time>
      </trkpt>
      <trkpt lat="45.871119126677513" lon="9.391005607321858">
        <ele>594.71000000000004</ele>
        <time>2014-05-24T07:52:04Z</time>
      </trkpt>
      <trkpt lat="45.87110286578536" lon="9.390988172963262">
        <ele>594.71000000000004</ele>
        <time>2014-05-24T07:52:32Z</time>
      </trkpt>
      <trkpt lat="45.871150642633438" lon="9.391025891527534">
        <ele>594.71000000000004</ele>
        <time>2014-05-24T07:52:58Z</time>
      </trkpt>
      <trkpt lat="45.871207974851131" lon="9.390990603715181">
        <ele>596.63999999999999</ele>
        <time>2014-05-24T07:53:13Z</time>
      </trkpt>
      <trkpt lat="45.871282489970326" lon="9.391000913456082">
        <ele>599.51999999999998</ele>
        <time>2014-05-24T07:53:29Z</time>
      </trkpt>
      <trkpt lat="45.871232450008392" lon="9.390957411378622">
        <ele>601.91999999999996</ele>
        <time>2014-05-24T07:53:41Z</time>
      </trkpt>
      <trkpt lat="45.871178889647126" lon="9.390855403617024">
        <ele>604.33000000000004</ele>
        <time>2014-05-24T07:53:55Z</time>
      </trkpt>
      <trkpt lat="45.871157683432102" lon="9.390736380591989">
        <ele>607.21000000000004</ele>
        <time>2014-05-24T07:54:10Z</time>
      </trkpt>
      <trkpt lat="45.871180314570665" lon="9.390664715319872">
        <ele>609.61000000000001</ele>
        <time>2014-05-24T07:54:24Z</time>
      </trkpt>
      <trkpt lat="45.871265390887856" lon="9.390667229890823">
        <ele>612.5</ele>
        <time>2014-05-24T07:54:39Z</time>
      </trkpt>
      <trkpt lat="45.871327752247453" lon="9.390693549066782">
        <ele>614.41999999999996</ele>
        <time>2014-05-24T07:54:53Z</time>
      </trkpt>
      <trkpt lat="45.871331775560975" lon="9.390689441934228">
        <ele>617.29999999999995</ele>
        <time>2014-05-24T07:55:07Z</time>
      </trkpt>
      <trkpt lat="45.871309144422412" lon="9.390610484406352">
        <ele>620.19000000000005</ele>
        <time>2014-05-24T07:55:23Z</time>
      </trkpt>
      <trkpt lat="45.871295481920242" lon="9.390562875196338">
        <ele>622.11000000000001</ele>
        <time>2014-05-24T07:55:37Z</time>
      </trkpt>
      <trkpt lat="45.871293218806386" lon="9.390534292906523">
        <ele>624.99000000000001</ele>
        <time>2014-05-24T07:55:51Z</time>
      </trkpt>
      <trkpt lat="45.871254075318575" lon="9.390497747808695">
        <ele>626.44000000000005</ele>
        <time>2014-05-24T07:56:04Z</time>
      </trkpt>
      <trkpt lat="45.8712337911129" lon="9.390493556857109">
        <ele>626.44000000000005</ele>
        <time>2014-05-24T07:56:25Z</time>
      </trkpt>
      <trkpt lat="45.871167657896876" lon="9.390384508296847">
        <ele>628.84000000000003</ele>
        <time>2014-05-24T07:56:39Z</time>
      </trkpt>
      <trkpt lat="45.871132621541619" lon="9.390287110581994">
        <ele>632.20000000000005</ele>
        <time>2014-05-24T07:56:53Z</time>
      </trkpt>
      <trkpt lat="45.871089119464159" lon="9.390236316248775">
        <ele>635.09000000000003</ele>
        <time>2014-05-24T07:57:08Z</time>
      </trkpt>
      <trkpt lat="45.871071852743626" lon="9.39018334262073">
        <ele>637.49000000000001</ele>
        <time>2014-05-24T07:57:22Z</time>
      </trkpt>
      <trkpt lat="45.871017202734947" lon="9.390190131962299">
        <ele>640.86000000000001</ele>
        <time>2014-05-24T07:57:35Z</time>
      </trkpt>
      <trkpt lat="45.870967162773013" lon="9.390156269073486">
        <ele>642.77999999999997</ele>
        <time>2014-05-24T07:57:47Z</time>
      </trkpt>
      <trkpt lat="45.870949728414416" lon="9.39009927213192">
        <ele>645.17999999999995</ele>
        <time>2014-05-24T07:58:03Z</time>
      </trkpt>
      <trkpt lat="45.871020304039121" lon="9.390023835003376">
        <ele>648.07000000000005</ele>
        <time>2014-05-24T07:58:18Z</time>
      </trkpt>
      <trkpt lat="45.871149972081184" lon="9.389967089518905">
        <ele>649.99000000000001</ele>
        <time>2014-05-24T07:58:34Z</time>
      </trkpt>
      <trkpt lat="45.871261283755302" lon="9.38994680531323">
        <ele>651.90999999999997</ele>
        <time>2014-05-24T07:58:48Z</time>
      </trkpt>
      <trkpt lat="45.871346779167652" lon="9.389988798648119">
        <ele>652.87</ele>
        <time>2014-05-24T07:59:00Z</time>
      </trkpt>
      <trkpt lat="45.871413834393024" lon="9.389996342360973">
        <ele>655.27999999999997</ele>
        <time>2014-05-24T07:59:16Z</time>
      </trkpt>
      <trkpt lat="45.871505364775658" lon="9.390025176107884">
        <ele>658.15999999999997</ele>
        <time>2014-05-24T07:59:32Z</time>
      </trkpt>
      <trkpt lat="45.871559930965304" lon="9.39001327380538">
        <ele>660.08000000000004</ele>
        <time>2014-05-24T07:59:45Z</time>
      </trkpt>
      <trkpt lat="45.871517853811383" lon="9.389967760071158">
        <ele>662.49000000000001</ele>
        <time>2014-05-24T08:00:02Z</time>
      </trkpt>
      <trkpt lat="45.871459348127246" lon="9.389871535822749">
        <ele>664.88999999999999</ele>
        <time>2014-05-24T08:00:16Z</time>
      </trkpt>
      <trkpt lat="45.871505029499531" lon="9.389850916340947">
        <ele>667.28999999999996</ele>
        <time>2014-05-24T08:00:28Z</time>
      </trkpt>
      <trkpt lat="45.871536629274487" lon="9.389842282980681">
        <ele>669.22000000000003</ele>
        <time>2014-05-24T08:00:42Z</time>
      </trkpt>
      <trkpt lat="45.871560350060463" lon="9.389801546931267">
        <ele>671.13999999999999</ele>
        <time>2014-05-24T08:00:52Z</time>
      </trkpt>
      <trkpt lat="45.871625058352947" lon="9.389849323779345">
        <ele>674.01999999999998</ele>
        <time>2014-05-24T08:01:08Z</time>
      </trkpt>
      <trkpt lat="45.871722707524896" lon="9.389878660440445">
        <ele>675.94000000000005</ele>
        <time>2014-05-24T08:01:22Z</time>
      </trkpt>
      <trkpt lat="45.871735280379653" lon="9.38985058106482">
        <ele>677.38999999999999</ele>
        <time>2014-05-24T08:01:36Z</time>
      </trkpt>
      <trkpt lat="45.8717449195683" lon="9.389832140877843">
        <ele>677.87</ele>
        <time>2014-05-24T08:01:53Z</time>
      </trkpt>
      <trkpt lat="45.871733352541924" lon="9.389785705134273">
        <ele>678.83000000000004</ele>
        <time>2014-05-24T08:02:08Z</time>
      </trkpt>
      <trkpt lat="45.871689850464463" lon="9.389809761196375">
        <ele>680.75</ele>
        <time>2014-05-24T08:02:25Z</time>
      </trkpt>
      <trkpt lat="45.871673421934247" lon="9.389727870002389">
        <ele>684.12</ele>
        <time>2014-05-24T08:02:41Z</time>
      </trkpt>
      <trkpt lat="45.8716188557446" lon="9.389650085940957">
        <ele>685.55999999999995</ele>
        <time>2014-05-24T08:02:54Z</time>
      </trkpt>
      <trkpt lat="45.871595470234752" lon="9.389598369598389">
        <ele>687.96000000000004</ele>
        <time>2014-05-24T08:03:08Z</time>
      </trkpt>
      <trkpt lat="45.87152648717165" lon="9.389556962996721">
        <ele>690.84000000000003</ele>
        <time>2014-05-24T08:03:22Z</time>
      </trkpt>
      <trkpt lat="45.8714409917593" lon="9.389519328251481">
        <ele>692.28999999999996</ele>
        <time>2014-05-24T08:03:35Z</time>
      </trkpt>
      <trkpt lat="45.871366141363978" lon="9.389464342966676">
        <ele>694.21000000000004</ele>
        <time>2014-05-24T08:03:49Z</time>
      </trkpt>
      <trkpt lat="45.871308473870158" lon="9.389417069032788">
        <ele>697.09000000000003</ele>
        <time>2014-05-24T08:04:03Z</time>
      </trkpt>
      <trkpt lat="45.871261032298207" lon="9.389377925544977">
        <ele>699.01999999999998</ele>
        <time>2014-05-24T08:04:18Z</time>
      </trkpt>
      <trkpt lat="45.871231779456139" lon="9.389328388497233">
        <ele>701.41999999999996</ele>
        <time>2014-05-24T08:04:30Z</time>
      </trkpt>
      <trkpt lat="45.871183583512902" lon="9.389280108734965">
        <ele>703.34000000000003</ele>
        <time>2014-05-24T08:04:43Z</time>
      </trkpt>
      <trkpt lat="45.871124155819416" lon="9.389229062944651">
        <ele>705.25999999999999</ele>
        <time>2014-05-24T08:04:54Z</time>
      </trkpt>
      <trkpt lat="45.871055256575346" lon="9.389105346053839">
        <ele>706.71000000000004</ele>
        <time>2014-05-24T08:05:09Z</time>
      </trkpt>
      <trkpt lat="45.871016029268503" lon="9.389031585305929">
        <ele>706.71000000000004</ele>
        <time>2014-05-24T08:05:16Z</time>
      </trkpt>
      <trkpt lat="45.870971102267504" lon="9.388913400471211">
        <ele>707.66999999999996</ele>
        <time>2014-05-24T08:05:30Z</time>
      </trkpt>
      <trkpt lat="45.870962385088205" lon="9.38883226364851">
        <ele>710.07000000000005</ele>
        <time>2014-05-24T08:05:43Z</time>
      </trkpt>
      <trkpt lat="45.870908740907907" lon="9.388769064098597">
        <ele>711.99000000000001</ele>
        <time>2014-05-24T08:05:55Z</time>
      </trkpt>
      <trkpt lat="45.870881583541632" lon="9.388721706345677">
        <ele>711.99000000000001</ele>
        <time>2014-05-24T08:06:02Z</time>
      </trkpt>
      <trkpt lat="45.870870100334287" lon="9.388738889247179">
        <ele>710.54999999999995</ele>
        <time>2014-05-24T08:06:11Z</time>
      </trkpt>
      <trkpt lat="45.870866244658828" lon="9.388767471536994">
        <ele>711.02999999999997</ele>
        <time>2014-05-24T08:06:38Z</time>
      </trkpt>
      <trkpt lat="45.870841601863503" lon="9.388804603368044">
        <ele>710.54999999999995</ele>
        <time>2014-05-24T08:07:13Z</time>
      </trkpt>
      <trkpt lat="45.870822574943304" lon="9.388829162344337">
        <ele>711.02999999999997</ele>
        <time>2014-05-24T08:07:42Z</time>
      </trkpt>
      <trkpt lat="45.870834309607744" lon="9.388817511498928">
        <ele>711.02999999999997</ele>
        <time>2014-05-24T08:08:15Z</time>
      </trkpt>
      <trkpt lat="45.870841266587377" lon="9.3887999933213">
        <ele>711.50999999999999</ele>
        <time>2014-05-24T08:08:55Z</time>
      </trkpt>
      <trkpt lat="45.870795752853155" lon="9.388824217021465">
        <ele>711.99000000000001</ele>
        <time>2014-05-24T08:09:35Z</time>
      </trkpt>
      <trkpt lat="45.870846882462502" lon="9.388827402144671">
        <ele>711.99000000000001</ele>
        <time>2014-05-24T08:10:17Z</time>
      </trkpt>
      <trkpt lat="45.870824586600065" lon="9.388756742700934">
        <ele>711.99000000000001</ele>
        <time>2014-05-24T08:10:53Z</time>
      </trkpt>
      <trkpt lat="45.870843362063169" lon="9.388755485415459">
        <ele>712.47000000000003</ele>
        <time>2014-05-24T08:11:21Z</time>
      </trkpt>
      <trkpt lat="45.870796088129282" lon="9.388686837628484">
        <ele>711.99000000000001</ele>
        <time>2014-05-24T08:11:28Z</time>
      </trkpt>
      <trkpt lat="45.870664240792394" lon="9.388459688052535">
        <ele>711.50999999999999</ele>
        <time>2014-05-24T08:11:45Z</time>
      </trkpt>
      <trkpt lat="45.870640687644482" lon="9.388378048315644">
        <ele>712.47000000000003</ele>
        <time>2014-05-24T08:11:51Z</time>
      </trkpt>
      <trkpt lat="45.870652925223112" lon="9.388270257040858">
        <ele>715.36000000000001</ele>
        <time>2014-05-24T08:12:01Z</time>
      </trkpt>
      <trkpt lat="45.870635071769357" lon="9.38823513686657">
        <ele>715.84000000000003</ele>
        <time>2014-05-24T08:12:04Z</time>
      </trkpt>
      <trkpt lat="45.870625851675868" lon="9.388193562626839">
        <ele>716.32000000000005</ele>
        <time>2014-05-24T08:12:07Z</time>
      </trkpt>
      <trkpt lat="45.870610177516937" lon="9.388081831857562">
        <ele>719.67999999999995</ele>
        <time>2014-05-24T08:12:18Z</time>
      </trkpt>
      <trkpt lat="45.870551336556673" lon="9.387970017269254">
        <ele>722.57000000000005</ele>
        <time>2014-05-24T08:12:31Z</time>
      </trkpt>
      <trkpt lat="45.8705223351717" lon="9.387868428602815">
        <ele>724.97000000000003</ele>
        <time>2014-05-24T08:12:47Z</time>
      </trkpt>
      <trkpt lat="45.870503224432468" lon="9.387875553220511">
        <ele>724.97000000000003</ele>
        <time>2014-05-24T08:13:15Z</time>
      </trkpt>
      <trkpt lat="45.870510600507259" lon="9.387871278449893">
        <ele>725.45000000000005</ele>
        <time>2014-05-24T08:13:42Z</time>
      </trkpt>
      <trkpt lat="45.870492663234472" lon="9.387901369482279">
        <ele>725.45000000000005</ele>
        <time>2014-05-24T08:13:58Z</time>
      </trkpt>
      <trkpt lat="45.870472546666861" lon="9.387834230437875">
        <ele>727.37</ele>
        <time>2014-05-24T08:14:16Z</time>
      </trkpt>
      <trkpt lat="45.870466260239482" lon="9.38773381523788">
        <ele>730.25999999999999</ele>
        <time>2014-05-24T08:14:33Z</time>
      </trkpt>
      <trkpt lat="45.87046273984015" lon="9.387682685628533">
        <ele>733.13999999999999</ele>
        <time>2014-05-24T08:14:47Z</time>
      </trkpt>
      <trkpt lat="45.870474642142653" lon="9.387638596817851">
        <ele>734.58000000000004</ele>
        <time>2014-05-24T08:14:59Z</time>
      </trkpt>
      <trkpt lat="45.870482856407762" lon="9.387574139982462">
        <ele>737.95000000000005</ele>
        <time>2014-05-24T08:15:13Z</time>
      </trkpt>
      <trkpt lat="45.870503392070532" lon="9.38753005117178">
        <ele>741.30999999999995</ele>
        <time>2014-05-24T08:15:28Z</time>
      </trkpt>
      <trkpt lat="45.870522251352668" lon="9.387516472488642">
        <ele>743.72000000000003</ele>
        <time>2014-05-24T08:15:42Z</time>
      </trkpt>
      <trkpt lat="45.870505403727293" lon="9.387471042573452">
        <ele>743.72000000000003</ele>
        <time>2014-05-24T08:15:53Z</time>
      </trkpt>
      <trkpt lat="45.870527699589729" lon="9.387549413368106">
        <ele>743.72000000000003</ele>
        <time>2014-05-24T08:16:09Z</time>
      </trkpt>
      <trkpt lat="45.870508002117276" lon="9.387541450560093">
        <ele>743.72000000000003</ele>
        <time>2014-05-24T08:16:35Z</time>
      </trkpt>
      <trkpt lat="45.870513785630465" lon="9.387546898797154">
        <ele>744.20000000000005</ele>
        <time>2014-05-24T08:16:50Z</time>
      </trkpt>
      <trkpt lat="45.870512947440147" lon="9.387543713673949">
        <ele>743.24000000000001</ele>
        <time>2014-05-24T08:17:05Z</time>
      </trkpt>
      <trkpt lat="45.870500793680549" lon="9.387510353699327">
        <ele>743.24000000000001</ele>
        <time>2014-05-24T08:17:25Z</time>
      </trkpt>
      <trkpt lat="45.870502972975373" lon="9.387532230466604">
        <ele>742.75999999999999</ele>
        <time>2014-05-24T08:17:50Z</time>
      </trkpt>
      <trkpt lat="45.870510600507259" lon="9.387522004544735">
        <ele>742.75999999999999</ele>
        <time>2014-05-24T08:18:26Z</time>
      </trkpt>
      <trkpt lat="45.870492495596409" lon="9.387508844956756">
        <ele>742.75999999999999</ele>
        <time>2014-05-24T08:18:59Z</time>
      </trkpt>
      <trkpt lat="45.870491322129965" lon="9.387498367577791">
        <ele>742.75999999999999</ele>
        <time>2014-05-24T08:19:27Z</time>
      </trkpt>
      <trkpt lat="45.870496518909931" lon="9.387516472488642">
        <ele>743.24000000000001</ele>
        <time>2014-05-24T08:19:56Z</time>
      </trkpt>
      <trkpt lat="45.870499704033136" lon="9.38752569258213">
        <ele>743.24000000000001</ele>
        <time>2014-05-24T08:20:31Z</time>
      </trkpt>
      <trkpt lat="45.870502134785056" lon="9.387517310678959">
        <ele>743.24000000000001</ele>
        <time>2014-05-24T08:21:07Z</time>
      </trkpt>
      <trkpt lat="45.870495261624455" lon="9.387513119727373">
        <ele>743.24000000000001</ele>
        <time>2014-05-24T08:21:37Z</time>
      </trkpt>
      <trkpt lat="45.870501631870866" lon="9.387535750865936">
        <ele>743.72000000000003</ele>
        <time>2014-05-24T08:22:04Z</time>
      </trkpt>
      <trkpt lat="45.870512863621116" lon="9.38754471950233">
        <ele>744.20000000000005</ele>
        <time>2014-05-24T08:22:37Z</time>
      </trkpt>
      <trkpt lat="45.870512276887894" lon="9.387546647340059">
        <ele>744.20000000000005</ele>
        <time>2014-05-24T08:23:10Z</time>
      </trkpt>
      <trkpt lat="45.870502050966024" lon="9.387548910453916">
        <ele>744.67999999999995</ele>
        <time>2014-05-24T08:23:46Z</time>
      </trkpt>
      <trkpt lat="45.870499704033136" lon="9.387533068656921">
        <ele>744.67999999999995</ele>
        <time>2014-05-24T08:24:20Z</time>
      </trkpt>
      <trkpt lat="45.870487885549664" lon="9.387522926554084">
        <ele>745.15999999999997</ele>
        <time>2014-05-24T08:24:50Z</time>
      </trkpt>
      <trkpt lat="45.870474642142653" lon="9.38750758767128">
        <ele>745.63999999999999</ele>
        <time>2014-05-24T08:25:23Z</time>
      </trkpt>
      <trkpt lat="45.870490148663521" lon="9.387543629854918">
        <ele>746.12</ele>
        <time>2014-05-24T08:25:56Z</time>
      </trkpt>
      <trkpt lat="45.870499787852168" lon="9.387542624026537">
        <ele>747.08000000000004</ele>
        <time>2014-05-24T08:26:09Z</time>
      </trkpt>
      <trkpt lat="45.870496770367026" lon="9.387513622641563">
        <ele>747.55999999999995</ele>
        <time>2014-05-24T08:26:33Z</time>
      </trkpt>
      <trkpt lat="45.870491741225123" lon="9.387479340657592">
        <ele>747.55999999999995</ele>
        <time>2014-05-24T08:26:54Z</time>
      </trkpt>
      <trkpt lat="45.870518311858177" lon="9.387474562972784">
        <ele>747.55999999999995</ele>
        <time>2014-05-24T08:27:26Z</time>
      </trkpt>
      <trkpt lat="45.870490316301584" lon="9.387465259060264">
        <ele>747.55999999999995</ele>
        <time>2014-05-24T08:27:56Z</time>
      </trkpt>
      <trkpt lat="45.870493501424789" lon="9.387469198554754">
        <ele>748.03999999999996</ele>
        <time>2014-05-24T08:28:25Z</time>
      </trkpt>
      <trkpt lat="45.870493166148663" lon="9.387448662891984">
        <ele>748.03999999999996</ele>
        <time>2014-05-24T08:28:46Z</time>
      </trkpt>
      <trkpt lat="45.870507583022118" lon="9.387468528002501">
        <ele>747.55999999999995</ele>
        <time>2014-05-24T08:29:10Z</time>
      </trkpt>
      <trkpt lat="45.870496015995741" lon="9.387459810823202">
        <ele>747.55999999999995</ele>
        <time>2014-05-24T08:29:39Z</time>
      </trkpt>
      <trkpt lat="45.870531974360347" lon="9.387497110292316">
        <ele>748.03999999999996</ele>
        <time>2014-05-24T08:30:11Z</time>
      </trkpt>
      <trkpt lat="45.870514707639813" lon="9.387466013431549">
        <ele>747.55999999999995</ele>
        <time>2014-05-24T08:30:37Z</time>
      </trkpt>
      <trkpt lat="45.870526693761349" lon="9.387490823864937">
        <ele>748.03999999999996</ele>
        <time>2014-05-24T08:30:59Z</time>
      </trkpt>
      <trkpt lat="45.870537590235472" lon="9.387537511065602">
        <ele>748.03999999999996</ele>
        <time>2014-05-24T08:31:29Z</time>
      </trkpt>
      <trkpt lat="45.870502972975373" lon="9.387531559914351">
        <ele>748.03999999999996</ele>
        <time>2014-05-24T08:31:56Z</time>
      </trkpt>
      <trkpt lat="45.870523927733302" lon="9.387530973181129">
        <ele>748.03999999999996</ele>
        <time>2014-05-24T08:32:21Z</time>
      </trkpt>
      <trkpt lat="45.870504900813103" lon="9.387520663440228">
        <ele>748.03999999999996</ele>
        <time>2014-05-24T08:32:44Z</time>
      </trkpt>
      <trkpt lat="45.870545972138643" lon="9.387553855776787">
        <ele>748.03999999999996</ele>
        <time>2014-05-24T08:33:03Z</time>
      </trkpt>
      <trkpt lat="45.870531555265188" lon="9.387547736987472">
        <ele>748.03999999999996</ele>
        <time>2014-05-24T08:33:25Z</time>
      </trkpt>
      <trkpt lat="45.870547145605087" lon="9.387560058385134">
        <ele>748.03999999999996</ele>
        <time>2014-05-24T08:33:46Z</time>
      </trkpt>
      <trkpt lat="45.870543289929628" lon="9.387547820806503">
        <ele>748.03999999999996</ele>
        <time>2014-05-24T08:34:06Z</time>
      </trkpt>
      <trkpt lat="45.870591318234801" lon="9.387517813593149">
        <ele>750.45000000000005</ele>
        <time>2014-05-24T08:34:22Z</time>
      </trkpt>
      <trkpt lat="45.870612608268857" lon="9.387457296252251">
        <ele>752.85000000000002</ele>
        <time>2014-05-24T08:34:38Z</time>
      </trkpt>
      <trkpt lat="45.870636496692896" lon="9.387479508295655">
        <ele>754.28999999999996</ele>
        <time>2014-05-24T08:34:51Z</time>
      </trkpt>
      <trkpt lat="45.870667258277535" lon="9.387463498860598">
        <ele>756.69000000000005</ele>
        <time>2014-05-24T08:35:03Z</time>
      </trkpt>
      <trkpt lat="45.870720148086548" lon="9.387523010373116">
        <ele>758.62</ele>
        <time>2014-05-24T08:35:16Z</time>
      </trkpt>
      <trkpt lat="45.870731547474861" lon="9.387505324557424">
        <ele>760.05999999999995</ele>
        <time>2014-05-24T08:35:29Z</time>
      </trkpt>
      <trkpt lat="45.870756693184376" lon="9.387463582679629">
        <ele>762.94000000000005</ele>
        <time>2014-05-24T08:35:42Z</time>
      </trkpt>
      <trkpt lat="45.870800949633121" lon="9.387458050623536">
        <ele>763.89999999999998</ele>
        <time>2014-05-24T08:35:54Z</time>
      </trkpt>
      <trkpt lat="45.870803128927946" lon="9.387436090037227">
        <ele>765.35000000000002</ele>
        <time>2014-05-24T08:36:04Z</time>
      </trkpt>
      <trkpt lat="45.870847720652819" lon="9.38741228543222">
        <ele>767.75</ele>
        <time>2014-05-24T08:36:21Z</time>
      </trkpt>
      <trkpt lat="45.870848810300231" lon="9.387358976528049">
        <ele>767.75</ele>
        <time>2014-05-24T08:36:38Z</time>
      </trkpt>
      <trkpt lat="45.870881332084537" lon="9.387352019548416">
        <ele>770.63</ele>
        <time>2014-05-24T08:36:52Z</time>
      </trkpt>
      <trkpt lat="45.870910417288542" lon="9.387381859123707">
        <ele>772.55999999999995</ele>
        <time>2014-05-24T08:37:08Z</time>
      </trkpt>
      <trkpt lat="45.870927851647139" lon="9.387365682050586">
        <ele>772.55999999999995</ele>
        <time>2014-05-24T08:37:22Z</time>
      </trkpt>
      <trkpt lat="45.870930030941963" lon="9.38736735843122">
        <ele>772.55999999999995</ele>
        <time>2014-05-24T08:37:43Z</time>
      </trkpt>
      <trkpt lat="45.870928941294551" lon="9.387368615716696">
        <ele>773.51999999999998</ele>
        <time>2014-05-24T08:38:15Z</time>
      </trkpt>
      <trkpt lat="45.870974455028772" lon="9.387328047305346">
        <ele>775.91999999999996</ele>
        <time>2014-05-24T08:38:26Z</time>
      </trkpt>
      <trkpt lat="45.87101929821074" lon="9.387295944616199">
        <ele>778.80999999999995</ele>
        <time>2014-05-24T08:38:36Z</time>
      </trkpt>
      <trkpt lat="45.871079815551639" lon="9.387255208566785">
        <ele>781.69000000000005</ele>
        <time>2014-05-24T08:38:49Z</time>
      </trkpt>
      <trkpt lat="45.871129352599382" lon="9.387244982644916">
        <ele>785.04999999999995</ele>
        <time>2014-05-24T08:39:00Z</time>
      </trkpt>
      <trkpt lat="45.871182410046458" lon="9.387278845533729">
        <ele>786.98000000000002</ele>
        <time>2014-05-24T08:39:14Z</time>
      </trkpt>
      <trkpt lat="45.87123186327517" lon="9.387337351217866">
        <ele>788.89999999999998</ele>
        <time>2014-05-24T08:39:29Z</time>
      </trkpt>
      <trkpt lat="45.871248878538609" lon="9.387273984029889">
        <ele>791.77999999999997</ele>
        <time>2014-05-24T08:39:43Z</time>
      </trkpt>
      <trkpt lat="45.871276287361979" lon="9.387240875512362">
        <ele>793.71000000000004</ele>
        <time>2014-05-24T08:39:55Z</time>
      </trkpt>
      <trkpt lat="45.871321968734264" lon="9.387273229658604">
        <ele>796.11000000000001</ele>
        <time>2014-05-24T08:40:08Z</time>
      </trkpt>
      <trkpt lat="45.871330015361309" lon="9.387259399518371">
        <ele>798.02999999999997</ele>
        <time>2014-05-24T08:40:22Z</time>
      </trkpt>
      <trkpt lat="45.871348874643445" lon="9.387208018451929">
        <ele>799.95000000000005</ele>
        <time>2014-05-24T08:40:36Z</time>
      </trkpt>
      <trkpt lat="45.871389778330922" lon="9.387240037322044">
        <ele>802.36000000000001</ele>
        <time>2014-05-24T08:40:51Z</time>
      </trkpt>
      <trkpt lat="45.87138089351356" lon="9.387145405635238">
        <ele>804.75999999999999</ele>
        <time>2014-05-24T08:41:06Z</time>
      </trkpt>
      <trkpt lat="45.871384665369987" lon="9.387121265754104">
        <ele>805.72000000000003</ele>
        <time>2014-05-24T08:41:19Z</time>
      </trkpt>
      <trkpt lat="45.871380055323243" lon="9.387077931314707">
        <ele>807.15999999999997</ele>
        <time>2014-05-24T08:41:30Z</time>
      </trkpt>
      <trkpt lat="45.871382402256131" lon="9.387054210528731">
        <ele>809.57000000000005</ele>
        <time>2014-05-24T08:41:44Z</time>
      </trkpt>
      <trkpt lat="45.871377205476165" lon="9.387044068425894">
        <ele>809.57000000000005</ele>
        <time>2014-05-24T08:41:45Z</time>
      </trkpt>
      <trkpt lat="45.871393214911222" lon="9.386992184445262">
        <ele>810.04999999999995</ele>
        <time>2014-05-24T08:41:58Z</time>
      </trkpt>
      <trkpt lat="45.871414840221405" lon="9.386966452002525">
        <ele>812.45000000000005</ele>
        <time>2014-05-24T08:42:12Z</time>
      </trkpt>
      <trkpt lat="45.871458509936929" lon="9.386981036514044">
        <ele>814.85000000000002</ele>
        <time>2014-05-24T08:42:28Z</time>
      </trkpt>
      <trkpt lat="45.871474016457796" lon="9.386956058442593">
        <ele>817.74000000000001</ele>
        <time>2014-05-24T08:42:41Z</time>
      </trkpt>
      <trkpt lat="45.871480721980333" lon="9.386920938268304">
        <ele>819.17999999999995</ele>
        <time>2014-05-24T08:42:52Z</time>
      </trkpt>
      <trkpt lat="45.871496479958296" lon="9.386857906356454">
        <ele>821.58000000000004</ele>
        <time>2014-05-24T08:43:05Z</time>
      </trkpt>
      <trkpt lat="45.871526822447777" lon="9.386879028752446">
        <ele>823.02999999999997</ele>
        <time>2014-05-24T08:43:18Z</time>
      </trkpt>
      <trkpt lat="45.871519027277827" lon="9.38686209730804">
        <ele>823.50999999999999</ele>
        <time>2014-05-24T08:43:31Z</time>
      </trkpt>
      <trkpt lat="45.87154945358634" lon="9.386839382350445">
        <ele>825.90999999999997</ele>
        <time>2014-05-24T08:43:44Z</time>
      </trkpt>
      <trkpt lat="45.871574599295855" lon="9.386809961870313">
        <ele>828.30999999999995</ele>
        <time>2014-05-24T08:43:59Z</time>
      </trkpt>
      <trkpt lat="45.871601505205035" lon="9.386843154206872">
        <ele>829.26999999999998</ele>
        <time>2014-05-24T08:44:13Z</time>
      </trkpt>
      <trkpt lat="45.871619610115886" lon="9.386782720685005">
        <ele>831.67999999999995</ele>
        <time>2014-05-24T08:44:25Z</time>
      </trkpt>
      <trkpt lat="45.871645007282495" lon="9.386821193620563">
        <ele>833.12</ele>
        <time>2014-05-24T08:44:37Z</time>
      </trkpt>
      <trkpt lat="45.871656658127904" lon="9.386792778968811">
        <ele>835.03999999999996</ele>
        <time>2014-05-24T08:44:51Z</time>
      </trkpt>
      <trkpt lat="45.871684234589338" lon="9.386804345995188">
        <ele>836.48000000000002</ele>
        <time>2014-05-24T08:45:03Z</time>
      </trkpt>
      <trkpt lat="45.871701333671808" lon="9.386775679886341">
        <ele>838.40999999999997</ele>
        <time>2014-05-24T08:45:17Z</time>
      </trkpt>
      <trkpt lat="45.871719857677817" lon="9.386727903038263">
        <ele>840.80999999999995</ele>
        <time>2014-05-24T08:45:29Z</time>
      </trkpt>
      <trkpt lat="45.871756486594677" lon="9.386741733178496">
        <ele>843.21000000000004</ele>
        <time>2014-05-24T08:45:41Z</time>
      </trkpt>
      <trkpt lat="45.871751038357615" lon="9.386699069291353">
        <ele>843.69000000000005</ele>
        <time>2014-05-24T08:45:52Z</time>
      </trkpt>
      <trkpt lat="45.871816584840417" lon="9.386680712923408">
        <ele>846.10000000000002</ele>
        <time>2014-05-24T08:46:05Z</time>
      </trkpt>
      <trkpt lat="45.871844161301851" lon="9.38675413839519">
        <ele>848.5</ele>
        <time>2014-05-24T08:46:18Z</time>
      </trkpt>
      <trkpt lat="45.871893111616373" lon="9.386801663786173">
        <ele>850.89999999999998</ele>
        <time>2014-05-24T08:46:35Z</time>
      </trkpt>
      <trkpt lat="45.871904091909528" lon="9.386753886938095">
        <ele>853.30999999999995</ele>
        <time>2014-05-24T08:46:49Z</time>
      </trkpt>
      <trkpt lat="45.871954718604684" lon="9.386774422600865">
        <ele>855.23000000000002</ele>
        <time>2014-05-24T08:47:04Z</time>
      </trkpt>
      <trkpt lat="45.871981959789991" lon="9.386734943836927">
        <ele>857.63</ele>
        <time>2014-05-24T08:47:18Z</time>
      </trkpt>
      <trkpt lat="45.872030658647418" lon="9.386665374040604">
        <ele>860.03999999999996</ele>
        <time>2014-05-24T08:47:33Z</time>
      </trkpt>
      <trkpt lat="45.872070388868451" lon="9.386661602184176">
        <ele>862.91999999999996</ele>
        <time>2014-05-24T08:47:52Z</time>
      </trkpt>
      <trkpt lat="45.872135767713189" lon="9.386659255251288">
        <ele>865.32000000000005</ele>
        <time>2014-05-24T08:48:07Z</time>
      </trkpt>
      <trkpt lat="45.872163930907845" lon="9.3866500351578">
        <ele>866.76999999999998</ele>
        <time>2014-05-24T08:48:19Z</time>
      </trkpt>
      <trkpt lat="45.872173821553588" lon="9.386639557778835">
        <ele>867.73000000000002</ele>
        <time>2014-05-24T08:48:35Z</time>
      </trkpt>
      <trkpt lat="45.87218320928514" lon="9.386652717366815">
        <ele>867.73000000000002</ele>
        <time>2014-05-24T08:49:02Z</time>
      </trkpt>
      <trkpt lat="45.872173989191651" lon="9.386665960773826">
        <ele>868.21000000000004</ele>
        <time>2014-05-24T08:49:29Z</time>
      </trkpt>
      <trkpt lat="45.872159991413355" lon="9.386748606339097">
        <ele>871.09000000000003</ele>
        <time>2014-05-24T08:49:43Z</time>
      </trkpt>
      <trkpt lat="45.872164852917194" lon="9.386763777583838">
        <ele>871.57000000000005</ele>
        <time>2014-05-24T08:49:59Z</time>
      </trkpt>
      <trkpt lat="45.872161164879799" lon="9.386756904423237">
        <ele>872.04999999999995</ele>
        <time>2014-05-24T08:50:18Z</time>
      </trkpt>
      <trkpt lat="45.872148843482137" lon="9.38676293939352">
        <ele>872.52999999999997</ele>
        <time>2014-05-24T08:50:37Z</time>
      </trkpt>
      <trkpt lat="45.872156387194991" lon="9.386754389852285">
        <ele>872.52999999999997</ele>
        <time>2014-05-24T08:51:03Z</time>
      </trkpt>
      <trkpt lat="45.872160075232387" lon="9.386796886101365">
        <ele>874.94000000000005</ele>
        <time>2014-05-24T08:51:20Z</time>
      </trkpt>
      <trkpt lat="45.872168121859431" lon="9.386832257732749">
        <ele>876.86000000000001</ele>
        <time>2014-05-24T08:51:33Z</time>
      </trkpt>
      <trkpt lat="45.87216367945075" lon="9.386887494474649">
        <ele>878.77999999999997</ele>
        <time>2014-05-24T08:51:48Z</time>
      </trkpt>
      <trkpt lat="45.872169462963939" lon="9.386890092864633">
        <ele>878.77999999999997</ele>
        <time>2014-05-24T08:52:08Z</time>
      </trkpt>
      <trkpt lat="45.872177090495825" lon="9.386901827529073">
        <ele>879.25999999999999</ele>
        <time>2014-05-24T08:52:28Z</time>
      </trkpt>
      <trkpt lat="45.872199637815356" lon="9.386937282979488">
        <ele>880.22000000000003</ele>
        <time>2014-05-24T08:52:41Z</time>
      </trkpt>
      <trkpt lat="45.872249426320195" lon="9.386966284364462">
        <ele>882.63</ele>
        <time>2014-05-24T08:52:55Z</time>
      </trkpt>
      <trkpt lat="45.872252359986305" lon="9.386923285201192">
        <ele>884.54999999999995</ele>
        <time>2014-05-24T08:53:13Z</time>
      </trkpt>
      <trkpt lat="45.872259652242064" lon="9.386856984347105">
        <ele>885.99000000000001</ele>
        <time>2014-05-24T08:53:29Z</time>
      </trkpt>
      <trkpt lat="45.872286222875118" lon="9.38681180588901">
        <ele>888.88</ele>
        <time>2014-05-24T08:53:44Z</time>
      </trkpt>
      <trkpt lat="45.872319918125868" lon="9.386823708191514">
        <ele>891.27999999999997</ele>
        <time>2014-05-24T08:53:56Z</time>
      </trkpt>
      <trkpt lat="45.872340789064765" lon="9.386793365702033">
        <ele>892.72000000000003</ele>
        <time>2014-05-24T08:54:09Z</time>
      </trkpt>
      <trkpt lat="45.872359229251742" lon="9.386821361258626">
        <ele>893.20000000000005</ele>
        <time>2014-05-24T08:54:22Z</time>
      </trkpt>
      <trkpt lat="45.872366102412343" lon="9.386846926063299">
        <ele>894.15999999999997</ele>
        <time>2014-05-24T08:54:37Z</time>
      </trkpt>
      <trkpt lat="45.872373897582293" lon="9.386844914406538">
        <ele>896.09000000000003</ele>
        <time>2014-05-24T08:54:52Z</time>
      </trkpt>
      <trkpt lat="45.872417986392975" lon="9.386861594393849">
        <ele>898.49000000000001</ele>
        <time>2014-05-24T08:55:03Z</time>
      </trkpt>
      <trkpt lat="45.872469618916512" lon="9.386832425370812">
        <ele>901.37</ele>
        <time>2014-05-24T08:55:17Z</time>
      </trkpt>
      <trkpt lat="45.872543212026358" lon="9.386837538331747">
        <ele>902.82000000000005</ele>
        <time>2014-05-24T08:55:30Z</time>
      </trkpt>
      <trkpt lat="45.872575985267758" lon="9.386864360421896">
        <ele>904.25999999999999</ele>
        <time>2014-05-24T08:55:45Z</time>
      </trkpt>
      <trkpt lat="45.872586462646723" lon="9.386888416483998">
        <ele>904.74000000000001</ele>
        <time>2014-05-24T08:56:01Z</time>
      </trkpt>
      <trkpt lat="45.872586630284786" lon="9.386859247460961">
        <ele>904.74000000000001</ele>
        <time>2014-05-24T08:56:18Z</time>
      </trkpt>
      <trkpt lat="45.872618146240711" lon="9.386744583025575">
        <ele>906.17999999999995</ele>
        <time>2014-05-24T08:56:32Z</time>
      </trkpt>
      <trkpt lat="45.872642369940877" lon="9.386669900268316">
        <ele>907.62</ele>
        <time>2014-05-24T08:56:46Z</time>
      </trkpt>
      <trkpt lat="45.872681429609656" lon="9.386684149503708">
        <ele>910.02999999999997</ele>
        <time>2014-05-24T08:57:00Z</time>
      </trkpt>
      <trkpt lat="45.872698025777936" lon="9.386730249971151">
        <ele>912.42999999999995</ele>
        <time>2014-05-24T08:57:13Z</time>
      </trkpt>
      <trkpt lat="45.872712107375264" lon="9.386740811169148">
        <ele>912.90999999999997</ele>
        <time>2014-05-24T08:57:26Z</time>
      </trkpt>
      <trkpt lat="45.872721495106816" lon="9.386709211394191">
        <ele>915.30999999999995</ele>
        <time>2014-05-24T08:57:39Z</time>
      </trkpt>
      <trkpt lat="45.872734067961574" lon="9.386665038764477">
        <ele>916.75</ele>
        <time>2014-05-24T08:57:51Z</time>
      </trkpt>
      <trkpt lat="45.87275586090982" lon="9.386671492829919">
        <ele>918.20000000000005</ele>
        <time>2014-05-24T08:58:04Z</time>
      </trkpt>
      <trkpt lat="45.872772289440036" lon="9.386671241372824">
        <ele>918.67999999999995</ele>
        <time>2014-05-24T08:58:21Z</time>
      </trkpt>
      <trkpt lat="45.872787963598967" lon="9.386719688773155">
        <ele>923</ele>
        <time>2014-05-24T08:58:35Z</time>
      </trkpt>
      <trkpt lat="45.872831046581268" lon="9.38668423332274">
        <ele>924.45000000000005</ele>
        <time>2014-05-24T08:58:49Z</time>
      </trkpt>
      <trkpt lat="45.872848983854055" lon="9.386735446751118">
        <ele>926.85000000000002</ele>
        <time>2014-05-24T08:59:01Z</time>
      </trkpt>
      <trkpt lat="45.872852252796292" lon="9.386784229427576">
        <ele>928.28999999999996</ele>
        <time>2014-05-24T08:59:18Z</time>
      </trkpt>
      <trkpt lat="45.872850827872753" lon="9.386787246912718">
        <ele>929.73000000000002</ele>
        <time>2014-05-24T08:59:32Z</time>
      </trkpt>
      <trkpt lat="45.872871614992619" lon="9.386766543611884">
        <ele>933.10000000000002</ele>
        <time>2014-05-24T08:59:39Z</time>
      </trkpt>
      <trkpt lat="45.872912937775254" lon="9.386765705421567">
        <ele>933.10000000000002</ele>
        <time>2014-05-24T08:59:54Z</time>
      </trkpt>
      <trkpt lat="45.872952919453382" lon="9.3867018353194">
        <ele>935.01999999999998</ele>
        <time>2014-05-24T09:00:09Z</time>
      </trkpt>
      <trkpt lat="45.873001953586936" lon="9.386726059019566">
        <ele>936.46000000000004</ele>
        <time>2014-05-24T09:00:21Z</time>
      </trkpt>
      <trkpt lat="45.873062806203961" lon="9.386752964928746">
        <ele>935.5</ele>
        <time>2014-05-24T09:00:31Z</time>
      </trkpt>
      <trkpt lat="45.873199682682753" lon="9.386827480047941">
        <ele>935.5</ele>
        <time>2014-05-24T09:00:45Z</time>
      </trkpt>
      <trkpt lat="45.873271431773901" lon="9.386903839185834">
        <ele>936.94000000000005</ele>
        <time>2014-05-24T09:00:58Z</time>
      </trkpt>
      <trkpt lat="45.873352903872728" lon="9.386825384572148">
        <ele>938.38</ele>
        <time>2014-05-24T09:01:13Z</time>
      </trkpt>
      <trkpt lat="45.873428005725145" lon="9.386805519461632">
        <ele>939.83000000000004</ele>
        <time>2014-05-24T09:01:27Z</time>
      </trkpt>
      <trkpt lat="45.873468741774559" lon="9.386754641309381">
        <ele>942.23000000000002</ele>
        <time>2014-05-24T09:01:43Z</time>
      </trkpt>
      <trkpt lat="45.873497994616628" lon="9.386748941615224">
        <ele>944.63</ele>
        <time>2014-05-24T09:01:57Z</time>
      </trkpt>
      <trkpt lat="45.873531773686409" lon="9.386761179193854">
        <ele>946.55999999999995</ele>
        <time>2014-05-24T09:02:13Z</time>
      </trkpt>
      <trkpt lat="45.87354987859726" lon="9.386768219992518">
        <ele>947.51999999999998</ele>
        <time>2014-05-24T09:02:28Z</time>
      </trkpt>
      <trkpt lat="45.873558847233653" lon="9.386725891381502">
        <ele>950.88</ele>
        <time>2014-05-24T09:02:37Z</time>
      </trkpt>
      <trkpt lat="45.873589441180229" lon="9.386740727350116">
        <ele>950.88</ele>
        <time>2014-05-24T09:02:51Z</time>
      </trkpt>
      <trkpt lat="45.873602768406272" lon="9.386776685714722">
        <ele>952.79999999999995</ele>
        <time>2014-05-24T09:03:03Z</time>
      </trkpt>
      <trkpt lat="45.873612910509109" lon="9.386806441470981">
        <ele>955.21000000000004</ele>
        <time>2014-05-24T09:03:19Z</time>
      </trkpt>
      <trkpt lat="45.873632021248341" lon="9.386801747605205">
        <ele>956.16999999999996</ele>
        <time>2014-05-24T09:03:32Z</time>
      </trkpt>
      <trkpt lat="45.873638140037656" lon="9.386767633259296">
        <ele>958.57000000000005</ele>
        <time>2014-05-24T09:03:48Z</time>
      </trkpt>
      <trkpt lat="45.873668733984232" lon="9.38674290664494">
        <ele>960.49000000000001</ele>
        <time>2014-05-24T09:04:04Z</time>
      </trkpt>
      <trkpt lat="45.873733358457685" lon="9.386737374588847">
        <ele>962.89999999999998</ele>
        <time>2014-05-24T09:04:21Z</time>
      </trkpt>
      <trkpt lat="45.873739896342158" lon="9.386719353497028">
        <ele>964.82000000000005</ele>
        <time>2014-05-24T09:04:39Z</time>
      </trkpt>
      <trkpt lat="45.873796222731471" lon="9.386726142838597">
        <ele>966.74000000000001</ele>
        <time>2014-05-24T09:04:54Z</time>
      </trkpt>
      <trkpt lat="45.873831762000918" lon="9.38671600073576">
        <ele>968.66999999999996</ele>
        <time>2014-05-24T09:05:08Z</time>
      </trkpt>
      <trkpt lat="45.873836958780885" lon="9.386682976037264">
        <ele>970.11000000000001</ele>
        <time>2014-05-24T09:05:26Z</time>
      </trkpt>
      <trkpt lat="45.873848274350166" lon="9.386672079563141">
        <ele>971.54999999999995</ele>
        <time>2014-05-24T09:05:39Z</time>
      </trkpt>
      <trkpt lat="45.87386311031878" lon="9.386625811457634">
        <ele>973.95000000000005</ele>
        <time>2014-05-24T09:05:52Z</time>
      </trkpt>
      <trkpt lat="45.873847017064691" lon="9.386599492281675">
        <ele>975.38999999999999</ele>
        <time>2014-05-24T09:06:03Z</time>
      </trkpt>
      <trkpt lat="45.873820278793573" lon="9.386547692120075">
        <ele>977.79999999999995</ele>
        <time>2014-05-24T09:06:18Z</time>
      </trkpt>
      <trkpt lat="45.873811393976212" lon="9.386543752625585">
        <ele>978.27999999999997</ele>
        <time>2014-05-24T09:06:33Z</time>
      </trkpt>
      <trkpt lat="45.873788176104426" lon="9.38652640208602">
        <ele>977.79999999999995</ele>
        <time>2014-05-24T09:06:47Z</time>
      </trkpt>
      <trkpt lat="45.87380787357688" lon="9.386512655764818">
        <ele>977.79999999999995</ele>
        <time>2014-05-24T09:07:11Z</time>
      </trkpt>
      <trkpt lat="45.873818350955844" lon="9.386566132307053">
        <ele>976.84000000000003</ele>
        <time>2014-05-24T09:07:31Z</time>
      </trkpt>
      <trkpt lat="45.873758839443326" lon="9.386523803696036">
        <ele>976.84000000000003</ele>
        <time>2014-05-24T09:07:46Z</time>
      </trkpt>
      <trkpt lat="45.873753307387233" lon="9.386500753462315">
        <ele>976.36000000000001</ele>
        <time>2014-05-24T09:08:09Z</time>
      </trkpt>
      <trkpt lat="45.873759258538485" lon="9.386493545025587">
        <ele>976.36000000000001</ele>
        <time>2014-05-24T09:08:31Z</time>
      </trkpt>
      <trkpt lat="45.873776525259018" lon="9.386500166729093">
        <ele>977.32000000000005</ele>
        <time>2014-05-24T09:08:44Z</time>
      </trkpt>
      <trkpt lat="45.873777028173208" lon="9.386498238891363">
        <ele>977.32000000000005</ele>
        <time>2014-05-24T09:09:00Z</time>
      </trkpt>
      <trkpt lat="45.873780297115445" lon="9.386516427621245">
        <ele>976.84000000000003</ele>
        <time>2014-05-24T09:09:26Z</time>
      </trkpt>
      <trkpt lat="45.873769568279386" lon="9.386514667421579">
        <ele>977.32000000000005</ele>
        <time>2014-05-24T09:09:51Z</time>
      </trkpt>
      <trkpt lat="45.873770490288734" lon="9.386511733755469">
        <ele>977.32000000000005</ele>
        <time>2014-05-24T09:10:12Z</time>
      </trkpt>
      <trkpt lat="45.873788176104426" lon="9.386483486741781">
        <ele>977.79999999999995</ele>
        <time>2014-05-24T09:10:22Z</time>
      </trkpt>
      <trkpt lat="45.873793372884393" lon="9.386497316882014">
        <ele>977.79999999999995</ele>
        <time>2014-05-24T09:10:43Z</time>
      </trkpt>
      <trkpt lat="45.873787421733141" lon="9.386525144800544">
        <ele>977.79999999999995</ele>
        <time>2014-05-24T09:10:55Z</time>
      </trkpt>
      <trkpt lat="45.87378247641027" lon="9.386512404307723">
        <ele>977.79999999999995</ele>
        <time>2014-05-24T09:11:24Z</time>
      </trkpt>
      <trkpt lat="45.873792953789234" lon="9.386533945798874">
        <ele>977.79999999999995</ele>
        <time>2014-05-24T09:11:52Z</time>
      </trkpt>
      <trkpt lat="45.87378348223865" lon="9.386534951627255">
        <ele>978.27999999999997</ele>
        <time>2014-05-24T09:12:22Z</time>
      </trkpt>
      <trkpt lat="45.873803598806262" lon="9.386480553075671">
        <ele>978.27999999999997</ele>
        <time>2014-05-24T09:12:43Z</time>
      </trkpt>
      <trkpt lat="45.873804604634643" lon="9.386488934978843">
        <ele>977.79999999999995</ele>
        <time>2014-05-24T09:13:08Z</time>
      </trkpt>
      <trkpt lat="45.873788762837648" lon="9.38647611066699">
        <ele>977.79999999999995</ele>
        <time>2014-05-24T09:13:42Z</time>
      </trkpt>
      <trkpt lat="45.873805359005928" lon="9.386489521712065">
        <ele>977.79999999999995</ele>
        <time>2014-05-24T09:14:04Z</time>
      </trkpt>
      <trkpt lat="45.873791696503758" lon="9.38648683950305">
        <ele>977.79999999999995</ele>
        <time>2014-05-24T09:14:23Z</time>
      </trkpt>
      <trkpt lat="45.873800162225962" lon="9.38648977316916">
        <ele>978.27999999999997</ele>
        <time>2014-05-24T09:14:42Z</time>
      </trkpt>
      <trkpt lat="45.873849280178547" lon="9.386508800089359">
        <ele>978.75999999999999</ele>
        <time>2014-05-24T09:15:02Z</time>
      </trkpt>
      <trkpt lat="45.873889429494739" lon="9.386491114273667">
        <ele>981.15999999999997</ele>
        <time>2014-05-24T09:15:17Z</time>
      </trkpt>
      <trkpt lat="45.873927315697074" lon="9.386485163122416">
        <ele>982.12</ele>
        <time>2014-05-24T09:15:28Z</time>
      </trkpt>
      <trkpt lat="45.873935278505087" lon="9.38644434325397">
        <ele>982.60000000000002</ele>
        <time>2014-05-24T09:15:32Z</time>
      </trkpt>
      <trkpt lat="45.873999232426286" lon="9.38641794025898">
        <ele>983.57000000000005</ele>
        <time>2014-05-24T09:15:45Z</time>
      </trkpt>
      <trkpt lat="45.874046757817268" lon="9.386453060433269">
        <ele>985.00999999999999</ele>
        <time>2014-05-24T09:15:59Z</time>
      </trkpt>
      <trkpt lat="45.874069891870022" lon="9.386489605531097">
        <ele>987.40999999999997</ele>
        <time>2014-05-24T09:16:15Z</time>
      </trkpt>
      <trkpt lat="45.874052876606584" lon="9.386523719877005">
        <ele>988.37</ele>
        <time>2014-05-24T09:16:30Z</time>
      </trkpt>
      <trkpt lat="45.874052541330457" lon="9.386542746797204">
        <ele>990.29999999999995</ele>
        <time>2014-05-24T09:16:45Z</time>
      </trkpt>
      <trkpt lat="45.874070059508085" lon="9.386601503938437">
        <ele>992.70000000000005</ele>
        <time>2014-05-24T09:16:59Z</time>
      </trkpt>
      <trkpt lat="45.874152285978198" lon="9.386577112600207">
        <ele>994.62</ele>
        <time>2014-05-24T09:17:13Z</time>
      </trkpt>
      <trkpt lat="45.874206265434623" lon="9.386630924418569">
        <ele>996.53999999999996</ele>
        <time>2014-05-24T09:17:28Z</time>
      </trkpt>
      <trkpt lat="45.874242726713419" lon="9.386613154783845">
        <ele>997.99000000000001</ele>
        <time>2014-05-24T09:17:45Z</time>
      </trkpt>
      <trkpt lat="45.874241050332785" lon="9.386606868356466">
        <ele>999.42999999999995</ele>
        <time>2014-05-24T09:17:47Z</time>
      </trkpt>
      <trkpt lat="45.874259322881699" lon="9.386621033772826">
        <ele>999.90999999999997</ele>
        <time>2014-05-24T09:18:01Z</time>
      </trkpt>
      <trkpt lat="45.874308776110411" lon="9.386628577485681">
        <ele>1002.79</ele>
        <time>2014-05-24T09:18:13Z</time>
      </trkpt>
      <trkpt lat="45.874338364228606" lon="9.38668716698885">
        <ele>1004.72</ele>
        <time>2014-05-24T09:18:28Z</time>
      </trkpt>
      <trkpt lat="45.874362839385867" lon="9.386692531406879">
        <ele>1006.16</ele>
        <time>2014-05-24T09:18:40Z</time>
      </trkpt>
      <trkpt lat="45.874406676739454" lon="9.386706613004208">
        <ele>1008.5599999999999</ele>
        <time>2014-05-24T09:18:51Z</time>
      </trkpt>
      <trkpt lat="45.87441673502326" lon="9.386777272447944">
        <ele>1010.48</ele>
        <time>2014-05-24T09:19:06Z</time>
      </trkpt>
      <trkpt lat="45.874437689781189" lon="9.386803256347776">
        <ele>1012.41</ele>
        <time>2014-05-24T09:19:26Z</time>
      </trkpt>
      <trkpt lat="45.874517736956477" lon="9.386764280498028">
        <ele>1015.77</ele>
        <time>2014-05-24T09:19:41Z</time>
      </trkpt>
      <trkpt lat="45.874578338116407" lon="9.386794874444604">
        <ele>1018.17</ele>
        <time>2014-05-24T09:19:57Z</time>
      </trkpt>
      <trkpt lat="45.874599292874336" lon="9.386831084266305">
        <ele>1019.13</ele>
        <time>2014-05-24T09:20:10Z</time>
      </trkpt>
      <trkpt lat="45.874613961204886" lon="9.386859415099025">
        <ele>1021.0599999999999</ele>
        <time>2014-05-24T09:20:26Z</time>
      </trkpt>
      <trkpt lat="45.874664504081011" lon="9.386896127834916">
        <ele>1023.9400000000001</ele>
        <time>2014-05-24T09:20:43Z</time>
      </trkpt>
      <trkpt lat="45.874694343656301" lon="9.386950610205531">
        <ele>1026.8299999999999</ele>
        <time>2014-05-24T09:21:00Z</time>
      </trkpt>
      <trkpt lat="45.874607674777508" lon="9.386981120333076">
        <ele>1028.27</ele>
        <time>2014-05-24T09:21:13Z</time>
      </trkpt>
      <trkpt lat="45.874531734734774" lon="9.38700869679451">
        <ele>1029.23</ele>
        <time>2014-05-24T09:21:26Z</time>
      </trkpt>
      <trkpt lat="45.87448613718152" lon="9.38706393353641">
        <ele>1031.6300000000001</ele>
        <time>2014-05-24T09:21:41Z</time>
      </trkpt>
      <trkpt lat="45.874449759721756" lon="9.387089498341084">
        <ele>1033.55</ele>
        <time>2014-05-24T09:21:56Z</time>
      </trkpt>
      <trkpt lat="45.874380441382527" lon="9.387159571051598">
        <ele>1034.04</ele>
        <time>2014-05-24T09:22:10Z</time>
      </trkpt>
      <trkpt lat="45.874380609020591" lon="9.387198965996504">
        <ele>1035</ele>
        <time>2014-05-24T09:22:23Z</time>
      </trkpt>
      <trkpt lat="45.874377759173512" lon="9.387248754501343">
        <ele>1035.48</ele>
        <time>2014-05-24T09:22:38Z</time>
      </trkpt>
      <trkpt lat="45.874391673132777" lon="9.387270966544747">
        <ele>1036.9200000000001</ele>
        <time>2014-05-24T09:22:51Z</time>
      </trkpt>
      <trkpt lat="45.874372059479356" lon="9.38730382360518">
        <ele>1036.4400000000001</ele>
        <time>2014-05-24T09:23:03Z</time>
      </trkpt>
      <trkpt lat="45.874350601807237" lon="9.387291166931391">
        <ele>1035</ele>
        <time>2014-05-24T09:23:16Z</time>
      </trkpt>
      <trkpt lat="45.874356720596552" lon="9.387285467237234">
        <ele>1035</ele>
        <time>2014-05-24T09:23:40Z</time>
      </trkpt>
      <trkpt lat="45.87435370311141" lon="9.387277252972126">
        <ele>1035.48</ele>
        <time>2014-05-24T09:23:54Z</time>
      </trkpt>
      <trkpt lat="45.874353619292378" lon="9.387276498600841">
        <ele>1035.48</ele>
        <time>2014-05-24T09:24:13Z</time>
      </trkpt>
      <trkpt lat="45.874372059479356" lon="9.387300135567784">
        <ele>1035.96</ele>
        <time>2014-05-24T09:24:33Z</time>
      </trkpt>
      <trkpt lat="45.874369796365499" lon="9.387295944616199">
        <ele>1035.96</ele>
        <time>2014-05-24T09:24:51Z</time>
      </trkpt>
      <trkpt lat="45.874372562393546" lon="9.387296363711357">
        <ele>1035.96</ele>
        <time>2014-05-24T09:25:14Z</time>
      </trkpt>
      <trkpt lat="45.874391840770841" lon="9.387275241315365">
        <ele>1037.4000000000001</ele>
        <time>2014-05-24T09:25:30Z</time>
      </trkpt>
      <trkpt lat="45.874440958723426" lon="9.387263925746083">
        <ele>1039.3199999999999</ele>
        <time>2014-05-24T09:25:43Z</time>
      </trkpt>
      <trkpt lat="45.874460907652974" lon="9.387228721752763">
        <ele>1039.3199999999999</ele>
        <time>2014-05-24T09:25:58Z</time>
      </trkpt>
      <trkpt lat="45.874535171315074" lon="9.387284629046917">
        <ele>1041.25</ele>
        <time>2014-05-24T09:26:11Z</time>
      </trkpt>
      <trkpt lat="45.874618319794536" lon="9.38731069676578">
        <ele>1042.6900000000001</ele>
        <time>2014-05-24T09:26:26Z</time>
      </trkpt>
      <trkpt lat="45.874608345329762" lon="9.387310529127717">
        <ele>1042.21</ele>
        <time>2014-05-24T09:26:40Z</time>
      </trkpt>
      <trkpt lat="45.87460340000689" lon="9.387280438095331">
        <ele>1042.6900000000001</ele>
        <time>2014-05-24T09:26:54Z</time>
      </trkpt>
      <trkpt lat="45.874604824930429" lon="9.387263087555766">
        <ele>1042.6900000000001</ele>
        <time>2014-05-24T09:27:10Z</time>
      </trkpt>
      <trkpt lat="45.874602645635605" lon="9.38727792352438">
        <ele>1042.6900000000001</ele>
        <time>2014-05-24T09:27:24Z</time>
      </trkpt>
      <trkpt lat="45.874598789960146" lon="9.387269206345081">
        <ele>1042.21</ele>
        <time>2014-05-24T09:27:42Z</time>
      </trkpt>
      <trkpt lat="45.874629803001881" lon="9.387331819161773">
        <ele>1043.1700000000001</ele>
        <time>2014-05-24T09:27:55Z</time>
      </trkpt>
      <trkpt lat="45.874622846022248" lon="9.387320000678301">
        <ele>1042.21</ele>
        <time>2014-05-24T09:28:11Z</time>
      </trkpt>
      <trkpt lat="45.874606836587191" lon="9.387315474450588">
        <ele>1042.6900000000001</ele>
        <time>2014-05-24T09:28:42Z</time>
      </trkpt>
      <trkpt lat="45.874618990346789" lon="9.387312037870288">
        <ele>1042.6900000000001</ele>
        <time>2014-05-24T09:29:11Z</time>
      </trkpt>
      <trkpt lat="45.87462242692709" lon="9.387300219386816">
        <ele>1041.73</ele>
        <time>2014-05-24T09:29:30Z</time>
      </trkpt>
      <trkpt lat="45.874621756374836" lon="9.387295944616199">
        <ele>1043.1700000000001</ele>
        <time>2014-05-24T09:29:53Z</time>
      </trkpt>
      <trkpt lat="45.874627288430929" lon="9.387302231043577">
        <ele>1043.1700000000001</ele>
        <time>2014-05-24T09:30:08Z</time>
      </trkpt>
      <trkpt lat="45.87461513467133" lon="9.387319330126047">
        <ele>1043.1700000000001</ele>
        <time>2014-05-24T09:30:25Z</time>
      </trkpt>
      <trkpt lat="45.874615972861648" lon="9.387324946001172">
        <ele>1043.1700000000001</ele>
        <time>2014-05-24T09:30:43Z</time>
      </trkpt>
      <trkpt lat="45.874618152156472" lon="9.387324694544077">
        <ele>1043.1700000000001</ele>
        <time>2014-05-24T09:31:03Z</time>
      </trkpt>
      <trkpt lat="45.87464296258986" lon="9.38730726018548">
        <ele>1044.1300000000001</ele>
        <time>2014-05-24T09:31:16Z</time>
      </trkpt>
      <trkpt lat="45.874644471332431" lon="9.387305751442909">
        <ele>1044.1300000000001</ele>
        <time>2014-05-24T09:31:45Z</time>
      </trkpt>
      <trkpt lat="45.874656038358808" lon="9.387303153052926">
        <ele>1044.1300000000001</ele>
        <time>2014-05-24T09:32:19Z</time>
      </trkpt>
      <trkpt lat="45.874622510746121" lon="9.38730139285326">
        <ele>1043.6500000000001</ele>
        <time>2014-05-24T09:32:35Z</time>
      </trkpt>
      <trkpt lat="45.87465419434011" lon="9.387296950444579">
        <ele>1043.1700000000001</ele>
        <time>2014-05-24T09:32:50Z</time>
      </trkpt>
      <trkpt lat="45.874651428312063" lon="9.387326538562775">
        <ele>1043.1700000000001</ele>
        <time>2014-05-24T09:33:06Z</time>
      </trkpt>
      <trkpt lat="45.874656122177839" lon="9.387273648753762">
        <ele>1043.1700000000001</ele>
        <time>2014-05-24T09:33:20Z</time>
      </trkpt>
      <trkpt lat="45.8746771607548" lon="9.387270631268621">
        <ele>1042.6900000000001</ele>
        <time>2014-05-24T09:33:41Z</time>
      </trkpt>
      <trkpt lat="45.874666096642613" lon="9.387281611561775">
        <ele>1042.6900000000001</ele>
        <time>2014-05-24T09:34:04Z</time>
      </trkpt>
      <trkpt lat="45.874670874327421" lon="9.387267697602511">
        <ele>1042.6900000000001</ele>
        <time>2014-05-24T09:34:30Z</time>
      </trkpt>
      <trkpt lat="45.874667521566153" lon="9.387262417003512">
        <ele>1042.6900000000001</ele>
        <time>2014-05-24T09:35:02Z</time>
      </trkpt>
      <trkpt lat="45.874660816043615" lon="9.387274906039238">
        <ele>1042.6900000000001</ele>
        <time>2014-05-24T09:35:33Z</time>
      </trkpt>
      <trkpt lat="45.874654864892364" lon="9.387276498600841">
        <ele>1042.6900000000001</ele>
        <time>2014-05-24T09:36:02Z</time>
      </trkpt>
      <trkpt lat="45.874656457453966" lon="9.387266105040908">
        <ele>1042.6900000000001</ele>
        <time>2014-05-24T09:36:30Z</time>
      </trkpt>
      <trkpt lat="45.874660229310393" lon="9.387249005958438">
        <ele>1043.1700000000001</ele>
        <time>2014-05-24T09:37:20Z</time>
      </trkpt>
      <trkpt lat="45.874669533222914" lon="9.387254789471626">
        <ele>1043.1700000000001</ele>
        <time>2014-05-24T09:37:48Z</time>
      </trkpt>
      <trkpt lat="45.874669281765819" lon="9.387276163324714">
        <ele>1043.1700000000001</ele>
        <time>2014-05-24T09:38:25Z</time>
      </trkpt>
      <trkpt lat="45.874678753316402" lon="9.387238528579474">
        <ele>1042.6900000000001</ele>
        <time>2014-05-24T09:38:53Z</time>
      </trkpt>
      <trkpt lat="45.874705240130424" lon="9.387208102270961">
        <ele>1040.76</ele>
        <time>2014-05-24T09:39:03Z</time>
      </trkpt>
      <trkpt lat="45.874727535992861" lon="9.387185974046588">
        <ele>1038.8399999999999</ele>
        <time>2014-05-24T09:39:07Z</time>
      </trkpt>
      <trkpt lat="45.874792747199535" lon="9.387153284624219">
        <ele>1035.96</ele>
        <time>2014-05-24T09:39:19Z</time>
      </trkpt>
      <trkpt lat="45.874874722212553" lon="9.387100981548429">
        <ele>1033.0699999999999</ele>
        <time>2014-05-24T09:39:31Z</time>
      </trkpt>
      <trkpt lat="45.874957200139761" lon="9.387040715664625">
        <ele>1032.1099999999999</ele>
        <time>2014-05-24T09:39:40Z</time>
      </trkpt>
      <trkpt lat="45.875057280063629" lon="9.38701942563057">
        <ele>1032.5899999999999</ele>
        <time>2014-05-24T09:39:51Z</time>
      </trkpt>
      <trkpt lat="45.875086365267634" lon="9.387011295184493">
        <ele>1033.55</ele>
        <time>2014-05-24T09:39:55Z</time>
      </trkpt>
      <trkpt lat="45.875146128237247" lon="9.386997716501355">
        <ele>1034.52</ele>
        <time>2014-05-24T09:40:03Z</time>
      </trkpt>
      <trkpt lat="45.875157862901688" lon="9.386978689581156">
        <ele>1034.52</ele>
        <time>2014-05-24T09:40:06Z</time>
      </trkpt>
      <trkpt lat="45.875260289758444" lon="9.386911718174815">
        <ele>1033.0699999999999</ele>
        <time>2014-05-24T09:40:19Z</time>
      </trkpt>
      <trkpt lat="45.875267582014203" lon="9.386894954368472">
        <ele>1033.0699999999999</ele>
        <time>2014-05-24T09:40:21Z</time>
      </trkpt>
      <trkpt lat="45.875316699966788" lon="9.386868048459292">
        <ele>1031.6300000000001</ele>
        <time>2014-05-24T09:40:25Z</time>
      </trkpt>
      <trkpt lat="45.875382162630558" lon="9.386827731505036">
        <ele>1030.1900000000001</ele>
        <time>2014-05-24T09:40:32Z</time>
      </trkpt>
      <trkpt lat="45.875490875914693" lon="9.386769477277994">
        <ele>1029.71</ele>
        <time>2014-05-24T09:40:46Z</time>
      </trkpt>
      <trkpt lat="45.875573102384806" lon="9.386703763157129">
        <ele>1028.75</ele>
        <time>2014-05-24T09:40:59Z</time>
      </trkpt>
      <trkpt lat="45.875660106539726" lon="9.386652130633593">
        <ele>1028.27</ele>
        <time>2014-05-24T09:41:11Z</time>
      </trkpt>
      <trkpt lat="45.875730765983462" lon="9.386594546958804">
        <ele>1027.79</ele>
        <time>2014-05-24T09:41:20Z</time>
      </trkpt>
      <trkpt lat="45.875846687704325" lon="9.386601839214563">
        <ele>1029.23</ele>
        <time>2014-05-24T09:41:35Z</time>
      </trkpt>
      <trkpt lat="45.87595540098846" lon="9.386563366279006">
        <ele>1027.79</ele>
        <time>2014-05-24T09:41:52Z</time>
      </trkpt>
      <trkpt lat="45.875968309119344" lon="9.386570071801543">
        <ele>1027.79</ele>
        <time>2014-05-24T09:42:11Z</time>
      </trkpt>
      <trkpt lat="45.875966213643551" lon="9.386567138135433">
        <ele>1027.79</ele>
        <time>2014-05-24T09:42:30Z</time>
      </trkpt>
      <trkpt lat="45.87597350589931" lon="9.386525647714734">
        <ele>1026.8299999999999</ele>
        <time>2014-05-24T09:42:54Z</time>
      </trkpt>
      <trkpt lat="45.876003596931696" lon="9.386490611359477">
        <ele>1026.8299999999999</ele>
        <time>2014-05-24T09:42:58Z</time>
      </trkpt>
      <trkpt lat="45.87603310123086" lon="9.386465214192867">
        <ele>1025.3800000000001</ele>
        <time>2014-05-24T09:43:01Z</time>
      </trkpt>
      <trkpt lat="45.876099318265915" lon="9.386391453444958">
        <ele>1022.98</ele>
        <time>2014-05-24T09:43:16Z</time>
      </trkpt>
      <trkpt lat="45.876138629391789" lon="9.386385669931769">
        <ele>1022.98</ele>
        <time>2014-05-24T09:43:35Z</time>
      </trkpt>
      <trkpt lat="45.876138377934694" lon="9.386356584727764">
        <ele>1022.02</ele>
        <time>2014-05-24T09:43:40Z</time>
      </trkpt>
      <trkpt lat="45.876172324642539" lon="9.38625181093812">
        <ele>1018.65</ele>
        <time>2014-05-24T09:43:52Z</time>
      </trkpt>
      <trkpt lat="45.876185735687613" lon="9.38618240877986">
        <ele>1015.77</ele>
        <time>2014-05-24T09:44:02Z</time>
      </trkpt>
      <trkpt lat="45.876186741515994" lon="9.386174948886037">
        <ele>1015.29</ele>
        <time>2014-05-24T09:44:03Z</time>
      </trkpt>
      <trkpt lat="45.876193698495626" lon="9.386125830933452">
        <ele>1013.85</ele>
        <time>2014-05-24T09:44:07Z</time>
      </trkpt>
      <trkpt lat="45.87623736821115" lon="9.386056931689382">
        <ele>1012.41</ele>
        <time>2014-05-24T09:44:24Z</time>
      </trkpt>
      <trkpt lat="45.87625346146524" lon="9.386045029386878">
        <ele>1012.41</ele>
        <time>2014-05-24T09:44:44Z</time>
      </trkpt>
      <trkpt lat="45.876301322132349" lon="9.385929862037301">
        <ele>1009.52</ele>
        <time>2014-05-24T09:44:59Z</time>
      </trkpt>
      <trkpt lat="45.876304171979427" lon="9.385912511497736">
        <ele>1009.04</ele>
        <time>2014-05-24T09:45:01Z</time>
      </trkpt>
      <trkpt lat="45.876337951049209" lon="9.385828692466021">
        <ele>1006.16</ele>
        <time>2014-05-24T09:45:14Z</time>
      </trkpt>
      <trkpt lat="45.876367622986436" lon="9.385753590613604">
        <ele>1004.23</ele>
        <time>2014-05-24T09:45:26Z</time>
      </trkpt>
      <trkpt lat="45.87639469653368" lon="9.385676812380552">
        <ele>1001.35</ele>
        <time>2014-05-24T09:45:37Z</time>
      </trkpt>
      <trkpt lat="45.876382207497954" lon="9.385624676942825">
        <ele>998.47000000000003</ele>
        <time>2014-05-24T09:45:47Z</time>
      </trkpt>
      <trkpt lat="45.876375753432512" lon="9.38556969165802">
        <ele>996.05999999999995</ele>
        <time>2014-05-24T09:45:59Z</time>
      </trkpt>
      <trkpt lat="45.876350104808807" lon="9.38555452041328">
        <ele>994.62</ele>
        <time>2014-05-24T09:46:03Z</time>
      </trkpt>
      <trkpt lat="45.876372735947371" lon="9.38551009632647">
        <ele>992.22000000000003</ele>
        <time>2014-05-24T09:46:09Z</time>
      </trkpt>
      <trkpt lat="45.876376423984766" lon="9.385481094941497">
        <ele>990.77999999999997</ele>
        <time>2014-05-24T09:46:14Z</time>
      </trkpt>
      <trkpt lat="45.876339124515653" lon="9.38544262200594">
        <ele>988.85000000000002</ele>
        <time>2014-05-24T09:46:19Z</time>
      </trkpt>
      <trkpt lat="45.876332754269242" lon="9.3854377605021">
        <ele>988.37</ele>
        <time>2014-05-24T09:46:20Z</time>
      </trkpt>
      <trkpt lat="45.876255221664906" lon="9.385432563722134">
        <ele>985.00999999999999</ele>
        <time>2014-05-24T09:46:30Z</time>
      </trkpt>
      <trkpt lat="45.876203505322337" lon="9.385429546236992">
        <ele>981.63999999999999</ele>
        <time>2014-05-24T09:46:44Z</time>
      </trkpt>
      <trkpt lat="45.876169307157397" lon="9.385403394699097">
        <ele>978.27999999999997</ele>
        <time>2014-05-24T09:46:54Z</time>
      </trkpt>
      <trkpt lat="45.876121446490288" lon="9.385414961725473">
        <ele>975.38999999999999</ele>
        <time>2014-05-24T09:47:07Z</time>
      </trkpt>
      <trkpt lat="45.876103844493628" lon="9.385447315871716">
        <ele>972.99000000000001</ele>
        <time>2014-05-24T09:47:20Z</time>
      </trkpt>
      <trkpt lat="45.876081883907318" lon="9.385413955897093">
        <ele>971.07000000000005</ele>
        <time>2014-05-24T09:47:29Z</time>
      </trkpt>
      <trkpt lat="45.876016924157739" lon="9.385429210960865">
        <ele>967.70000000000005</ele>
        <time>2014-05-24T09:47:38Z</time>
      </trkpt>
      <trkpt lat="45.87592707015574" lon="9.385442789644003">
        <ele>964.82000000000005</ele>
        <time>2014-05-24T09:47:51Z</time>
      </trkpt>
      <trkpt lat="45.875857835635543" lon="9.385432982817292">
        <ele>961.94000000000005</ele>
        <time>2014-05-24T09:48:04Z</time>
      </trkpt>
      <trkpt lat="45.875846268609166" lon="9.385419823229313">
        <ele>961.46000000000004</ele>
        <time>2014-05-24T09:48:06Z</time>
      </trkpt>
      <trkpt lat="45.875694891437888" lon="9.385372968390584">
        <ele>958.09000000000003</ele>
        <time>2014-05-24T09:48:21Z</time>
      </trkpt>
      <trkpt lat="45.875598499551415" lon="9.38535955734551">
        <ele>957.61000000000001</ele>
        <time>2014-05-24T09:48:31Z</time>
      </trkpt>
      <trkpt lat="45.875464892014861" lon="9.385321503505111">
        <ele>955.21000000000004</ele>
        <time>2014-05-24T09:48:46Z</time>
      </trkpt>
      <trkpt lat="45.875376798212528" lon="9.385316893458366">
        <ele>952.32000000000005</ele>
        <time>2014-05-24T09:48:59Z</time>
      </trkpt>
      <trkpt lat="45.875310664996505" lon="9.38536399975419">
        <ele>950.88</ele>
        <time>2014-05-24T09:49:12Z</time>
      </trkpt>
      <trkpt lat="45.875218966975808" lon="9.385365257039666">
        <ele>948</ele>
        <time>2014-05-24T09:49:25Z</time>
      </trkpt>
      <trkpt lat="45.875122239813209" lon="9.385359641164541">
        <ele>944.63</ele>
        <time>2014-05-24T09:49:36Z</time>
      </trkpt>
      <trkpt lat="45.875008581206203" lon="9.385334998369217">
        <ele>942.23000000000002</ele>
        <time>2014-05-24T09:49:51Z</time>
      </trkpt>
      <trkpt lat="45.874906238168478" lon="9.385340111330152">
        <ele>939.35000000000002</ele>
        <time>2014-05-24T09:50:07Z</time>
      </trkpt>
      <trkpt lat="45.874803140759468" lon="9.385314965620637">
        <ele>936.46000000000004</ele>
        <time>2014-05-24T09:50:19Z</time>
      </trkpt>
      <trkpt lat="45.87466643191874" lon="9.385271882638335">
        <ele>933.10000000000002</ele>
        <time>2014-05-24T09:50:33Z</time>
      </trkpt>
      <trkpt lat="45.874652015045285" lon="9.385258136317134">
        <ele>932.62</ele>
        <time>2014-05-24T09:50:35Z</time>
      </trkpt>
      <trkpt lat="45.874492842704058" lon="9.385274648666382">
        <ele>930.21000000000004</ele>
        <time>2014-05-24T09:50:51Z</time>
      </trkpt>
      <trkpt lat="45.874486053362489" lon="9.385271379724145">
        <ele>930.21000000000004</ele>
        <time>2014-05-24T09:50:52Z</time>
      </trkpt>
      <trkpt lat="45.874377004802227" lon="9.385238103568554">
        <ele>926.85000000000002</ele>
        <time>2014-05-24T09:51:06Z</time>
      </trkpt>
      <trkpt lat="45.874321851879358" lon="9.385264003649354">
        <ele>925.88999999999999</ele>
        <time>2014-05-24T09:51:21Z</time>
      </trkpt>
      <trkpt lat="45.874319337308407" lon="9.38524279743433">
        <ele>926.37</ele>
        <time>2014-05-24T09:51:47Z</time>
      </trkpt>
      <trkpt lat="45.874317996203899" lon="9.385233242064714">
        <ele>926.37</ele>
        <time>2014-05-24T09:52:04Z</time>
      </trkpt>
      <trkpt lat="45.87431414052844" lon="9.385228045284748">
        <ele>926.37</ele>
        <time>2014-05-24T09:52:34Z</time>
      </trkpt>
      <trkpt lat="45.874270303174853" lon="9.385272637009621">
        <ele>925.88999999999999</ele>
        <time>2014-05-24T09:52:52Z</time>
      </trkpt>
      <trkpt lat="45.874236356467009" lon="9.38532049767673">
        <ele>924.45000000000005</ele>
        <time>2014-05-24T09:53:05Z</time>
      </trkpt>
      <trkpt lat="45.874200398102403" lon="9.385305242612958">
        <ele>922.03999999999996</ele>
        <time>2014-05-24T09:53:14Z</time>
      </trkpt>
      <trkpt lat="45.874179024249315" lon="9.385305913165212">
        <ele>920.60000000000002</ele>
        <time>2014-05-24T09:53:17Z</time>
      </trkpt>
      <trkpt lat="45.874119261279702" lon="9.385297279804945">
        <ele>918.20000000000005</ele>
        <time>2014-05-24T09:53:31Z</time>
      </trkpt>
      <trkpt lat="45.87404097430408" lon="9.385255370289087">
        <ele>914.83000000000004</ele>
        <time>2014-05-24T09:53:46Z</time>
      </trkpt>
      <trkpt lat="45.873992694541812" lon="9.385202312842012">
        <ele>911.95000000000005</ele>
        <time>2014-05-24T09:53:56Z</time>
      </trkpt>
      <trkpt lat="45.873981798067689" lon="9.38514213077724">
        <ele>909.05999999999995</ele>
        <time>2014-05-24T09:54:10Z</time>
      </trkpt>
      <trkpt lat="45.873932680115104" lon="9.385087648406625">
        <ele>906.65999999999997</ele>
        <time>2014-05-24T09:54:22Z</time>
      </trkpt>
      <trkpt lat="45.873883729800582" lon="9.385008858516812">
        <ele>903.29999999999995</ele>
        <time>2014-05-24T09:54:34Z</time>
      </trkpt>
      <trkpt lat="45.873832181096077" lon="9.384928978979588">
        <ele>900.40999999999997</ele>
        <time>2014-05-24T09:54:47Z</time>
      </trkpt>
      <trkpt lat="45.873783901333809" lon="9.384848847985268">
        <ele>897.52999999999997</ele>
        <time>2014-05-24T09:55:01Z</time>
      </trkpt>
      <trkpt lat="45.873796138912439" lon="9.384793611243367">
        <ele>895.12</ele>
        <time>2014-05-24T09:55:15Z</time>
      </trkpt>
      <trkpt lat="45.873786918818951" lon="9.384754886850715">
        <ele>893.20000000000005</ele>
        <time>2014-05-24T09:55:29Z</time>
      </trkpt>
      <trkpt lat="45.873797060921788" lon="9.384734183549881">
        <ele>893.20000000000005</ele>
        <time>2014-05-24T09:55:49Z</time>
      </trkpt>
      <trkpt lat="45.873789684846997" lon="9.384745582938194">
        <ele>893.20000000000005</ele>
        <time>2014-05-24T09:56:07Z</time>
      </trkpt>
      <trkpt lat="45.873791528865695" lon="9.384753797203302">
        <ele>892.72000000000003</ele>
        <time>2014-05-24T09:56:24Z</time>
      </trkpt>
      <trkpt lat="45.873833103105426" lon="9.384704511612654">
        <ele>891.75999999999999</ele>
        <time>2014-05-24T09:56:35Z</time>
      </trkpt>
      <trkpt lat="45.873915078118443" lon="9.38464717939496">
        <ele>887.90999999999997</ele>
        <time>2014-05-24T09:56:47Z</time>
      </trkpt>
      <trkpt lat="45.873948270455003" lon="9.384635277092457">
        <ele>886.95000000000005</ele>
        <time>2014-05-24T09:56:53Z</time>
      </trkpt>
      <trkpt lat="45.874018846079707" lon="9.384576855227351">
        <ele>883.59000000000003</ele>
        <time>2014-05-24T09:57:05Z</time>
      </trkpt>
      <trkpt lat="45.874014487490058" lon="9.384559420868754">
        <ele>883.11000000000001</ele>
        <time>2014-05-24T09:57:07Z</time>
      </trkpt>
      <trkpt lat="45.874022617936134" lon="9.384511141106486">
        <ele>880.71000000000004</ele>
        <time>2014-05-24T09:57:18Z</time>
      </trkpt>
      <trkpt lat="45.874076094478369" lon="9.384421035647392">
        <ele>877.34000000000003</ele>
        <time>2014-05-24T09:57:33Z</time>
      </trkpt>
      <trkpt lat="45.874130744487047" lon="9.384351382032037">
        <ele>874.46000000000004</ele>
        <time>2014-05-24T09:57:45Z</time>
      </trkpt>
      <trkpt lat="45.874126050621271" lon="9.384284494444728">
        <ele>872.52999999999997</ele>
        <time>2014-05-24T09:57:58Z</time>
      </trkpt>
      <trkpt lat="45.874119680374861" lon="9.384220037609339">
        <ele>870.13</ele>
        <time>2014-05-24T09:58:10Z</time>
      </trkpt>
      <trkpt lat="45.874167876318097" lon="9.384144432842732">
        <ele>866.76999999999998</ele>
        <time>2014-05-24T09:58:21Z</time>
      </trkpt>
      <trkpt lat="45.874224789440632" lon="9.384088693186641">
        <ele>863.39999999999998</ele>
        <time>2014-05-24T09:58:33Z</time>
      </trkpt>
      <trkpt lat="45.874222023412585" lon="9.384061703458428">
        <ele>861</ele>
        <time>2014-05-24T09:58:46Z</time>
      </trkpt>
      <trkpt lat="45.874216575175524" lon="9.384015267714858">
        <ele>859.08000000000004</ele>
        <time>2014-05-24T09:58:53Z</time>
      </trkpt>
      <trkpt lat="45.874232081696391" lon="9.383933627977967">
        <ele>855.71000000000004</ele>
        <time>2014-05-24T09:59:04Z</time>
      </trkpt>
      <trkpt lat="45.874288072809577" lon="9.383849976584315">
        <ele>852.83000000000004</ele>
        <time>2014-05-24T09:59:16Z</time>
      </trkpt>
      <trkpt lat="45.874310284852982" lon="9.383804630488157">
        <ele>850.89999999999998</ele>
        <time>2014-05-24T09:59:22Z</time>
      </trkpt>
      <trkpt lat="45.874357223510742" lon="9.383713435381651">
        <ele>847.05999999999995</ele>
        <time>2014-05-24T09:59:34Z</time>
      </trkpt>
      <trkpt lat="45.874447412788868" lon="9.383650235831738">
        <ele>843.69000000000005</ele>
        <time>2014-05-24T09:59:47Z</time>
      </trkpt>
      <trkpt lat="45.874521424993873" lon="9.38356532715261">
        <ele>841.28999999999996</ele>
        <time>2014-05-24T10:00:00Z</time>
      </trkpt>
      <trkpt lat="45.874584205448627" lon="9.383477987721562">
        <ele>837.92999999999995</ele>
        <time>2014-05-24T10:00:12Z</time>
      </trkpt>
      <trkpt lat="45.874617733061314" lon="9.383404729887843">
        <ele>835.03999999999996</ele>
        <time>2014-05-24T10:00:23Z</time>
      </trkpt>
      <trkpt lat="45.874597448855639" lon="9.383344715461135">
        <ele>832.15999999999997</ele>
        <time>2014-05-24T10:00:36Z</time>
      </trkpt>
      <trkpt lat="45.874641286209226" lon="9.383353097364306">
        <ele>831.67999999999995</ele>
        <time>2014-05-24T10:00:56Z</time>
      </trkpt>
      <trkpt lat="45.87461220100522" lon="9.383274223655462">
        <ele>830.24000000000001</ele>
        <time>2014-05-24T10:01:14Z</time>
      </trkpt>
      <trkpt lat="45.874617900699377" lon="9.383201971650124">
        <ele>826.87</ele>
        <time>2014-05-24T10:01:23Z</time>
      </trkpt>
      <trkpt lat="45.87465662509203" lon="9.383159307762981">
        <ele>825.42999999999995</ele>
        <time>2014-05-24T10:01:38Z</time>
      </trkpt>
      <trkpt lat="45.874697444960475" lon="9.383104154840112">
        <ele>822.05999999999995</ele>
        <time>2014-05-24T10:01:49Z</time>
      </trkpt>
      <trkpt lat="45.874762823805213" lon="9.383042883127928">
        <ele>819.17999999999995</ele>
        <time>2014-05-24T10:02:01Z</time>
      </trkpt>
      <trkpt lat="45.874774642288685" lon="9.383020335808396">
        <ele>815.82000000000005</ele>
        <time>2014-05-24T10:02:15Z</time>
      </trkpt>
      <trkpt lat="45.874782521277666" lon="9.382945233955979">
        <ele>812.92999999999995</ele>
        <time>2014-05-24T10:02:24Z</time>
      </trkpt>
      <trkpt lat="45.874791741371155" lon="9.382938947528601">
        <ele>811.49000000000001</ele>
        <time>2014-05-24T10:02:37Z</time>
      </trkpt>
      <trkpt lat="45.874836836010218" lon="9.382949424907565">
        <ele>810.52999999999997</ele>
        <time>2014-05-24T10:02:55Z</time>
      </trkpt>
      <trkpt lat="45.874842451885343" lon="9.382963255047798">
        <ele>810.52999999999997</ele>
        <time>2014-05-24T10:03:17Z</time>
      </trkpt>
      <trkpt lat="45.874884780496359" lon="9.382910113781691">
        <ele>810.04999999999995</ele>
        <time>2014-05-24T10:03:41Z</time>
      </trkpt>
      <trkpt lat="45.874880757182837" lon="9.382798550650477">
        <ele>807.15999999999997</ele>
        <time>2014-05-24T10:03:54Z</time>
      </trkpt>
      <trkpt lat="45.87493758648634" lon="9.382678689435124">
        <ele>804.27999999999997</ele>
        <time>2014-05-24T10:04:07Z</time>
      </trkpt>
      <trkpt lat="45.875080078840256" lon="9.382717916741967">
        <ele>803.32000000000005</ele>
        <time>2014-05-24T10:04:21Z</time>
      </trkpt>
      <trkpt lat="45.875150067731738" lon="9.382721353322268">
        <ele>801.39999999999998</ele>
        <time>2014-05-24T10:04:33Z</time>
      </trkpt>
      <trkpt lat="45.875213099643588" lon="9.382701823487878">
        <ele>797.54999999999995</ele>
        <time>2014-05-24T10:04:47Z</time>
      </trkpt>
      <trkpt lat="45.875271270051599" lon="9.382676761597395">
        <ele>795.63</ele>
        <time>2014-05-24T10:05:04Z</time>
      </trkpt>
      <trkpt lat="45.875300941988826" lon="9.382622446864843">
        <ele>794.19000000000005</ele>
        <time>2014-05-24T10:05:21Z</time>
      </trkpt>
      <trkpt lat="45.875271605327725" lon="9.382569054141641">
        <ele>791.77999999999997</ele>
        <time>2014-05-24T10:05:34Z</time>
      </trkpt>
      <trkpt lat="45.875232629477978" lon="9.382484732195735">
        <ele>788.89999999999998</ele>
        <time>2014-05-24T10:05:45Z</time>
      </trkpt>
      <trkpt lat="45.875184182077646" lon="9.382412815466523">
        <ele>785.52999999999997</ele>
        <time>2014-05-24T10:05:54Z</time>
      </trkpt>
      <trkpt lat="45.87515015155077" lon="9.382315250113607">
        <ele>782.16999999999996</ele>
        <time>2014-05-24T10:06:06Z</time>
      </trkpt>
      <trkpt lat="45.875154929235578" lon="9.382290439680219">
        <ele>781.21000000000004</ele>
        <time>2014-05-24T10:06:10Z</time>
      </trkpt>
      <trkpt lat="45.875098099932075" lon="9.382240064442158">
        <ele>779.76999999999998</ele>
        <time>2014-05-24T10:06:15Z</time>
      </trkpt>
      <trkpt lat="45.875062141567469" lon="9.38210285268724">
        <ele>776.39999999999998</ele>
        <time>2014-05-24T10:06:27Z</time>
      </trkpt>
      <trkpt lat="45.875060800462961" lon="9.382094386965036">
        <ele>775.91999999999996</ele>
        <time>2014-05-24T10:06:28Z</time>
      </trkpt>
      <trkpt lat="45.875029200688004" lon="9.382080556824803">
        <ele>774.96000000000004</ele>
        <time>2014-05-24T10:06:31Z</time>
      </trkpt>
      <trkpt lat="45.875058537349105" lon="9.382008640095592">
        <ele>772.55999999999995</ele>
        <time>2014-05-24T10:06:39Z</time>
      </trkpt>
      <trkpt lat="45.875043785199523" lon="9.381871176883578">
        <ele>772.08000000000004</ele>
        <time>2014-05-24T10:06:53Z</time>
      </trkpt>
      <trkpt lat="45.875055687502027" lon="9.381946111097932">
        <ele>772.08000000000004</ele>
        <time>2014-05-24T10:07:03Z</time>
      </trkpt>
      <trkpt lat="45.875030038878322" lon="9.381891964003444">
        <ele>771.60000000000002</ele>
        <time>2014-05-24T10:07:18Z</time>
      </trkpt>
      <trkpt lat="45.875012772157788" lon="9.381891628727317">
        <ele>771.60000000000002</ele>
        <time>2014-05-24T10:07:45Z</time>
      </trkpt>
      <trkpt lat="45.874991063028574" lon="9.381982823833823">
        <ele>772.08000000000004</ele>
        <time>2014-05-24T10:08:16Z</time>
      </trkpt>
      <trkpt lat="45.875030374154449" lon="9.381983326748014">
        <ele>772.08000000000004</ele>
        <time>2014-05-24T10:08:52Z</time>
      </trkpt>
      <trkpt lat="45.875027105212212" lon="9.381895316764712">
        <ele>772.55999999999995</ele>
        <time>2014-05-24T10:09:21Z</time>
      </trkpt>
      <trkpt lat="45.87501335889101" lon="9.381875116378069">
        <ele>772.55999999999995</ele>
        <time>2014-05-24T10:09:54Z</time>
      </trkpt>
      <trkpt lat="45.874998774379492" lon="9.381874529644847">
        <ele>773.03999999999996</ele>
        <time>2014-05-24T10:10:26Z</time>
      </trkpt>
      <trkpt lat="45.875010676681995" lon="9.381925240159035">
        <ele>773.03999999999996</ele>
        <time>2014-05-24T10:11:07Z</time>
      </trkpt>
      <trkpt lat="45.874997349455953" lon="9.381864052265883">
        <ele>773.03999999999996</ele>
        <time>2014-05-24T10:11:40Z</time>
      </trkpt>
      <trkpt lat="45.874985447153449" lon="9.381813509389758">
        <ele>773.51999999999998</ele>
        <time>2014-05-24T10:12:12Z</time>
      </trkpt>
      <trkpt lat="45.874954769387841" lon="9.381785681471229">
        <ele>773.51999999999998</ele>
        <time>2014-05-24T10:12:45Z</time>
      </trkpt>
      <trkpt lat="45.874961726367474" lon="9.381869835779071">
        <ele>774</ele>
        <time>2014-05-24T10:13:15Z</time>
      </trkpt>
      <trkpt lat="45.874966001138091" lon="9.381858604028821">
        <ele>774</ele>
        <time>2014-05-24T10:13:47Z</time>
      </trkpt>
      <trkpt lat="45.874928617849946" lon="9.381788447499275">
        <ele>775.44000000000005</ele>
        <time>2014-05-24T10:14:17Z</time>
      </trkpt>
      <trkpt lat="45.874945716932416" lon="9.381818119436503">
        <ele>774.48000000000002</ele>
        <time>2014-05-24T10:14:55Z</time>
      </trkpt>
      <trkpt lat="45.874926941469312" lon="9.381748801097274">
        <ele>774.96000000000004</ele>
        <time>2014-05-24T10:15:26Z</time>
      </trkpt>
      <trkpt lat="45.874936748296022" lon="9.381802026182413">
        <ele>775.44000000000005</ele>
        <time>2014-05-24T10:16:05Z</time>
      </trkpt>
      <trkpt lat="45.874910764396191" lon="9.381813844665885">
        <ele>776.88</ele>
        <time>2014-05-24T10:16:18Z</time>
      </trkpt>
      <trkpt lat="45.874910764396191" lon="9.381817281246185">
        <ele>775.91999999999996</ele>
        <time>2014-05-24T10:16:20Z</time>
      </trkpt>
      <trkpt lat="45.874904897063971" lon="9.381782412528992">
        <ele>775.91999999999996</ele>
        <time>2014-05-24T10:17:01Z</time>
      </trkpt>
      <trkpt lat="45.874900287017226" lon="9.381767744198442">
        <ele>776.39999999999998</ele>
        <time>2014-05-24T10:17:34Z</time>
      </trkpt>
      <trkpt lat="45.874916547909379" lon="9.381761038675904">
        <ele>776.88</ele>
        <time>2014-05-24T10:18:12Z</time>
      </trkpt>
      <trkpt lat="45.874910177662969" lon="9.381743688136339">
        <ele>777.36000000000001</ele>
        <time>2014-05-24T10:18:42Z</time>
      </trkpt>
      <trkpt lat="45.875025931745768" lon="9.38183169811964">
        <ele>777.36000000000001</ele>
        <time>2014-05-24T10:19:07Z</time>
      </trkpt>
      <trkpt lat="45.875050406903028" lon="9.381856173276901">
        <ele>777.84000000000003</ele>
        <time>2014-05-24T10:19:40Z</time>
      </trkpt>
      <trkpt lat="45.875038923695683" lon="9.381878217682242">
        <ele>779.28999999999996</ele>
        <time>2014-05-24T10:20:20Z</time>
      </trkpt>
      <trkpt lat="45.875061554834247" lon="9.381911912932992">
        <ele>778.32000000000005</ele>
        <time>2014-05-24T10:20:55Z</time>
      </trkpt>
      <trkpt lat="45.875056944787502" lon="9.381906883791089">
        <ele>778.32000000000005</ele>
        <time>2014-05-24T10:21:22Z</time>
      </trkpt>
      <trkpt lat="45.87507002055645" lon="9.381910571828485">
        <ele>778.32000000000005</ele>
        <time>2014-05-24T10:21:47Z</time>
      </trkpt>
      <trkpt lat="45.875047221779823" lon="9.381869668141007">
        <ele>778.32000000000005</ele>
        <time>2014-05-24T10:22:16Z</time>
      </trkpt>
      <trkpt lat="45.875060968101025" lon="9.381887940689921">
        <ele>778.32000000000005</ele>
        <time>2014-05-24T10:22:47Z</time>
      </trkpt>
      <trkpt lat="45.875108661130071" lon="9.381904033944011">
        <ele>778.32000000000005</ele>
        <time>2014-05-24T10:23:19Z</time>
      </trkpt>
      <trkpt lat="45.87511838413775" lon="9.381895735859871">
        <ele>778.32000000000005</ele>
        <time>2014-05-24T10:23:50Z</time>
      </trkpt>
      <trkpt lat="45.875120228156447" lon="9.381886515766382">
        <ele>778.32000000000005</ele>
        <time>2014-05-24T10:24:16Z</time>
      </trkpt>
      <trkpt lat="45.875086449086666" lon="9.381905375048518">
        <ele>778.32000000000005</ele>
        <time>2014-05-24T10:24:37Z</time>
      </trkpt>
      <trkpt lat="45.875086113810539" lon="9.381949044764042">
        <ele>777.84000000000003</ele>
        <time>2014-05-24T10:25:08Z</time>
      </trkpt>
      <trkpt lat="45.875103967264295" lon="9.381887018680573">
        <ele>777.84000000000003</ele>
        <time>2014-05-24T10:25:38Z</time>
      </trkpt>
      <trkpt lat="45.875047892332077" lon="9.381847456097603">
        <ele>777.84000000000003</ele>
        <time>2014-05-24T10:26:16Z</time>
      </trkpt>
      <trkpt lat="45.875012939795852" lon="9.381849383935332">
        <ele>777.84000000000003</ele>
        <time>2014-05-24T10:26:44Z</time>
      </trkpt>
      <trkpt lat="45.875032469630241" lon="9.381853742524982">
        <ele>777.84000000000003</ele>
        <time>2014-05-24T10:27:22Z</time>
      </trkpt>
      <trkpt lat="45.87501922622323" lon="9.381860950961709">
        <ele>777.84000000000003</ele>
        <time>2014-05-24T10:27:51Z</time>
      </trkpt>
      <trkpt lat="45.87499625980854" lon="9.381910404190421">
        <ele>777.84000000000003</ele>
        <time>2014-05-24T10:28:31Z</time>
      </trkpt>
      <trkpt lat="45.874982345849276" lon="9.381896909326315">
        <ele>777.84000000000003</ele>
        <time>2014-05-24T10:29:00Z</time>
      </trkpt>
      <trkpt lat="45.874947225674987" lon="9.381798757240176">
        <ele>777.84000000000003</ele>
        <time>2014-05-24T10:29:30Z</time>
      </trkpt>
      <trkpt lat="45.874935071915388" lon="9.381810491904616">
        <ele>777.84000000000003</ele>
        <time>2014-05-24T10:29:58Z</time>
      </trkpt>
      <trkpt lat="45.875029871240258" lon="9.381900262087584">
        <ele>778.32000000000005</ele>
        <time>2014-05-24T10:30:25Z</time>
      </trkpt>
      <trkpt lat="45.875045964494348" lon="9.381932783871889">
        <ele>778.32000000000005</ele>
        <time>2014-05-24T10:30:50Z</time>
      </trkpt>
      <trkpt lat="45.875040935352445" lon="9.381892886012793">
        <ele>778.32000000000005</ele>
        <time>2014-05-24T10:31:19Z</time>
      </trkpt>
      <trkpt lat="45.874998606741428" lon="9.381872350350022">
        <ele>778.80999999999995</ele>
        <time>2014-05-24T10:31:55Z</time>
      </trkpt>
      <trkpt lat="45.87494932115078" lon="9.381855167448521">
        <ele>778.80999999999995</ele>
        <time>2014-05-24T10:32:24Z</time>
      </trkpt>
      <trkpt lat="45.874947728589177" lon="9.381836727261543">
        <ele>779.28999999999996</ele>
        <time>2014-05-24T10:32:57Z</time>
      </trkpt>
      <trkpt lat="45.874890312552452" lon="9.381758691743016">
        <ele>779.76999999999998</ele>
        <time>2014-05-24T10:33:29Z</time>
      </trkpt>
      <trkpt lat="45.874917972832918" lon="9.381814263761044">
        <ele>780.25</ele>
        <time>2014-05-24T10:34:00Z</time>
      </trkpt>
      <trkpt lat="45.874936999753118" lon="9.381805714219809">
        <ele>780.25</ele>
        <time>2014-05-24T10:34:34Z</time>
      </trkpt>
      <trkpt lat="45.874930713325739" lon="9.381768750026822">
        <ele>780.73000000000002</ele>
        <time>2014-05-24T10:35:11Z</time>
      </trkpt>
      <trkpt lat="45.875023165717721" lon="9.381824489682913">
        <ele>780.73000000000002</ele>
        <time>2014-05-24T10:35:42Z</time>
      </trkpt>
      <trkpt lat="45.875078737735748" lon="9.381788279861212">
        <ele>780.73000000000002</ele>
        <time>2014-05-24T10:36:10Z</time>
      </trkpt>
      <trkpt lat="45.875107403844595" lon="9.381845528259873">
        <ele>780.73000000000002</ele>
        <time>2014-05-24T10:36:22Z</time>
      </trkpt>
      <trkpt lat="45.875195413827896" lon="9.381864219903946">
        <ele>780.73000000000002</ele>
        <time>2014-05-24T10:36:40Z</time>
      </trkpt>
      <trkpt lat="45.875070439651608" lon="9.381895400583744">
        <ele>781.21000000000004</ele>
        <time>2014-05-24T10:36:58Z</time>
      </trkpt>
      <trkpt lat="45.875002713873982" lon="9.381869751960039">
        <ele>780.73000000000002</ele>
        <time>2014-05-24T10:37:17Z</time>
      </trkpt>
      <trkpt lat="45.874971365556121" lon="9.381834296509624">
        <ele>781.21000000000004</ele>
        <time>2014-05-24T10:37:54Z</time>
      </trkpt>
      <trkpt lat="45.875033810734749" lon="9.381887689232826">
        <ele>781.21000000000004</ele>
        <time>2014-05-24T10:38:26Z</time>
      </trkpt>
      <trkpt lat="45.8749845251441" lon="9.381840834394097">
        <ele>781.21000000000004</ele>
        <time>2014-05-24T10:39:01Z</time>
      </trkpt>
      <trkpt lat="45.875012017786503" lon="9.381884001195431">
        <ele>781.21000000000004</ele>
        <time>2014-05-24T10:39:35Z</time>
      </trkpt>
      <trkpt lat="45.875106900930405" lon="9.381938232108951">
        <ele>781.21000000000004</ele>
        <time>2014-05-24T10:40:03Z</time>
      </trkpt>
      <trkpt lat="45.875045880675316" lon="9.381922641769052">
        <ele>781.21000000000004</ele>
        <time>2014-05-24T10:40:38Z</time>
      </trkpt>
      <trkpt lat="45.875067003071308" lon="9.381866902112961">
        <ele>781.21000000000004</ele>
        <time>2014-05-24T10:41:14Z</time>
      </trkpt>
      <trkpt lat="45.875054514035583" lon="9.381927084177733">
        <ele>781.21000000000004</ele>
        <time>2014-05-24T10:41:50Z</time>
      </trkpt>
      <trkpt lat="45.874929456040263" lon="9.381763385608792">
        <ele>781.21000000000004</ele>
        <time>2014-05-24T10:42:37Z</time>
      </trkpt>
      <trkpt lat="45.874927779659629" lon="9.381772605702281">
        <ele>781.21000000000004</ele>
        <time>2014-05-24T10:43:20Z</time>
      </trkpt>
      <trkpt lat="45.874971365556121" lon="9.381815688684583">
        <ele>781.69000000000005</ele>
        <time>2014-05-24T10:43:57Z</time>
      </trkpt>
      <trkpt lat="45.875078234821558" lon="9.381916103884578">
        <ele>781.69000000000005</ele>
        <time>2014-05-24T10:44:32Z</time>
      </trkpt>
      <trkpt lat="45.875090304762125" lon="9.381912248209119">
        <ele>781.69000000000005</ele>
        <time>2014-05-24T10:45:01Z</time>
      </trkpt>
      <trkpt lat="45.875115115195513" lon="9.381953738629818">
        <ele>781.69000000000005</ele>
        <time>2014-05-24T10:45:35Z</time>
      </trkpt>
      <trkpt lat="45.875051412731409" lon="9.381913840770721">
        <ele>781.69000000000005</ele>
        <time>2014-05-24T10:46:08Z</time>
      </trkpt>
      <trkpt lat="45.875019561499357" lon="9.381842846050859">
        <ele>781.69000000000005</ele>
        <time>2014-05-24T10:46:43Z</time>
      </trkpt>
      <trkpt lat="45.875066248700023" lon="9.38192255795002">
        <ele>781.69000000000005</ele>
        <time>2014-05-24T10:47:21Z</time>
      </trkpt>
      <trkpt lat="45.875019393861294" lon="9.3818648904562">
        <ele>781.69000000000005</ele>
        <time>2014-05-24T10:48:02Z</time>
      </trkpt>
      <trkpt lat="45.87499332614243" lon="9.381863046437502">
        <ele>782.16999999999996</ele>
        <time>2014-05-24T10:48:44Z</time>
      </trkpt>
      <trkpt lat="45.875007826834917" lon="9.381849383935332">
        <ele>782.16999999999996</ele>
        <time>2014-05-24T10:49:17Z</time>
      </trkpt>
      <trkpt lat="45.875057866796851" lon="9.381941249594092">
        <ele>782.16999999999996</ele>
        <time>2014-05-24T10:49:46Z</time>
      </trkpt>
      <trkpt lat="45.875073373317719" lon="9.38194309361279">
        <ele>782.16999999999996</ele>
        <time>2014-05-24T10:50:19Z</time>
      </trkpt>
      <trkpt lat="45.875044958665967" lon="9.381981063634157">
        <ele>782.16999999999996</ele>
        <time>2014-05-24T10:50:56Z</time>
      </trkpt>
      <trkpt lat="45.875095669180155" lon="9.381968239322305">
        <ele>782.16999999999996</ele>
        <time>2014-05-24T10:51:37Z</time>
      </trkpt>
      <trkpt lat="45.875017968937755" lon="9.381913924589753">
        <ele>782.16999999999996</ele>
        <time>2014-05-24T10:52:08Z</time>
      </trkpt>
      <trkpt lat="45.875017968937755" lon="9.381900765001774">
        <ele>782.16999999999996</ele>
        <time>2014-05-24T10:52:42Z</time>
      </trkpt>
      <trkpt lat="45.875054178759456" lon="9.381904872134328">
        <ele>781.69000000000005</ele>
        <time>2014-05-24T10:53:17Z</time>
      </trkpt>
      <trkpt lat="45.875033978372812" lon="9.381917612627149">
        <ele>781.69000000000005</ele>
        <time>2014-05-24T10:53:51Z</time>
      </trkpt>
      <trkpt lat="45.874994080513716" lon="9.381872517988086">
        <ele>781.69000000000005</ele>
        <time>2014-05-24T10:54:21Z</time>
      </trkpt>
      <trkpt lat="45.874881511554122" lon="9.381792386993766">
        <ele>781.69000000000005</ele>
        <time>2014-05-24T10:54:57Z</time>
      </trkpt>
      <trkpt lat="45.874883271753788" lon="9.381777299568057">
        <ele>781.21000000000004</ele>
        <time>2014-05-24T10:55:30Z</time>
      </trkpt>
      <trkpt lat="45.874960385262966" lon="9.381871931254864">
        <ele>781.21000000000004</ele>
        <time>2014-05-24T10:56:02Z</time>
      </trkpt>
      <trkpt lat="45.875087287276983" lon="9.381964299827814">
        <ele>781.69000000000005</ele>
        <time>2014-05-24T10:56:41Z</time>
      </trkpt>
      <trkpt lat="45.87505635805428" lon="9.381941249594092">
        <ele>782.16999999999996</ele>
        <time>2014-05-24T10:57:17Z</time>
      </trkpt>
      <trkpt lat="45.875085610896349" lon="9.381906716153026">
        <ele>781.69000000000005</ele>
        <time>2014-05-24T10:57:53Z</time>
      </trkpt>
      <trkpt lat="45.875109834596515" lon="9.381907135248184">
        <ele>781.69000000000005</ele>
        <time>2014-05-24T10:58:22Z</time>
      </trkpt>
      <trkpt lat="45.875085024163127" lon="9.381949296221137">
        <ele>781.69000000000005</ele>
        <time>2014-05-24T10:58:50Z</time>
      </trkpt>
      <trkpt lat="45.875004976987839" lon="9.381831781938672">
        <ele>781.69000000000005</ele>
        <time>2014-05-24T10:59:17Z</time>
      </trkpt>
      <trkpt lat="45.874990979209542" lon="9.38187662512064">
        <ele>781.21000000000004</ele>
        <time>2014-05-24T10:59:50Z</time>
      </trkpt>
      <trkpt lat="45.874942447990179" lon="9.381809905171394">
        <ele>781.69000000000005</ele>
        <time>2014-05-24T11:00:22Z</time>
      </trkpt>
      <trkpt lat="45.875053927302361" lon="9.381866985931993">
        <ele>781.69000000000005</ele>
        <time>2014-05-24T11:00:55Z</time>
      </trkpt>
      <trkpt lat="45.875083599239588" lon="9.38187763094902">
        <ele>781.69000000000005</ele>
        <time>2014-05-24T11:01:06Z</time>
      </trkpt>
      <trkpt lat="45.875086365267634" lon="9.381913086399436">
        <ele>781.69000000000005</ele>
        <time>2014-05-24T11:01:31Z</time>
      </trkpt>
      <trkpt lat="45.875092400237918" lon="9.381920546293259">
        <ele>781.69000000000005</ele>
        <time>2014-05-24T11:02:12Z</time>
      </trkpt>
      <trkpt lat="45.875112181529403" lon="9.381991205736995">
        <ele>781.69000000000005</ele>
        <time>2014-05-24T11:02:44Z</time>
      </trkpt>
      <trkpt lat="45.875078737735748" lon="9.381981566548348">
        <ele>781.69000000000005</ele>
        <time>2014-05-24T11:03:27Z</time>
      </trkpt>
      <trkpt lat="45.875123078003526" lon="9.382004616782069">
        <ele>781.69000000000005</ele>
        <time>2014-05-24T11:04:05Z</time>
      </trkpt>
      <trkpt lat="45.875116121023893" lon="9.382037809118629">
        <ele>782.16999999999996</ele>
        <time>2014-05-24T11:04:39Z</time>
      </trkpt>
      <trkpt lat="45.875157276168466" lon="9.381992295384407">
        <ele>782.16999999999996</ele>
        <time>2014-05-24T11:05:17Z</time>
      </trkpt>
      <trkpt lat="45.875113857910037" lon="9.381969245150685">
        <ele>781.69000000000005</ele>
        <time>2014-05-24T11:05:58Z</time>
      </trkpt>
      <trkpt lat="45.875081671401858" lon="9.381989864632487">
        <ele>781.69000000000005</ele>
        <time>2014-05-24T11:06:40Z</time>
      </trkpt>
      <trkpt lat="45.875123748555779" lon="9.381978213787079">
        <ele>781.69000000000005</ele>
        <time>2014-05-24T11:07:19Z</time>
      </trkpt>
      <trkpt lat="45.875153420493007" lon="9.382014172151685">
        <ele>781.69000000000005</ele>
        <time>2014-05-24T11:07:59Z</time>
      </trkpt>
      <trkpt lat="45.875101117417216" lon="9.381971089169383">
        <ele>781.69000000000005</ele>
        <time>2014-05-24T11:08:31Z</time>
      </trkpt>
      <trkpt lat="45.875029200688004" lon="9.381922138854861">
        <ele>781.69000000000005</ele>
        <time>2014-05-24T11:09:12Z</time>
      </trkpt>
      <trkpt lat="45.875129112973809" lon="9.381975699216127">
        <ele>781.69000000000005</ele>
        <time>2014-05-24T11:09:49Z</time>
      </trkpt>
      <trkpt lat="45.875117378309369" lon="9.381990116089582">
        <ele>782.16999999999996</ele>
        <time>2014-05-24T11:10:19Z</time>
      </trkpt>
      <trkpt lat="45.87508418597281" lon="9.381976872682571">
        <ele>782.16999999999996</ele>
        <time>2014-05-24T11:10:56Z</time>
      </trkpt>
      <trkpt lat="45.875077983364463" lon="9.381992463022471">
        <ele>782.16999999999996</ele>
        <time>2014-05-24T11:11:31Z</time>
      </trkpt>
      <trkpt lat="45.875060046091676" lon="9.381965640932322">
        <ele>782.16999999999996</ele>
        <time>2014-05-24T11:11:59Z</time>
      </trkpt>
      <trkpt lat="45.875115869566798" lon="9.381955917924643">
        <ele>782.16999999999996</ele>
        <time>2014-05-24T11:12:36Z</time>
      </trkpt>
      <trkpt lat="45.875038001686335" lon="9.381930436939001">
        <ele>781.69000000000005</ele>
        <time>2014-05-24T11:13:12Z</time>
      </trkpt>
      <trkpt lat="45.875053089112043" lon="9.381955834105611">
        <ele>781.69000000000005</ele>
        <time>2014-05-24T11:13:38Z</time>
      </trkpt>
      <trkpt lat="45.875092148780823" lon="9.381901267915964">
        <ele>782.16999999999996</ele>
        <time>2014-05-24T11:14:07Z</time>
      </trkpt>
      <trkpt lat="45.875117881223559" lon="9.381991792470217">
        <ele>781.69000000000005</ele>
        <time>2014-05-24T11:14:42Z</time>
      </trkpt>
      <trkpt lat="45.875092316418886" lon="9.381964299827814">
        <ele>781.21000000000004</ele>
        <time>2014-05-24T11:15:19Z</time>
      </trkpt>
      <trkpt lat="45.875029284507036" lon="9.381993049755693">
        <ele>781.21000000000004</ele>
        <time>2014-05-24T11:15:55Z</time>
      </trkpt>
      <trkpt lat="45.875039761886001" lon="9.381995983421803">
        <ele>780.73000000000002</ele>
        <time>2014-05-24T11:16:33Z</time>
      </trkpt>
      <trkpt lat="45.875064739957452" lon="9.381933454424143">
        <ele>780.25</ele>
        <time>2014-05-24T11:17:07Z</time>
      </trkpt>
      <trkpt lat="45.875040935352445" lon="9.381957594305277">
        <ele>780.25</ele>
        <time>2014-05-24T11:17:40Z</time>
      </trkpt>
      <trkpt lat="45.875043869018555" lon="9.381988691166043">
        <ele>780.25</ele>
        <time>2014-05-24T11:18:10Z</time>
      </trkpt>
      <trkpt lat="45.875067925080657" lon="9.381962455809116">
        <ele>780.25</ele>
        <time>2014-05-24T11:18:44Z</time>
      </trkpt>
      <trkpt lat="45.875070858746767" lon="9.381956504657865">
        <ele>780.25</ele>
        <time>2014-05-24T11:19:14Z</time>
      </trkpt>
      <trkpt lat="45.875059878453612" lon="9.381938148289919">
        <ele>780.25</ele>
        <time>2014-05-24T11:19:41Z</time>
      </trkpt>
      <trkpt lat="45.875077815726399" lon="9.381952229887247">
        <ele>779.76999999999998</ele>
        <time>2014-05-24T11:20:21Z</time>
      </trkpt>
      <trkpt lat="45.875078234821558" lon="9.38196606002748">
        <ele>780.25</ele>
        <time>2014-05-24T11:20:57Z</time>
      </trkpt>
      <trkpt lat="45.875053005293012" lon="9.381948709487915">
        <ele>780.25</ele>
        <time>2014-05-24T11:21:24Z</time>
      </trkpt>
      <trkpt lat="45.875050825998187" lon="9.381946781650186">
        <ele>780.25</ele>
        <time>2014-05-24T11:21:56Z</time>
      </trkpt>
      <trkpt lat="45.875053256750107" lon="9.381977962329984">
        <ele>779.76999999999998</ele>
        <time>2014-05-24T11:22:28Z</time>
      </trkpt>
      <trkpt lat="45.875072618946433" lon="9.381988691166043">
        <ele>780.25</ele>
        <time>2014-05-24T11:22:56Z</time>
      </trkpt>
      <trkpt lat="45.875064823776484" lon="9.381983410567045">
        <ele>780.25</ele>
        <time>2014-05-24T11:23:34Z</time>
      </trkpt>
      <trkpt lat="45.875044204294682" lon="9.381981482729316">
        <ele>780.25</ele>
        <time>2014-05-24T11:24:13Z</time>
      </trkpt>
      <trkpt lat="45.875039929524064" lon="9.381977375596762">
        <ele>780.25</ele>
        <time>2014-05-24T11:24:42Z</time>
      </trkpt>
      <trkpt lat="45.875072367489338" lon="9.381967652589083">
        <ele>780.25</ele>
        <time>2014-05-24T11:25:12Z</time>
      </trkpt>
      <trkpt lat="45.875037331134081" lon="9.381965473294258">
        <ele>780.73000000000002</ele>
        <time>2014-05-24T11:25:50Z</time>
      </trkpt>
      <trkpt lat="45.875072116032243" lon="9.381951307877898">
        <ele>780.73000000000002</ele>
        <time>2014-05-24T11:26:24Z</time>
      </trkpt>
      <trkpt lat="45.8750812523067" lon="9.381972514092922">
        <ele>780.73000000000002</ele>
        <time>2014-05-24T11:27:08Z</time>
      </trkpt>
      <trkpt lat="45.875072870403528" lon="9.381942506879568">
        <ele>780.73000000000002</ele>
        <time>2014-05-24T11:27:43Z</time>
      </trkpt>
      <trkpt lat="45.875084940344095" lon="9.381959773600102">
        <ele>780.73000000000002</ele>
        <time>2014-05-24T11:28:18Z</time>
      </trkpt>
      <trkpt lat="45.875087035819888" lon="9.381953319534659">
        <ele>780.73000000000002</ele>
        <time>2014-05-24T11:28:53Z</time>
      </trkpt>
      <trkpt lat="45.875075217336416" lon="9.381923899054527">
        <ele>780.73000000000002</ele>
        <time>2014-05-24T11:29:29Z</time>
      </trkpt>
      <trkpt lat="45.875079575926065" lon="9.381942171603441">
        <ele>780.73000000000002</ele>
        <time>2014-05-24T11:30:08Z</time>
      </trkpt>
      <trkpt lat="45.875065494328737" lon="9.381916606798768">
        <ele>780.73000000000002</ele>
        <time>2014-05-24T11:30:42Z</time>
      </trkpt>
      <trkpt lat="45.875072032213211" lon="9.381922641769052">
        <ele>780.73000000000002</ele>
        <time>2014-05-24T11:31:15Z</time>
      </trkpt>
      <trkpt lat="45.875039761886001" lon="9.381916774436832">
        <ele>780.73000000000002</ele>
        <time>2014-05-24T11:31:56Z</time>
      </trkpt>
      <trkpt lat="45.875071361660957" lon="9.381964970380068">
        <ele>780.25</ele>
        <time>2014-05-24T11:32:38Z</time>
      </trkpt>
      <trkpt lat="45.875038672238588" lon="9.381945189088583">
        <ele>780.25</ele>
        <time>2014-05-24T11:33:14Z</time>
      </trkpt>
      <trkpt lat="45.875023500993848" lon="9.381935549899936">
        <ele>780.25</ele>
        <time>2014-05-24T11:33:52Z</time>
      </trkpt>
      <trkpt lat="45.875064488500357" lon="9.38191769644618">
        <ele>779.76999999999998</ele>
        <time>2014-05-24T11:34:31Z</time>
      </trkpt>
      <trkpt lat="45.875073289498687" lon="9.381913337856531">
        <ele>779.28999999999996</ele>
        <time>2014-05-24T11:35:11Z</time>
      </trkpt>
      <trkpt lat="45.875081503763795" lon="9.381912499666214">
        <ele>779.28999999999996</ele>
        <time>2014-05-24T11:35:51Z</time>
      </trkpt>
      <trkpt lat="45.875070774927735" lon="9.381905039772391">
        <ele>779.28999999999996</ele>
        <time>2014-05-24T11:36:26Z</time>
      </trkpt>
      <trkpt lat="45.875062812119722" lon="9.38191425986588">
        <ele>779.28999999999996</ele>
        <time>2014-05-24T11:37:01Z</time>
      </trkpt>
      <trkpt lat="45.875043114647269" lon="9.381926245987415">
        <ele>778.80999999999995</ele>
        <time>2014-05-24T11:37:43Z</time>
      </trkpt>
      <trkpt lat="45.875048395246267" lon="9.381904872134328">
        <ele>778.80999999999995</ele>
        <time>2014-05-24T11:38:20Z</time>
      </trkpt>
      <trkpt lat="45.875051077455282" lon="9.381915349513292">
        <ele>778.32000000000005</ele>
        <time>2014-05-24T11:38:56Z</time>
      </trkpt>
      <trkpt lat="45.875061387196183" lon="9.381913589313626">
        <ele>777.84000000000003</ele>
        <time>2014-05-24T11:39:18Z</time>
      </trkpt>
      <trkpt lat="45.87505241855979" lon="9.381903195753694">
        <ele>778.80999999999995</ele>
        <time>2014-05-24T11:39:41Z</time>
      </trkpt>
      <trkpt lat="45.875038001686335" lon="9.381929934024811">
        <ele>778.32000000000005</ele>
        <time>2014-05-24T11:40:12Z</time>
      </trkpt>
      <trkpt lat="45.875062644481659" lon="9.381983494386077">
        <ele>778.32000000000005</ele>
        <time>2014-05-24T11:40:47Z</time>
      </trkpt>
      <trkpt lat="45.87506658397615" lon="9.381970837712288">
        <ele>778.32000000000005</ele>
        <time>2014-05-24T11:41:25Z</time>
      </trkpt>
      <trkpt lat="45.875040432438254" lon="9.38198902644217">
        <ele>778.80999999999995</ele>
        <time>2014-05-24T11:42:04Z</time>
      </trkpt>
      <trkpt lat="45.875079073011875" lon="9.381982488557696">
        <ele>778.80999999999995</ele>
        <time>2014-05-24T11:42:39Z</time>
      </trkpt>
      <trkpt lat="45.875069936737418" lon="9.381984081119299">
        <ele>778.80999999999995</ele>
        <time>2014-05-24T11:43:08Z</time>
      </trkpt>
      <trkpt lat="45.8750881254673" lon="9.381949882954359">
        <ele>778.80999999999995</ele>
        <time>2014-05-24T11:43:48Z</time>
      </trkpt>
      <trkpt lat="45.875071110203862" lon="9.381958516314626">
        <ele>778.80999999999995</ele>
        <time>2014-05-24T11:44:34Z</time>
      </trkpt>
      <trkpt lat="45.875070104375482" lon="9.381969831883907">
        <ele>778.80999999999995</ele>
        <time>2014-05-24T11:45:16Z</time>
      </trkpt>
      <trkpt lat="45.875050574541092" lon="9.381986176595092">
        <ele>778.80999999999995</ele>
        <time>2014-05-24T11:45:52Z</time>
      </trkpt>
      <trkpt lat="45.875059626996517" lon="9.381940579041839">
        <ele>779.76999999999998</ele>
        <time>2014-05-24T11:46:10Z</time>
      </trkpt>
      <trkpt lat="45.875075301155448" lon="9.381898250430822">
        <ele>778.80999999999995</ele>
        <time>2014-05-24T11:46:21Z</time>
      </trkpt>
      <trkpt lat="45.875081168487668" lon="9.381988272070885">
        <ele>779.28999999999996</ele>
        <time>2014-05-24T11:46:38Z</time>
      </trkpt>
      <trkpt lat="45.875065913423896" lon="9.382003778591752">
        <ele>779.76999999999998</ele>
        <time>2014-05-24T11:46:55Z</time>
      </trkpt>
      <trkpt lat="45.875038588419557" lon="9.382024230435491">
        <ele>779.28999999999996</ele>
        <time>2014-05-24T11:47:09Z</time>
      </trkpt>
      <trkpt lat="45.874953595921397" lon="9.382030097767711">
        <ele>778.80999999999995</ele>
        <time>2014-05-24T11:47:26Z</time>
      </trkpt>
      <trkpt lat="45.874853767454624" lon="9.382065385580063">
        <ele>779.28999999999996</ele>
        <time>2014-05-24T11:47:42Z</time>
      </trkpt>
      <trkpt lat="45.874894671142101" lon="9.382050633430481">
        <ele>779.28999999999996</ele>
        <time>2014-05-24T11:47:54Z</time>
      </trkpt>
      <trkpt lat="45.874883523210883" lon="9.382145935669541">
        <ele>779.28999999999996</ele>
        <time>2014-05-24T11:48:14Z</time>
      </trkpt>
      <trkpt lat="45.874870615079999" lon="9.382179379463196">
        <ele>779.28999999999996</ele>
        <time>2014-05-24T11:48:36Z</time>
      </trkpt>
      <trkpt lat="45.874890480190516" lon="9.382055243477225">
        <ele>779.28999999999996</ele>
        <time>2014-05-24T11:49:00Z</time>
      </trkpt>
      <trkpt lat="45.874872710555792" lon="9.382052812725306">
        <ele>779.28999999999996</ele>
        <time>2014-05-24T11:49:20Z</time>
      </trkpt>
      <trkpt lat="45.874794255942106" lon="9.382113832980394">
        <ele>781.69000000000005</ele>
        <time>2014-05-24T11:49:33Z</time>
      </trkpt>
      <trkpt lat="45.874793753027916" lon="9.382103690877557">
        <ele>782.64999999999998</ele>
        <time>2014-05-24T11:49:46Z</time>
      </trkpt>
      <trkpt lat="45.87474362924695" lon="9.382136715576053">
        <ele>782.64999999999998</ele>
        <time>2014-05-24T11:49:55Z</time>
      </trkpt>
      <trkpt lat="45.874631395563483" lon="9.382210811600089">
        <ele>784.57000000000005</ele>
        <time>2014-05-24T11:50:10Z</time>
      </trkpt>
      <trkpt lat="45.874611027538776" lon="9.38223528675735">
        <ele>784.57000000000005</ele>
        <time>2014-05-24T11:50:23Z</time>
      </trkpt>
      <trkpt lat="45.874594515189528" lon="9.382188599556685">
        <ele>784.57000000000005</ele>
        <time>2014-05-24T11:50:37Z</time>
      </trkpt>
      <trkpt lat="45.874498710036278" lon="9.382238555699587">
        <ele>784.57000000000005</ele>
        <time>2014-05-24T11:50:54Z</time>
      </trkpt>
      <trkpt lat="45.874358480796218" lon="9.382297983393073">
        <ele>785.04999999999995</ele>
        <time>2014-05-24T11:51:09Z</time>
      </trkpt>
      <trkpt lat="45.874303244054317" lon="9.382341401651502">
        <ele>785.52999999999997</ele>
        <time>2014-05-24T11:51:26Z</time>
      </trkpt>
      <trkpt lat="45.874277427792549" lon="9.382311059162021">
        <ele>785.04999999999995</ele>
        <time>2014-05-24T11:51:56Z</time>
      </trkpt>
      <trkpt lat="45.874166199937463" lon="9.382413066923618">
        <ele>787.94000000000005</ele>
        <time>2014-05-24T11:52:12Z</time>
      </trkpt>
      <trkpt lat="45.87409470230341" lon="9.382486492395401">
        <ele>788.89999999999998</ele>
        <time>2014-05-24T11:52:21Z</time>
      </trkpt>
      <trkpt lat="45.873971488326788" lon="9.382617250084877">
        <ele>789.86000000000001</ele>
        <time>2014-05-24T11:52:37Z</time>
      </trkpt>
      <trkpt lat="45.87387970648706" lon="9.382737362757325">
        <ele>791.29999999999995</ele>
        <time>2014-05-24T11:52:50Z</time>
      </trkpt>
      <trkpt lat="45.873736627399921" lon="9.3828284740448">
        <ele>791.77999999999997</ele>
        <time>2014-05-24T11:53:04Z</time>
      </trkpt>
      <trkpt lat="45.873575694859028" lon="9.38286661170423">
        <ele>793.22000000000003</ele>
        <time>2014-05-24T11:53:20Z</time>
      </trkpt>
      <trkpt lat="45.873539820313454" lon="9.382841885089874">
        <ele>794.19000000000005</ele>
        <time>2014-05-24T11:53:36Z</time>
      </trkpt>
      <trkpt lat="45.873523894697428" lon="9.382820008322597">
        <ele>793.71000000000004</ele>
        <time>2014-05-24T11:54:00Z</time>
      </trkpt>
      <trkpt lat="45.873517775908113" lon="9.382813638076186">
        <ele>793.71000000000004</ele>
        <time>2014-05-24T11:54:27Z</time>
      </trkpt>
      <trkpt lat="45.873489696532488" lon="9.382789498195052">
        <ele>794.19000000000005</ele>
        <time>2014-05-24T11:54:46Z</time>
      </trkpt>
      <trkpt lat="45.87342482060194" lon="9.382834676653147">
        <ele>796.59000000000003</ele>
        <time>2014-05-24T11:55:01Z</time>
      </trkpt>
      <trkpt lat="45.873354328796268" lon="9.382872898131609">
        <ele>798.50999999999999</ele>
        <time>2014-05-24T11:55:16Z</time>
      </trkpt>
      <trkpt lat="45.873253578320146" lon="9.382927212864161">
        <ele>800.91999999999996</ele>
        <time>2014-05-24T11:55:33Z</time>
      </trkpt>
      <trkpt lat="45.873240418732166" lon="9.383034249767661">
        <ele>803.32000000000005</ele>
        <time>2014-05-24T11:55:47Z</time>
      </trkpt>
      <trkpt lat="45.873245615512133" lon="9.383150339126587">
        <ele>806.20000000000005</ele>
        <time>2014-05-24T11:56:03Z</time>
      </trkpt>
      <trkpt lat="45.873208902776241" lon="9.383277744054794">
        <ele>809.09000000000003</ele>
        <time>2014-05-24T11:56:23Z</time>
      </trkpt>
      <trkpt lat="45.873171184211969" lon="9.383384613320231">
        <ele>811.49000000000001</ele>
        <time>2014-05-24T11:56:36Z</time>
      </trkpt>
      <trkpt lat="45.873113851994276" lon="9.383437167853117">
        <ele>814.37</ele>
        <time>2014-05-24T11:56:51Z</time>
      </trkpt>
      <trkpt lat="45.873000528663397" lon="9.383479747921228">
        <ele>816.77999999999997</ele>
        <time>2014-05-24T11:57:06Z</time>
      </trkpt>
      <trkpt lat="45.872886702418327" lon="9.383456278592348">
        <ele>815.82000000000005</ele>
        <time>2014-05-24T11:57:22Z</time>
      </trkpt>
      <trkpt lat="45.872850911691785" lon="9.383456110954285">
        <ele>814.37</ele>
        <time>2014-05-24T11:57:27Z</time>
      </trkpt>
      <trkpt lat="45.872707832604647" lon="9.383478742092848">
        <ele>814.37</ele>
        <time>2014-05-24T11:57:42Z</time>
      </trkpt>
      <trkpt lat="45.872676400467753" lon="9.383486788719893">
        <ele>814.37</ele>
        <time>2014-05-24T11:57:45Z</time>
      </trkpt>
      <trkpt lat="45.872621918097138" lon="9.383630957454443">
        <ele>813.40999999999997</ele>
        <time>2014-05-24T11:58:01Z</time>
      </trkpt>
      <trkpt lat="45.872594341635704" lon="9.383732043206692">
        <ele>811.49000000000001</ele>
        <time>2014-05-24T11:58:17Z</time>
      </trkpt>
      <trkpt lat="45.872483281418681" lon="9.383805552497506">
        <ele>810.52999999999997</ele>
        <time>2014-05-24T11:58:32Z</time>
      </trkpt>
      <trkpt lat="45.872415974736214" lon="9.383943434804678">
        <ele>807.63999999999999</ele>
        <time>2014-05-24T11:58:50Z</time>
      </trkpt>
      <trkpt lat="45.8723527751863" lon="9.384109145030379">
        <ele>806.67999999999995</ele>
        <time>2014-05-24T11:59:06Z</time>
      </trkpt>
      <trkpt lat="45.872312877327204" lon="9.384280303493142">
        <ele>807.15999999999997</ele>
        <time>2014-05-24T11:59:21Z</time>
      </trkpt>
      <trkpt lat="45.87223450653255" lon="9.384437967091799">
        <ele>808.13</ele>
        <time>2014-05-24T11:59:37Z</time>
      </trkpt>
      <trkpt lat="45.872105928137898" lon="9.384499154984951">
        <ele>809.09000000000003</ele>
        <time>2014-05-24T11:59:52Z</time>
      </trkpt>
      <trkpt lat="45.872056977823377" lon="9.38457241281867">
        <ele>811.49000000000001</ele>
        <time>2014-05-24T12:00:06Z</time>
      </trkpt>
      <trkpt lat="45.871981121599674" lon="9.384585320949554">
        <ele>813.40999999999997</ele>
        <time>2014-05-24T12:00:21Z</time>
      </trkpt>
      <trkpt lat="45.871994029730558" lon="9.384641982614994">
        <ele>813.40999999999997</ele>
        <time>2014-05-24T12:00:44Z</time>
      </trkpt>
      <trkpt lat="45.871959328651428" lon="9.384645251557231">
        <ele>813.88999999999999</ele>
        <time>2014-05-24T12:01:02Z</time>
      </trkpt>
      <trkpt lat="45.871933344751596" lon="9.384599905461073">
        <ele>813.88999999999999</ele>
        <time>2014-05-24T12:01:18Z</time>
      </trkpt>
      <trkpt lat="45.871956394985318" lon="9.384629409760237">
        <ele>813.40999999999997</ele>
        <time>2014-05-24T12:01:40Z</time>
      </trkpt>
      <trkpt lat="45.871965866535902" lon="9.384611053392291">
        <ele>813.40999999999997</ele>
        <time>2014-05-24T12:02:03Z</time>
      </trkpt>
      <trkpt lat="45.871922615915537" lon="9.384730579331517">
        <ele>811.97000000000003</ele>
        <time>2014-05-24T12:02:17Z</time>
      </trkpt>
      <trkpt lat="45.871845753863454" lon="9.384787911549211">
        <ele>808.61000000000001</ele>
        <time>2014-05-24T12:02:29Z</time>
      </trkpt>
      <trkpt lat="45.871734274551272" lon="9.384887153282762">
        <ele>806.67999999999995</ele>
        <time>2014-05-24T12:02:44Z</time>
      </trkpt>
      <trkpt lat="45.871622543781996" lon="9.384963680058718">
        <ele>805.72000000000003</ele>
        <time>2014-05-24T12:02:58Z</time>
      </trkpt>
      <trkpt lat="45.871499665081501" lon="9.385018246248364">
        <ele>805.24000000000001</ele>
        <time>2014-05-24T12:03:11Z</time>
      </trkpt>
      <trkpt lat="45.871424982324243" lon="9.385046912357211">
        <ele>807.15999999999997</ele>
        <time>2014-05-24T12:03:24Z</time>
      </trkpt>
      <trkpt lat="45.871301600709558" lon="9.385055713355541">
        <ele>806.67999999999995</ele>
        <time>2014-05-24T12:03:39Z</time>
      </trkpt>
      <trkpt lat="45.871232785284519" lon="9.385157637298107">
        <ele>804.75999999999999</ele>
        <time>2014-05-24T12:03:54Z</time>
      </trkpt>
      <trkpt lat="45.871190289035439" lon="9.385200720280409">
        <ele>802.84000000000003</ele>
        <time>2014-05-24T12:04:07Z</time>
      </trkpt>
      <trkpt lat="45.87116489186883" lon="9.385272217914462">
        <ele>799.95000000000005</ele>
        <time>2014-05-24T12:04:22Z</time>
      </trkpt>
      <trkpt lat="45.871129855513573" lon="9.385300129652023">
        <ele>797.54999999999995</ele>
        <time>2014-05-24T12:04:37Z</time>
      </trkpt>
      <trkpt lat="45.871126502752304" lon="9.38540012575686">
        <ele>794.66999999999996</ele>
        <time>2014-05-24T12:04:52Z</time>
      </trkpt>
      <trkpt lat="45.871100686490536" lon="9.385519735515118">
        <ele>792.25999999999999</ele>
        <time>2014-05-24T12:05:06Z</time>
      </trkpt>
      <trkpt lat="45.871065985411406" lon="9.38546315766871">
        <ele>789.38</ele>
        <time>2014-05-24T12:05:19Z</time>
      </trkpt>
      <trkpt lat="45.871061207726598" lon="9.385458547621965">
        <ele>788.89999999999998</ele>
        <time>2014-05-24T12:05:26Z</time>
      </trkpt>
      <trkpt lat="45.871004294604063" lon="9.385502301156521">
        <ele>786.01999999999998</ele>
        <time>2014-05-24T12:05:38Z</time>
      </trkpt>
      <trkpt lat="45.870979903265834" lon="9.385607494041324">
        <ele>783.13</ele>
        <time>2014-05-24T12:05:53Z</time>
      </trkpt>
      <trkpt lat="45.870936904102564" lon="9.385655019432306">
        <ele>780.25</ele>
        <time>2014-05-24T12:06:06Z</time>
      </trkpt>
      <trkpt lat="45.870913853868842" lon="9.385643284767866">
        <ele>779.76999999999998</ele>
        <time>2014-05-24T12:06:10Z</time>
      </trkpt>
      <trkpt lat="45.870875297114253" lon="9.385561058297753">
        <ele>776.88</ele>
        <time>2014-05-24T12:06:22Z</time>
      </trkpt>
      <trkpt lat="45.870840093120933" lon="9.385537169873714">
        <ele>775.44000000000005</ele>
        <time>2014-05-24T12:06:35Z</time>
      </trkpt>
      <trkpt lat="45.870829867199063" lon="9.385631717741489">
        <ele>773.03999999999996</ele>
        <time>2014-05-24T12:06:47Z</time>
      </trkpt>
      <trkpt lat="45.870854761451483" lon="9.38570941798389">
        <ele>771.60000000000002</ele>
        <time>2014-05-24T12:06:58Z</time>
      </trkpt>
      <trkpt lat="45.870892144739628" lon="9.385827854275703">
        <ele>768.71000000000004</ele>
        <time>2014-05-24T12:07:12Z</time>
      </trkpt>
      <trkpt lat="45.870911255478859" lon="9.385952493175864">
        <ele>768.71000000000004</ele>
        <time>2014-05-24T12:07:24Z</time>
      </trkpt>
      <trkpt lat="45.870904382318258" lon="9.38598794862628">
        <ele>767.26999999999998</ele>
        <time>2014-05-24T12:07:28Z</time>
      </trkpt>
      <trkpt lat="45.870869010686874" lon="9.386164471507072">
        <ele>768.71000000000004</ele>
        <time>2014-05-24T12:07:44Z</time>
      </trkpt>
      <trkpt lat="45.870896000415087" lon="9.386319704353809">
        <ele>769.66999999999996</ele>
        <time>2014-05-24T12:07:58Z</time>
      </trkpt>
      <trkpt lat="45.870938915759325" lon="9.386497652158141">
        <ele>769.66999999999996</ele>
        <time>2014-05-24T12:08:13Z</time>
      </trkpt>
      <trkpt lat="45.870937155559659" lon="9.386628912761807">
        <ele>766.78999999999996</ele>
        <time>2014-05-24T12:08:30Z</time>
      </trkpt>
      <trkpt lat="45.870900861918926" lon="9.386714324355125">
        <ele>763.41999999999996</ele>
        <time>2014-05-24T12:08:42Z</time>
      </trkpt>
      <trkpt lat="45.870861299335957" lon="9.386831084266305">
        <ele>760.05999999999995</ele>
        <time>2014-05-24T12:08:56Z</time>
      </trkpt>
      <trkpt lat="45.870830537751317" lon="9.386973660439253">
        <ele>757.65999999999997</ele>
        <time>2014-05-24T12:09:13Z</time>
      </trkpt>
      <trkpt lat="45.87073733098805" lon="9.387061754241586">
        <ele>754.76999999999998</ele>
        <time>2014-05-24T12:09:29Z</time>
      </trkpt>
      <trkpt lat="45.870654098689556" lon="9.387205839157105">
        <ele>752.37</ele>
        <time>2014-05-24T12:09:45Z</time>
      </trkpt>
      <trkpt lat="45.870563825592399" lon="9.387378841638565">
        <ele>752.37</ele>
        <time>2014-05-24T12:10:02Z</time>
      </trkpt>
      <trkpt lat="45.870491238310933" lon="9.387457547709346">
        <ele>750.92999999999995</ele>
        <time>2014-05-24T12:10:15Z</time>
      </trkpt>
      <trkpt lat="45.870479168370366" lon="9.387438604608178">
        <ele>750.92999999999995</ele>
        <time>2014-05-24T12:10:27Z</time>
      </trkpt>
      <trkpt lat="45.870479503646493" lon="9.387450842186809">
        <ele>750.45000000000005</ele>
        <time>2014-05-24T12:10:50Z</time>
      </trkpt>
      <trkpt lat="45.870483526960015" lon="9.387449752539396">
        <ele>750.45000000000005</ele>
        <time>2014-05-24T12:11:06Z</time>
      </trkpt>
      <trkpt lat="45.870478246361017" lon="9.387444471940398">
        <ele>750.92999999999995</ele>
        <time>2014-05-24T12:11:17Z</time>
      </trkpt>
      <trkpt lat="45.870470954105258" lon="9.387439275160432">
        <ele>750.92999999999995</ele>
        <time>2014-05-24T12:11:36Z</time>
      </trkpt>
      <trkpt lat="45.87047154083848" lon="9.387434832751751">
        <ele>750.92999999999995</ele>
        <time>2014-05-24T12:12:03Z</time>
      </trkpt>
      <trkpt lat="45.870461482554674" lon="9.387448076158762">
        <ele>750.92999999999995</ele>
        <time>2014-05-24T12:12:24Z</time>
      </trkpt>
      <trkpt lat="45.870466344058514" lon="9.387434497475624">
        <ele>750.92999999999995</ele>
        <time>2014-05-24T12:12:50Z</time>
      </trkpt>
      <trkpt lat="45.870472881942987" lon="9.387417230755091">
        <ele>750.45000000000005</ele>
        <time>2014-05-24T12:13:17Z</time>
      </trkpt>
      <trkpt lat="45.870487466454506" lon="9.387460649013519">
        <ele>750.45000000000005</ele>
        <time>2014-05-24T12:13:42Z</time>
      </trkpt>
      <trkpt lat="45.870509259402752" lon="9.38750809058547">
        <ele>750.92999999999995</ele>
        <time>2014-05-24T12:13:55Z</time>
      </trkpt>
      <trkpt lat="45.870506325736642" lon="9.387556035071611">
        <ele>749.49000000000001</ele>
        <time>2014-05-24T12:14:14Z</time>
      </trkpt>
      <trkpt lat="45.870479503646493" lon="9.387556537985802">
        <ele>746.60000000000002</ele>
        <time>2014-05-24T12:14:27Z</time>
      </trkpt>
      <trkpt lat="45.870507331565022" lon="9.387654857710004">
        <ele>743.24000000000001</ele>
        <time>2014-05-24T12:14:42Z</time>
      </trkpt>
      <trkpt lat="45.870457710698247" lon="9.387686625123024">
        <ele>741.30999999999995</ele>
        <time>2014-05-24T12:14:54Z</time>
      </trkpt>
      <trkpt lat="45.870485119521618" lon="9.387760302051902">
        <ele>738.90999999999997</ele>
        <time>2014-05-24T12:15:07Z</time>
      </trkpt>
      <trkpt lat="45.870490567758679" lon="9.387816041707993">
        <ele>736.02999999999997</ele>
        <time>2014-05-24T12:15:18Z</time>
      </trkpt>
      <trkpt lat="45.870527280494571" lon="9.387923246249557">
        <ele>733.13999999999999</ele>
        <time>2014-05-24T12:15:34Z</time>
      </trkpt>
      <trkpt lat="45.870555276051164" lon="9.388016872107983">
        <ele>730.25999999999999</ele>
        <time>2014-05-24T12:15:49Z</time>
      </trkpt>
      <trkpt lat="45.870588133111596" lon="9.388097925111651">
        <ele>727.86000000000001</ele>
        <time>2014-05-24T12:16:04Z</time>
      </trkpt>
      <trkpt lat="45.870607495307922" lon="9.388208147138357">
        <ele>724.49000000000001</ele>
        <time>2014-05-24T12:16:16Z</time>
      </trkpt>
      <trkpt lat="45.870663151144981" lon="9.388344017788768">
        <ele>723.04999999999995</ele>
        <time>2014-05-24T12:16:33Z</time>
      </trkpt>
      <trkpt lat="45.870631886646152" lon="9.388437978923321">
        <ele>719.67999999999995</ele>
        <time>2014-05-24T12:16:46Z</time>
      </trkpt>
      <trkpt lat="45.870725763961673" lon="9.388553146272898">
        <ele>719.67999999999995</ele>
        <time>2014-05-24T12:17:00Z</time>
      </trkpt>
      <trkpt lat="45.870810253545642" lon="9.388683065772057">
        <ele>720.15999999999997</ele>
        <time>2014-05-24T12:17:16Z</time>
      </trkpt>
      <trkpt lat="45.870864819735289" lon="9.388737296685576">
        <ele>722.57000000000005</ele>
        <time>2014-05-24T12:17:30Z</time>
      </trkpt>
      <trkpt lat="45.870904130861163" lon="9.388814410194755">
        <ele>720.64999999999998</ele>
        <time>2014-05-24T12:17:43Z</time>
      </trkpt>
      <trkpt lat="45.870933132246137" lon="9.388844585046172">
        <ele>718.72000000000003</ele>
        <time>2014-05-24T12:17:54Z</time>
      </trkpt>
      <trkpt lat="45.870959451422095" lon="9.388945922255516">
        <ele>716.79999999999995</ele>
        <time>2014-05-24T12:18:03Z</time>
      </trkpt>
      <trkpt lat="45.870969090610743" lon="9.388976600021124">
        <ele>716.32000000000005</ele>
        <time>2014-05-24T12:18:05Z</time>
      </trkpt>
      <trkpt lat="45.87105399928987" lon="9.389105597510934">
        <ele>715.84000000000003</ele>
        <time>2014-05-24T12:18:20Z</time>
      </trkpt>
      <trkpt lat="45.871111582964659" lon="9.389177681878209">
        <ele>715.84000000000003</ele>
        <time>2014-05-24T12:18:34Z</time>
      </trkpt>
      <trkpt lat="45.871164556592703" lon="9.389250772073865">
        <ele>713.44000000000005</ele>
        <time>2014-05-24T12:18:46Z</time>
      </trkpt>
      <trkpt lat="45.8712078910321" lon="9.389291340485215">
        <ele>712.47000000000003</ele>
        <time>2014-05-24T12:18:58Z</time>
      </trkpt>
      <trkpt lat="45.871254159137607" lon="9.389335429295898">
        <ele>710.54999999999995</ele>
        <time>2014-05-24T12:19:12Z</time>
      </trkpt>
      <trkpt lat="45.871290117502213" lon="9.389382870867848">
        <ele>707.19000000000005</ele>
        <time>2014-05-24T12:19:23Z</time>
      </trkpt>
      <trkpt lat="45.871361698955297" lon="9.389417488127947">
        <ele>704.77999999999997</ele>
        <time>2014-05-24T12:19:36Z</time>
      </trkpt>
      <trkpt lat="45.871439147740602" lon="9.389449255540967">
        <ele>701.89999999999998</ele>
        <time>2014-05-24T12:19:50Z</time>
      </trkpt>
      <trkpt lat="45.871519278734922" lon="9.389443220570684">
        <ele>699.5</ele>
        <time>2014-05-24T12:20:03Z</time>
      </trkpt>
      <trkpt lat="45.871605277061462" lon="9.389439783990383">
        <ele>698.52999999999997</ele>
        <time>2014-05-24T12:20:17Z</time>
      </trkpt>
      <trkpt lat="45.871653724461794" lon="9.389494936913252">
        <ele>696.13</ele>
        <time>2014-05-24T12:20:30Z</time>
      </trkpt>
      <trkpt lat="45.871687168255448" lon="9.389548161998391">
        <ele>692.76999999999998</ele>
        <time>2014-05-24T12:20:41Z</time>
      </trkpt>
      <trkpt lat="45.871758498251438" lon="9.389642626047134">
        <ele>690.36000000000001</ele>
        <time>2014-05-24T12:20:55Z</time>
      </trkpt>
      <trkpt lat="45.871775429695845" lon="9.389758296310902">
        <ele>687.96000000000004</ele>
        <time>2014-05-24T12:21:10Z</time>
      </trkpt>
      <trkpt lat="45.87177911773324" lon="9.389818143099546">
        <ele>684.60000000000002</ele>
        <time>2014-05-24T12:21:22Z</time>
      </trkpt>
      <trkpt lat="45.871709128841758" lon="9.389894250780344">
        <ele>682.66999999999996</ele>
        <time>2014-05-24T12:21:35Z</time>
      </trkpt>
      <trkpt lat="45.871599661186337" lon="9.389902297407389">
        <ele>681.23000000000002</ele>
        <time>2014-05-24T12:21:48Z</time>
      </trkpt>
      <trkpt lat="45.871534282341599" lon="9.389891317114234">
        <ele>678.35000000000002</ele>
        <time>2014-05-24T12:22:04Z</time>
      </trkpt>
      <trkpt lat="45.871495055034757" lon="9.389934903010726">
        <ele>675.94000000000005</ele>
        <time>2014-05-24T12:22:16Z</time>
      </trkpt>
      <trkpt lat="45.871439231559634" lon="9.389978069812059">
        <ele>673.05999999999995</ele>
        <time>2014-05-24T12:22:29Z</time>
      </trkpt>
      <trkpt lat="45.871454905718565" lon="9.39003330655396">
        <ele>671.13999999999999</ele>
        <time>2014-05-24T12:22:42Z</time>
      </trkpt>
      <trkpt lat="45.871483739465475" lon="9.390037078410387">
        <ele>670.65999999999997</ele>
        <time>2014-05-24T12:22:49Z</time>
      </trkpt>
      <trkpt lat="45.871522966772318" lon="9.390112012624741">
        <ele>667.76999999999998</ele>
        <time>2014-05-24T12:23:05Z</time>
      </trkpt>
      <trkpt lat="45.871465047821403" lon="9.390124920755625">
        <ele>664.88999999999999</ele>
        <time>2014-05-24T12:23:15Z</time>
      </trkpt>
      <trkpt lat="45.871399249881506" lon="9.390071695670486">
        <ele>662.97000000000003</ele>
        <time>2014-05-24T12:23:29Z</time>
      </trkpt>
      <trkpt lat="45.871376618742943" lon="9.390108408406377">
        <ele>662.00999999999999</ele>
        <time>2014-05-24T12:23:34Z</time>
      </trkpt>
      <trkpt lat="45.871355831623077" lon="9.390121987089515">
        <ele>661.03999999999996</ele>
        <time>2014-05-24T12:23:37Z</time>
      </trkpt>
      <trkpt lat="45.871284082531929" lon="9.390101032331586">
        <ele>659.12</ele>
        <time>2014-05-24T12:23:52Z</time>
      </trkpt>
      <trkpt lat="45.871245693415403" lon="9.390088375657797">
        <ele>658.63999999999999</ele>
        <time>2014-05-24T12:23:56Z</time>
      </trkpt>
      <trkpt lat="45.871126670390368" lon="9.390091225504875">
        <ele>657.20000000000005</ele>
        <time>2014-05-24T12:24:09Z</time>
      </trkpt>
      <trkpt lat="45.871023572981358" lon="9.390131207183003">
        <ele>655.27999999999997</ele>
        <time>2014-05-24T12:24:24Z</time>
      </trkpt>
      <trkpt lat="45.870966324582696" lon="9.390174206346273">
        <ele>654.30999999999995</ele>
        <time>2014-05-24T12:24:36Z</time>
      </trkpt>
      <trkpt lat="45.870934138074517" lon="9.390230113640428">
        <ele>651.90999999999997</ele>
        <time>2014-05-24T12:24:51Z</time>
      </trkpt>
      <trkpt lat="45.870987949892879" lon="9.390220390632749">
        <ele>649.50999999999999</ele>
        <time>2014-05-24T12:25:04Z</time>
      </trkpt>
      <trkpt lat="45.870999349281192" lon="9.390253415331245">
        <ele>647.59000000000003</ele>
        <time>2014-05-24T12:25:18Z</time>
      </trkpt>
      <trkpt lat="45.87105986662209" lon="9.390235980972648">
        <ele>644.22000000000003</ele>
        <time>2014-05-24T12:25:31Z</time>
      </trkpt>
      <trkpt lat="45.871077133342624" lon="9.390284093096852">
        <ele>641.82000000000005</ele>
        <time>2014-05-24T12:25:45Z</time>
      </trkpt>
      <trkpt lat="45.871138237416744" lon="9.390332037582994">
        <ele>638.92999999999995</ele>
        <time>2014-05-24T12:25:58Z</time>
      </trkpt>
      <trkpt lat="45.871156426146626" lon="9.390375623479486">
        <ele>637.00999999999999</ele>
        <time>2014-05-24T12:26:09Z</time>
      </trkpt>
      <trkpt lat="45.871178554370999" lon="9.390417616814375">
        <ele>635.57000000000005</ele>
        <time>2014-05-24T12:26:15Z</time>
      </trkpt>
      <trkpt lat="45.871277879923582" lon="9.390488527715206">
        <ele>633.16999999999996</ele>
        <time>2014-05-24T12:26:30Z</time>
      </trkpt>
      <trkpt lat="45.871327668428421" lon="9.390496322885156">
        <ele>632.67999999999995</ele>
        <time>2014-05-24T12:26:43Z</time>
      </trkpt>
      <trkpt lat="45.871343845501542" lon="9.390536220744252">
        <ele>631.24000000000001</ele>
        <time>2014-05-24T12:26:58Z</time>
      </trkpt>
      <trkpt lat="45.871357256546617" lon="9.390577208250761">
        <ele>629.32000000000005</ele>
        <time>2014-05-24T12:27:09Z</time>
      </trkpt>
      <trkpt lat="45.87136379443109" lon="9.390651388093829">
        <ele>626.44000000000005</ele>
        <time>2014-05-24T12:27:22Z</time>
      </trkpt>
      <trkpt lat="45.871325992047787" lon="9.390723472461104">
        <ele>624.02999999999997</ele>
        <time>2014-05-24T12:27:33Z</time>
      </trkpt>
      <trkpt lat="45.871263965964317" lon="9.390710815787315">
        <ele>621.14999999999998</ele>
        <time>2014-05-24T12:27:45Z</time>
      </trkpt>
      <trkpt lat="45.871195821091533" lon="9.390713078901172">
        <ele>618.25999999999999</ele>
        <time>2014-05-24T12:27:57Z</time>
      </trkpt>
      <trkpt lat="45.871146619319916" lon="9.390783235430718">
        <ele>614.89999999999998</ele>
        <time>2014-05-24T12:28:11Z</time>
      </trkpt>
      <trkpt lat="45.871175201609731" lon="9.390910305082798">
        <ele>612.01999999999998</ele>
        <time>2014-05-24T12:28:24Z</time>
      </trkpt>
      <trkpt lat="45.871212333440781" lon="9.391023712232709">
        <ele>609.61000000000001</ele>
        <time>2014-05-24T12:28:38Z</time>
      </trkpt>
      <trkpt lat="45.871243681758642" lon="9.391120355576277">
        <ele>606.73000000000002</ele>
        <time>2014-05-24T12:28:52Z</time>
      </trkpt>
      <trkpt lat="45.871171932667494" lon="9.391113985329866">
        <ele>604.33000000000004</ele>
        <time>2014-05-24T12:29:03Z</time>
      </trkpt>
      <trkpt lat="45.871108146384358" lon="9.391124965623021">
        <ele>601.91999999999996</ele>
        <time>2014-05-24T12:29:18Z</time>
      </trkpt>
      <trkpt lat="45.871145697310567" lon="9.391198474913836">
        <ele>599.51999999999998</ele>
        <time>2014-05-24T12:29:31Z</time>
      </trkpt>
      <trkpt lat="45.871210657060146" lon="9.391253963112831">
        <ele>597.12</ele>
        <time>2014-05-24T12:29:44Z</time>
      </trkpt>
      <trkpt lat="45.871275030076504" lon="9.391339877620339">
        <ele>593.75</ele>
        <time>2014-05-24T12:29:59Z</time>
      </trkpt>
      <trkpt lat="45.871300678700209" lon="9.391398634761572">
        <ele>591.83000000000004</ele>
        <time>2014-05-24T12:30:12Z</time>
      </trkpt>
      <trkpt lat="45.871233120560646" lon="9.391414979472756">
        <ele>589.42999999999995</ele>
        <time>2014-05-24T12:30:25Z</time>
      </trkpt>
      <trkpt lat="45.871173441410065" lon="9.391391426324844">
        <ele>587.5</ele>
        <time>2014-05-24T12:30:39Z</time>
      </trkpt>
      <trkpt lat="45.871130023151636" lon="9.391327472403646">
        <ele>585.58000000000004</ele>
        <time>2014-05-24T12:30:50Z</time>
      </trkpt>
      <trkpt lat="45.871142176911235" lon="9.391400143504143">
        <ele>583.65999999999997</ele>
        <time>2014-05-24T12:31:02Z</time>
      </trkpt>
      <trkpt lat="45.871205544099212" lon="9.391473652794957">
        <ele>581.73000000000002</ele>
        <time>2014-05-24T12:31:13Z</time>
      </trkpt>
      <trkpt lat="45.871287100017071" lon="9.391534505411983">
        <ele>578.85000000000002</ele>
        <time>2014-05-24T12:31:28Z</time>
      </trkpt>
      <trkpt lat="45.871347282081842" lon="9.391601728275418">
        <ele>577.40999999999997</ele>
        <time>2014-05-24T12:31:43Z</time>
      </trkpt>
      <trkpt lat="45.87135499343276" lon="9.391620671376586">
        <ele>576.45000000000005</ele>
        <time>2014-05-24T12:31:45Z</time>
      </trkpt>
      <trkpt lat="45.871420204639435" lon="9.391704574227333">
        <ele>575.00999999999999</ele>
        <time>2014-05-24T12:31:59Z</time>
      </trkpt>
      <trkpt lat="45.871401932090521" lon="9.391788309440017">
        <ele>573.08000000000004</ele>
        <time>2014-05-24T12:32:11Z</time>
      </trkpt>
      <trkpt lat="45.871429927647114" lon="9.391880091279745">
        <ele>570.20000000000005</ele>
        <time>2014-05-24T12:32:27Z</time>
      </trkpt>
      <trkpt lat="45.871467981487513" lon="9.391934154555202">
        <ele>568.27999999999997</ele>
        <time>2014-05-24T12:32:38Z</time>
      </trkpt>
      <trkpt lat="45.871411990374327" lon="9.391964832320809">
        <ele>565.87</ele>
        <time>2014-05-24T12:32:53Z</time>
      </trkpt>
      <trkpt lat="45.871403021737933" lon="9.39200540073216">
        <ele>563.47000000000003</ele>
        <time>2014-05-24T12:33:07Z</time>
      </trkpt>
      <trkpt lat="45.871369075030088" lon="9.392001796513796">
        <ele>562.99000000000001</ele>
        <time>2014-05-24T12:33:11Z</time>
      </trkpt>
      <trkpt lat="45.871320040896535" lon="9.391960138455033">
        <ele>561.54999999999995</ele>
        <time>2014-05-24T12:33:18Z</time>
      </trkpt>
      <trkpt lat="45.871233623474836" lon="9.391869278624654">
        <ele>561.54999999999995</ele>
        <time>2014-05-24T12:33:31Z</time>
      </trkpt>
      <trkpt lat="45.871120048686862" lon="9.391795853152871">
        <ele>558.17999999999995</ele>
        <time>2014-05-24T12:33:45Z</time>
      </trkpt>
      <trkpt lat="45.87109406478703" lon="9.391787135973573">
        <ele>557.70000000000005</ele>
        <time>2014-05-24T12:33:48Z</time>
      </trkpt>
      <trkpt lat="45.870951237156987" lon="9.391708765178919">
        <ele>556.74000000000001</ele>
        <time>2014-05-24T12:34:04Z</time>
      </trkpt>
      <trkpt lat="45.870883343741298" lon="9.391690576449037">
        <ele>555.77999999999997</ele>
        <time>2014-05-24T12:34:13Z</time>
      </trkpt>
      <trkpt lat="45.870809080079198" lon="9.391609271988273">
        <ele>553.86000000000001</ele>
        <time>2014-05-24T12:34:28Z</time>
      </trkpt>
      <trkpt lat="45.870779911056161" lon="9.391624862328172">
        <ele>552.89999999999998</ele>
        <time>2014-05-24T12:34:38Z</time>
      </trkpt>
      <trkpt lat="45.870766332373023" lon="9.391591669991612">
        <ele>552.89999999999998</ele>
        <time>2014-05-24T12:34:51Z</time>
      </trkpt>
      <trkpt lat="45.870801955461502" lon="9.391599716618657">
        <ele>552.40999999999997</ele>
        <time>2014-05-24T12:35:12Z</time>
      </trkpt>
      <trkpt lat="45.870807403698564" lon="9.391612624749541">
        <ele>552.40999999999997</ele>
        <time>2014-05-24T12:35:14Z</time>
      </trkpt>
      <trkpt lat="45.870789047330618" lon="9.391634836792946">
        <ele>554.34000000000003</ele>
        <time>2014-05-24T12:35:29Z</time>
      </trkpt>
      <trkpt lat="45.870794914662838" lon="9.391595274209976">
        <ele>552.40999999999997</ele>
        <time>2014-05-24T12:35:45Z</time>
      </trkpt>
      <trkpt lat="45.870859455317259" lon="9.391546742990613">
        <ele>551.92999999999995</ele>
        <time>2014-05-24T12:36:08Z</time>
      </trkpt>
      <trkpt lat="45.870792316272855" lon="9.391571385785937">
        <ele>551.92999999999995</ele>
        <time>2014-05-24T12:36:24Z</time>
      </trkpt>
      <trkpt lat="45.87078477256" lon="9.391562752425671">
        <ele>552.40999999999997</ele>
        <time>2014-05-24T12:36:46Z</time>
      </trkpt>
      <trkpt lat="45.870845960453153" lon="9.391703652217984">
        <ele>550.49000000000001</ele>
        <time>2014-05-24T12:37:00Z</time>
      </trkpt>
      <trkpt lat="45.870918212458491" lon="9.391855783760548">
        <ele>548.57000000000005</ele>
        <time>2014-05-24T12:37:13Z</time>
      </trkpt>
      <trkpt lat="45.870935982093215" lon="9.391866764053702">
        <ele>548.09000000000003</ele>
        <time>2014-05-24T12:37:15Z</time>
      </trkpt>
      <trkpt lat="45.871031954884529" lon="9.39200833439827">
        <ele>546.16999999999996</ele>
        <time>2014-05-24T12:37:30Z</time>
      </trkpt>
      <trkpt lat="45.871131028980017" lon="9.392126267775893">
        <ele>544.24000000000001</ele>
        <time>2014-05-24T12:37:46Z</time>
      </trkpt>
      <trkpt lat="45.871195737272501" lon="9.392282841727138">
        <ele>543.27999999999997</ele>
        <time>2014-05-24T12:38:00Z</time>
      </trkpt>
      <trkpt lat="45.871281148865819" lon="9.392402451485395">
        <ele>541.84000000000003</ele>
        <time>2014-05-24T12:38:15Z</time>
      </trkpt>
      <trkpt lat="45.871365889906883" lon="9.392504626885057">
        <ele>539.44000000000005</ele>
        <time>2014-05-24T12:38:33Z</time>
      </trkpt>
      <trkpt lat="45.871437974274158" lon="9.392666900530458">
        <ele>537.02999999999997</ele>
        <time>2014-05-24T12:38:51Z</time>
      </trkpt>
      <trkpt lat="45.871529169380665" lon="9.392757089808583">
        <ele>535.59000000000003</ele>
        <time>2014-05-24T12:39:04Z</time>
      </trkpt>
      <trkpt lat="45.871599912643433" lon="9.392838981002569">
        <ele>533.66999999999996</ele>
        <time>2014-05-24T12:39:20Z</time>
      </trkpt>
      <trkpt lat="45.871660262346268" lon="9.392957082018256">
        <ele>532.23000000000002</ele>
        <time>2014-05-24T12:39:36Z</time>
      </trkpt>
      <trkpt lat="45.871697897091508" lon="9.393036877736449">
        <ele>530.78999999999996</ele>
        <time>2014-05-24T12:39:50Z</time>
      </trkpt>
      <trkpt lat="45.871745003387332" lon="9.39317861571908">
        <ele>528.38</ele>
        <time>2014-05-24T12:40:07Z</time>
      </trkpt>
      <trkpt lat="45.871776435524225" lon="9.393278695642948">
        <ele>526.46000000000004</ele>
        <time>2014-05-24T12:40:21Z</time>
      </trkpt>
      <trkpt lat="45.871810968965292" lon="9.393480196595192">
        <ele>525.01999999999998</ele>
        <time>2014-05-24T12:40:37Z</time>
      </trkpt>
      <trkpt lat="45.871873833239079" lon="9.393636099994183">
        <ele>522.61000000000001</ele>
        <time>2014-05-24T12:40:53Z</time>
      </trkpt>
      <trkpt lat="45.871922196820378" lon="9.393668454140425">
        <ele>522.13</ele>
        <time>2014-05-24T12:40:58Z</time>
      </trkpt>
      <trkpt lat="45.872004758566618" lon="9.393749088048935">
        <ele>520.21000000000004</ele>
        <time>2014-05-24T12:41:13Z</time>
      </trkpt>
      <trkpt lat="45.872037028893828" lon="9.393799128010869">
        <ele>519.73000000000002</ele>
        <time>2014-05-24T12:41:18Z</time>
      </trkpt>
      <trkpt lat="45.872164433822036" lon="9.393933992832899">
        <ele>518.76999999999998</ele>
        <time>2014-05-24T12:41:35Z</time>
      </trkpt>
      <trkpt lat="45.872248420491815" lon="9.394024517387152">
        <ele>518.28999999999996</ele>
        <time>2014-05-24T12:41:46Z</time>
      </trkpt>
      <trkpt lat="45.87236157618463" lon="9.394212188199163">
        <ele>517.33000000000004</ele>
        <time>2014-05-24T12:42:03Z</time>
      </trkpt>
      <trkpt lat="45.872424859553576" lon="9.394384771585465">
        <ele>516.37</ele>
        <time>2014-05-24T12:42:20Z</time>
      </trkpt>
      <trkpt lat="45.872451011091471" lon="9.394539082422853">
        <ele>514.91999999999996</ele>
        <time>2014-05-24T12:42:35Z</time>
      </trkpt>
      <trkpt lat="45.872463835403323" lon="9.394575292244554">
        <ele>514.91999999999996</ele>
        <time>2014-05-24T12:42:51Z</time>
      </trkpt>
      <trkpt lat="45.872514545917511" lon="9.394775787368417">
        <ele>513.48000000000002</ele>
        <time>2014-05-24T12:43:08Z</time>
      </trkpt>
      <trkpt lat="45.872591156512499" lon="9.394912999123335">
        <ele>512.03999999999996</ele>
        <time>2014-05-24T12:43:23Z</time>
      </trkpt>
      <trkpt lat="45.872681429609656" lon="9.395052893087268">
        <ele>510.12</ele>
        <time>2014-05-24T12:43:40Z</time>
      </trkpt>
      <trkpt lat="45.8727758936584" lon="9.39513654448092">
        <ele>509.63999999999999</ele>
        <time>2014-05-24T12:43:56Z</time>
      </trkpt>
      <trkpt lat="45.872835069894791" lon="9.395161187276244">
        <ele>509.16000000000003</ele>
        <time>2014-05-24T12:44:05Z</time>
      </trkpt>
      <trkpt lat="45.87294252589345" lon="9.395198738202453">
        <ele>508.19</ele>
        <time>2014-05-24T12:44:19Z</time>
      </trkpt>
      <trkpt lat="45.873044617474079" lon="9.395307535305619">
        <ele>505.79000000000002</ele>
        <time>2014-05-24T12:44:33Z</time>
      </trkpt>
      <trkpt lat="45.873101530596614" lon="9.395413650199771">
        <ele>503.38999999999999</ele>
        <time>2014-05-24T12:44:46Z</time>
      </trkpt>
      <trkpt lat="45.873190211132169" lon="9.395519848912954">
        <ele>501.45999999999998</ele>
        <time>2014-05-24T12:44:59Z</time>
      </trkpt>
      <trkpt lat="45.873269168660045" lon="9.395639123395085">
        <ele>499.54000000000002</ele>
        <time>2014-05-24T12:45:17Z</time>
      </trkpt>
      <trkpt lat="45.873322309926152" lon="9.395763427019119">
        <ele>498.57999999999998</ele>
        <time>2014-05-24T12:45:28Z</time>
      </trkpt>
      <trkpt lat="45.873338570818305" lon="9.395909607410431">
        <ele>498.10000000000002</ele>
        <time>2014-05-24T12:45:38Z</time>
      </trkpt>
      <trkpt lat="45.873337648808956" lon="9.396077329292893">
        <ele>497.13999999999999</ele>
        <time>2014-05-24T12:45:51Z</time>
      </trkpt>
      <trkpt lat="45.87333831936121" lon="9.396316716447473">
        <ele>496.66000000000003</ele>
        <time>2014-05-24T12:46:05Z</time>
      </trkpt>
      <trkpt lat="45.873357681557536" lon="9.396600360050798">
        <ele>496.66000000000003</ele>
        <time>2014-05-24T12:46:20Z</time>
      </trkpt>
      <trkpt lat="45.87336421944201" lon="9.396878974512219">
        <ele>494.25999999999999</ele>
        <time>2014-05-24T12:46:37Z</time>
      </trkpt>
      <trkpt lat="45.873395064845681" lon="9.396939072757959">
        <ele>493.29000000000002</ele>
        <time>2014-05-24T12:46:49Z</time>
      </trkpt>
      <trkpt lat="45.873438902199268" lon="9.397064298391342">
        <ele>494.74000000000001</ele>
        <time>2014-05-24T12:47:08Z</time>
      </trkpt>
      <trkpt lat="45.873470082879066" lon="9.39703973941505">
        <ele>495.22000000000003</ele>
        <time>2014-05-24T12:47:24Z</time>
      </trkpt>
      <trkpt lat="45.873532947152853" lon="9.397125318646431">
        <ele>495.69999999999999</ele>
        <time>2014-05-24T12:47:40Z</time>
      </trkpt>
      <trkpt lat="45.873600337654352" lon="9.397239396348596">
        <ele>496.66000000000003</ele>
        <time>2014-05-24T12:47:51Z</time>
      </trkpt>
      <trkpt lat="45.873648030683398" lon="9.397364621981978">
        <ele>497.62</ele>
        <time>2014-05-24T12:48:03Z</time>
      </trkpt>
      <trkpt lat="45.873734364286065" lon="9.397504013031721">
        <ele>499.06</ele>
        <time>2014-05-24T12:48:18Z</time>
      </trkpt>
      <trkpt lat="45.873815501108766" lon="9.397588418796659">
        <ele>500.5</ele>
        <time>2014-05-24T12:48:31Z</time>
      </trkpt>
      <trkpt lat="45.873882472515106" lon="9.397687492892146">
        <ele>501.45999999999998</ele>
        <time>2014-05-24T12:48:44Z</time>
      </trkpt>
      <trkpt lat="45.873981462791562" lon="9.397783130407333">
        <ele>503.38999999999999</ele>
        <time>2014-05-24T12:48:57Z</time>
      </trkpt>
      <trkpt lat="45.87407567538321" lon="9.397890418767929">
        <ele>505.31</ele>
        <time>2014-05-24T12:49:11Z</time>
      </trkpt>
      <trkpt lat="45.87416360154748" lon="9.397982954978943">
        <ele>506.26999999999998</ele>
        <time>2014-05-24T12:49:24Z</time>
      </trkpt>
      <trkpt lat="45.874268375337124" lon="9.39812745898962">
        <ele>506.75</ele>
        <time>2014-05-24T12:49:38Z</time>
      </trkpt>
      <trkpt lat="45.874303579330444" lon="9.398225443437696">
        <ele>507.23000000000002</ele>
        <time>2014-05-24T12:49:46Z</time>
      </trkpt>
      <trkpt lat="45.874402318149805" lon="9.398390399292111">
        <ele>507.70999999999998</ele>
        <time>2014-05-24T12:50:02Z</time>
      </trkpt>
      <trkpt lat="45.87449342943728" lon="9.398453263565898">
        <ele>507.70999999999998</ele>
        <time>2014-05-24T12:50:15Z</time>
      </trkpt>
      <trkpt lat="45.874654026702046" lon="9.398497603833675">
        <ele>507.70999999999998</ele>
        <time>2014-05-24T12:50:31Z</time>
      </trkpt>
      <trkpt lat="45.874770199880004" lon="9.398547308519483">
        <ele>508.19</ele>
        <time>2014-05-24T12:50:45Z</time>
      </trkpt>
      <trkpt lat="45.874829543754458" lon="9.398572454228997">
        <ele>508.19</ele>
        <time>2014-05-24T12:50:51Z</time>
      </trkpt>
      <trkpt lat="45.874973963946104" lon="9.398637665435672">
        <ele>508.67000000000002</ele>
        <time>2014-05-24T12:51:04Z</time>
      </trkpt>
      <trkpt lat="45.875035906210542" lon="9.398722071200609">
        <ele>508.67000000000002</ele>
        <time>2014-05-24T12:51:13Z</time>
      </trkpt>
      <trkpt lat="45.875103045254946" lon="9.398957770317793">
        <ele>509.63999999999999</ele>
        <time>2014-05-24T12:51:33Z</time>
      </trkpt>
      <trkpt lat="45.875132046639919" lon="9.399156169965863">
        <ele>511.07999999999998</ele>
        <time>2014-05-24T12:51:47Z</time>
      </trkpt>
      <trkpt lat="45.875151660293341" lon="9.399383906275034">
        <ele>512.51999999999998</ele>
        <time>2014-05-24T12:52:03Z</time>
      </trkpt>
      <trkpt lat="45.875173034146428" lon="9.399446854367852">
        <ele>513.48000000000002</ele>
        <time>2014-05-24T12:52:08Z</time>
      </trkpt>
      <trkpt lat="45.875212764367461" lon="9.399554897099733">
        <ele>515.39999999999998</ele>
        <time>2014-05-24T12:52:19Z</time>
      </trkpt>
      <trkpt lat="45.875291135162115" lon="9.399629747495055">
        <ele>517.33000000000004</ele>
        <time>2014-05-24T12:52:32Z</time>
      </trkpt>
      <trkpt lat="45.875375205650926" lon="9.399661598727107">
        <ele>518.76999999999998</ele>
        <time>2014-05-24T12:52:45Z</time>
      </trkpt>
      <trkpt lat="45.87547805160284" lon="9.399702167138457">
        <ele>521.16999999999996</ele>
        <time>2014-05-24T12:53:00Z</time>
      </trkpt>
      <trkpt lat="45.875516440719366" lon="9.399710297584534">
        <ele>521.64999999999998</ele>
        <time>2014-05-24T12:53:05Z</time>
      </trkpt>
      <trkpt lat="45.875639487057924" lon="9.399699736386538">
        <ele>523.58000000000004</ele>
        <time>2014-05-24T12:53:20Z</time>
      </trkpt>
      <trkpt lat="45.875731520354748" lon="9.39973846077919">
        <ele>525.01999999999998</ele>
        <time>2014-05-24T12:53:33Z</time>
      </trkpt>
      <trkpt lat="45.875820284709334" lon="9.399803085252643">
        <ele>526.94000000000005</ele>
        <time>2014-05-24T12:53:46Z</time>
      </trkpt>
      <trkpt lat="45.876005608588457" lon="9.399896962568164">
        <ele>530.29999999999995</ele>
        <time>2014-05-24T12:54:05Z</time>
      </trkpt>
      <trkpt lat="45.876160003244877" lon="9.399922527372837">
        <ele>533.19000000000005</ele>
        <time>2014-05-24T12:54:22Z</time>
      </trkpt>
      <trkpt lat="45.876296376809478" lon="9.399889167398214">
        <ele>535.59000000000003</ele>
        <time>2014-05-24T12:54:36Z</time>
      </trkpt>
      <trkpt lat="45.876426212489605" lon="9.399843653663993">
        <ele>538.48000000000002</ele>
        <time>2014-05-24T12:54:53Z</time>
      </trkpt>
      <trkpt lat="45.876529142260551" lon="9.399832589551806">
        <ele>540.88</ele>
        <time>2014-05-24T12:55:09Z</time>
      </trkpt>
      <trkpt lat="45.876597370952368" lon="9.39980736002326">
        <ele>542.32000000000005</ele>
        <time>2014-05-24T12:55:19Z</time>
      </trkpt>
      <trkpt lat="45.876702899113297" lon="9.399798726662993">
        <ele>543.75999999999999</ele>
        <time>2014-05-24T12:55:32Z</time>
      </trkpt>
      <trkpt lat="45.876811277121305" lon="9.399774000048637">
        <ele>546.64999999999998</ele>
        <time>2014-05-24T12:55:47Z</time>
      </trkpt>
      <trkpt lat="45.876934994012117" lon="9.399770898744464">
        <ele>548.57000000000005</ele>
        <time>2014-05-24T12:56:02Z</time>
      </trkpt>
      <trkpt lat="45.87703968398273" lon="9.399803755804896">
        <ele>550.00999999999999</ele>
        <time>2014-05-24T12:56:14Z</time>
      </trkpt>
      <trkpt lat="45.877142529934645" lon="9.399858321994543">
        <ele>551.45000000000005</ele>
        <time>2014-05-24T12:56:26Z</time>
      </trkpt>
      <trkpt lat="45.877147223800421" lon="9.399866033345461">
        <ele>551.45000000000005</ele>
        <time>2014-05-24T12:56:27Z</time>
      </trkpt>
      <trkpt lat="45.877172285690904" lon="9.399950858205557">
        <ele>552.40999999999997</ele>
        <time>2014-05-24T12:56:39Z</time>
      </trkpt>
      <trkpt lat="45.877179158851504" lon="9.399915654212236">
        <ele>552.40999999999997</ele>
        <time>2014-05-24T12:56:55Z</time>
      </trkpt>
      <trkpt lat="45.877175638452172" lon="9.39991875551641">
        <ele>552.40999999999997</ele>
        <time>2014-05-24T12:57:09Z</time>
      </trkpt>
      <trkpt lat="45.877167927101254" lon="9.399944823235273">
        <ele>551.92999999999995</ele>
        <time>2014-05-24T12:57:24Z</time>
      </trkpt>
      <trkpt lat="45.877150492742658" lon="9.399983296170831">
        <ele>552.40999999999997</ele>
        <time>2014-05-24T12:57:45Z</time>
      </trkpt>
      <trkpt lat="45.877113780006766" lon="9.399976758286357">
        <ele>552.40999999999997</ele>
        <time>2014-05-24T12:57:59Z</time>
      </trkpt>
      <trkpt lat="45.877087544649839" lon="9.399997629225254">
        <ele>552.89999999999998</ele>
        <time>2014-05-24T12:58:16Z</time>
      </trkpt>
      <trkpt lat="45.877087544649839" lon="9.400007268413901">
        <ele>552.40999999999997</ele>
        <time>2014-05-24T12:58:28Z</time>
      </trkpt>
      <trkpt lat="45.877068266272545" lon="9.40007658675313">
        <ele>551.92999999999995</ele>
        <time>2014-05-24T12:58:33Z</time>
      </trkpt>
      <trkpt lat="45.87697422131896" lon="9.400168368592858">
        <ele>549.04999999999995</ele>
        <time>2014-05-24T12:58:47Z</time>
      </trkpt>
      <trkpt lat="45.876969443634152" lon="9.400179348886013">
        <ele>548.57000000000005</ele>
        <time>2014-05-24T12:58:48Z</time>
      </trkpt>
      <trkpt lat="45.876890234649181" lon="9.400323098525405">
        <ele>548.09000000000003</ele>
        <time>2014-05-24T12:59:00Z</time>
      </trkpt>
      <trkpt lat="45.8768598921597" lon="9.4003717135638">
        <ele>547.61000000000001</ele>
        <time>2014-05-24T12:59:04Z</time>
      </trkpt>
      <trkpt lat="45.876765763387084" lon="9.400556534528732">
        <ele>546.64999999999998</ele>
        <time>2014-05-24T12:59:19Z</time>
      </trkpt>
      <trkpt lat="45.876671131700277" lon="9.400783432647586">
        <ele>546.16999999999996</ele>
        <time>2014-05-24T12:59:36Z</time>
      </trkpt>
      <trkpt lat="45.876654200255871" lon="9.400840597227216">
        <ele>545.69000000000005</ele>
        <time>2014-05-24T12:59:41Z</time>
      </trkpt>
      <trkpt lat="45.876558981835842" lon="9.400862893089652">
        <ele>543.27999999999997</ele>
        <time>2014-05-24T12:59:52Z</time>
      </trkpt>
      <trkpt lat="45.876487651839852" lon="9.40094243735075">
        <ele>540.39999999999998</ele>
        <time>2014-05-24T13:00:06Z</time>
      </trkpt>
      <trkpt lat="45.876477174460888" lon="9.40097420476377">
        <ele>539.91999999999996</ele>
        <time>2014-05-24T13:00:09Z</time>
      </trkpt>
      <trkpt lat="45.876489244401455" lon="9.401054419577122">
        <ele>538.48000000000002</ele>
        <time>2014-05-24T13:00:24Z</time>
      </trkpt>
      <trkpt lat="45.876460075378418" lon="9.401076044887304">
        <ele>537.50999999999999</ele>
        <time>2014-05-24T13:00:28Z</time>
      </trkpt>
      <trkpt lat="45.87642353028059" lon="9.401150308549404">
        <ele>535.59000000000003</ele>
        <time>2014-05-24T13:00:43Z</time>
      </trkpt>
      <trkpt lat="45.876464433968067" lon="9.401234881952405">
        <ele>531.75</ele>
        <time>2014-05-24T13:00:54Z</time>
      </trkpt>
      <trkpt lat="45.876520089805126" lon="9.401277462020516">
        <ele>528.86000000000001</ele>
        <time>2014-05-24T13:01:06Z</time>
      </trkpt>
      <trkpt lat="45.876550516113639" lon="9.401398580521345">
        <ele>526.94000000000005</ele>
        <time>2014-05-24T13:01:21Z</time>
      </trkpt>
      <trkpt lat="45.876636262983084" lon="9.401479717344046">
        <ele>527.41999999999996</ele>
        <time>2014-05-24T13:01:38Z</time>
      </trkpt>
      <trkpt lat="45.876656379550695" lon="9.401515843346715">
        <ele>527.41999999999996</ele>
        <time>2014-05-24T13:01:41Z</time>
      </trkpt>
      <trkpt lat="45.876722177490592" lon="9.401634363457561">
        <ele>526.94000000000005</ele>
        <time>2014-05-24T13:01:50Z</time>
      </trkpt>
      <trkpt lat="45.876754783093929" lon="9.401885233819485">
        <ele>526.94000000000005</ele>
        <time>2014-05-24T13:02:09Z</time>
      </trkpt>
      <trkpt lat="45.876824939623475" lon="9.402060834690929">
        <ele>523.58000000000004</ele>
        <time>2014-05-24T13:02:22Z</time>
      </trkpt>
      <trkpt lat="45.876947902143002" lon="9.402288235723972">
        <ele>520.69000000000005</ele>
        <time>2014-05-24T13:02:39Z</time>
      </trkpt>
      <trkpt lat="45.876956451684237" lon="9.402295276522636">
        <ele>520.69000000000005</ele>
        <time>2014-05-24T13:02:40Z</time>
      </trkpt>
      <trkpt lat="45.877081174403429" lon="9.40236191265285">
        <ele>517.80999999999995</ele>
        <time>2014-05-24T13:02:55Z</time>
      </trkpt>
      <trkpt lat="45.877208998426795" lon="9.402422262355685">
        <ele>515.39999999999998</ele>
        <time>2014-05-24T13:03:09Z</time>
      </trkpt>
      <trkpt lat="45.877257278189063" lon="9.402599623426795">
        <ele>514.44000000000005</ele>
        <time>2014-05-24T13:03:21Z</time>
      </trkpt>
      <trkpt lat="45.877299020066857" lon="9.402736583724618">
        <ele>513.96000000000004</ele>
        <time>2014-05-24T13:03:31Z</time>
      </trkpt>
      <trkpt lat="45.877326093614101" lon="9.402751503512263">
        <ele>513.96000000000004</ele>
        <time>2014-05-24T13:03:34Z</time>
      </trkpt>
      <trkpt lat="45.877484763041139" lon="9.402756197378039">
        <ele>511.07999999999998</ele>
        <time>2014-05-24T13:03:52Z</time>
      </trkpt>
      <trkpt lat="45.877586267888546" lon="9.402762735262513">
        <ele>507.70999999999998</ele>
        <time>2014-05-24T13:04:07Z</time>
      </trkpt>
      <trkpt lat="45.87763823568821" lon="9.402938252314925">
        <ele>504.35000000000002</ele>
        <time>2014-05-24T13:04:22Z</time>
      </trkpt>
      <trkpt lat="45.877633122727275" lon="9.403128605335951">
        <ele>501.45999999999998</ele>
        <time>2014-05-24T13:04:37Z</time>
      </trkpt>
      <trkpt lat="45.877653993666172" lon="9.403189206495881">
        <ele>500.5</ele>
        <time>2014-05-24T13:04:42Z</time>
      </trkpt>
      <trkpt lat="45.877656675875187" lon="9.403287693858147">
        <ele>499.06</ele>
        <time>2014-05-24T13:04:49Z</time>
      </trkpt>
      <trkpt lat="45.877663968130946" lon="9.403314515948296">
        <ele>498.57999999999998</ele>
        <time>2014-05-24T13:04:51Z</time>
      </trkpt>
      <trkpt lat="45.877755330875516" lon="9.403499588370323">
        <ele>497.13999999999999</ele>
        <time>2014-05-24T13:05:07Z</time>
      </trkpt>
      <trkpt lat="45.877826660871506" lon="9.40349992364645">
        <ele>496.66000000000003</ele>
        <time>2014-05-24T13:05:14Z</time>
      </trkpt>
      <trkpt lat="45.877867229282856" lon="9.403518866747618">
        <ele>496.66000000000003</ele>
        <time>2014-05-24T13:05:18Z</time>
      </trkpt>
      <trkpt lat="45.877928417176008" lon="9.403533786535263">
        <ele>496.66000000000003</ele>
        <time>2014-05-24T13:05:24Z</time>
      </trkpt>
      <trkpt lat="45.878051295876503" lon="9.403529679402709">
        <ele>496.18000000000001</ele>
        <time>2014-05-24T13:05:39Z</time>
      </trkpt>
      <trkpt lat="45.878209713846445" lon="9.403526997193694">
        <ele>494.74000000000001</ele>
        <time>2014-05-24T13:05:54Z</time>
      </trkpt>
      <trkpt lat="45.878307865932584" lon="9.403718942776322">
        <ele>492.32999999999998</ele>
        <time>2014-05-24T13:06:11Z</time>
      </trkpt>
      <trkpt lat="45.878374082967639" lon="9.403835870325565">
        <ele>490.41000000000003</ele>
        <time>2014-05-24T13:06:22Z</time>
      </trkpt>
      <trkpt lat="45.878443652763963" lon="9.404011722654104">
        <ele>487.05000000000001</ele>
        <time>2014-05-24T13:06:39Z</time>
      </trkpt>
      <trkpt lat="45.878460835665464" lon="9.404173158109188">
        <ele>484.16000000000003</ele>
        <time>2014-05-24T13:06:53Z</time>
      </trkpt>
      <trkpt lat="45.87846159003675" lon="9.404241554439068">
        <ele>482.72000000000003</ele>
        <time>2014-05-24T13:06:59Z</time>
      </trkpt>
      <trkpt lat="45.878456812351942" lon="9.404320092871785">
        <ele>481.75999999999999</ele>
        <time>2014-05-24T13:07:04Z</time>
      </trkpt>
      <trkpt lat="45.878472737967968" lon="9.40435647033155">
        <ele>481.75999999999999</ele>
        <time>2014-05-24T13:07:07Z</time>
      </trkpt>
      <trkpt lat="45.878652865067124" lon="9.404415646567941">
        <ele>479.83999999999997</ele>
        <time>2014-05-24T13:07:24Z</time>
      </trkpt>
      <trkpt lat="45.878749340772629" lon="9.404484126716852">
        <ele>479.83999999999997</ele>
        <time>2014-05-24T13:07:39Z</time>
      </trkpt>
      <trkpt lat="45.878851851448417" lon="9.404757376760244">
        <ele>477.91000000000003</ele>
        <time>2014-05-24T13:08:00Z</time>
      </trkpt>
      <trkpt lat="45.878956792876124" lon="9.404971534386277">
        <ele>478.87</ele>
        <time>2014-05-24T13:08:16Z</time>
      </trkpt>
      <trkpt lat="45.87905234657228" lon="9.405064824968576">
        <ele>480.80000000000001</ele>
        <time>2014-05-24T13:08:30Z</time>
      </trkpt>
      <trkpt lat="45.879170866683125" lon="9.405106315389276">
        <ele>478.38999999999999</ele>
        <time>2014-05-24T13:08:46Z</time>
      </trkpt>
      <trkpt lat="45.879307659342885" lon="9.405186614021659">
        <ele>475.99000000000001</ele>
        <time>2014-05-24T13:09:03Z</time>
      </trkpt>
      <trkpt lat="45.879435818642378" lon="9.405228942632675">
        <ele>475.50999999999999</ele>
        <time>2014-05-24T13:09:17Z</time>
      </trkpt>
      <trkpt lat="45.879524582996964" lon="9.405225841328502">
        <ele>475.50999999999999</ele>
        <time>2014-05-24T13:09:30Z</time>
      </trkpt>
      <trkpt lat="45.879530617967248" lon="9.405224164947867">
        <ele>475.50999999999999</ele>
        <time>2014-05-24T13:09:32Z</time>
      </trkpt>
      <trkpt lat="45.879568252712488" lon="9.405263056978583">
        <ele>475.02999999999997</ele>
        <time>2014-05-24T13:09:36Z</time>
      </trkpt>
      <trkpt lat="45.879647629335523" lon="9.405255429446697">
        <ele>475.02999999999997</ele>
        <time>2014-05-24T13:09:49Z</time>
      </trkpt>
      <trkpt lat="45.879671601578593" lon="9.405333045870066">
        <ele>474.55000000000001</ele>
        <time>2014-05-24T13:09:54Z</time>
      </trkpt>
      <trkpt lat="45.879763383418322" lon="9.405651390552521">
        <ele>471.66000000000003</ele>
        <time>2014-05-24T13:10:11Z</time>
      </trkpt>
      <trkpt lat="45.879819793626666" lon="9.405866805464029">
        <ele>468.77999999999997</ele>
        <time>2014-05-24T13:10:28Z</time>
      </trkpt>
      <trkpt lat="45.879884082823992" lon="9.40605690702796">
        <ele>466.86000000000001</ele>
        <time>2014-05-24T13:10:43Z</time>
      </trkpt>
      <trkpt lat="45.879948539659381" lon="9.406196298077703">
        <ele>463.97000000000003</ele>
        <time>2014-05-24T13:10:59Z</time>
      </trkpt>
      <trkpt lat="45.879988102242351" lon="9.40631297416985">
        <ele>462.52999999999997</ele>
        <time>2014-05-24T13:11:08Z</time>
      </trkpt>
      <trkpt lat="45.87995775975287" lon="9.406367372721434">
        <ele>463.00999999999999</ele>
        <time>2014-05-24T13:11:21Z</time>
      </trkpt>
      <trkpt lat="45.87994166649878" lon="9.406334348022938">
        <ele>462.05000000000001</ele>
        <time>2014-05-24T13:11:33Z</time>
      </trkpt>
      <trkpt lat="45.879908390343189" lon="9.406321104615927">
        <ele>462.52999999999997</ele>
        <time>2014-05-24T13:11:55Z</time>
      </trkpt>
      <trkpt lat="45.87985566817224" lon="9.406319428235292">
        <ele>462.52999999999997</ele>
        <time>2014-05-24T13:12:23Z</time>
      </trkpt>
      <trkpt lat="45.879853321239352" lon="9.406304005533457">
        <ele>462.52999999999997</ele>
        <time>2014-05-24T13:12:50Z</time>
      </trkpt>
      <trkpt lat="45.879893470555544" lon="9.406343819573522">
        <ele>463.00999999999999</ele>
        <time>2014-05-24T13:13:17Z</time>
      </trkpt>
      <trkpt lat="45.879918029531837" lon="9.406330827623606">
        <ele>463.49000000000001</ele>
        <time>2014-05-24T13:13:29Z</time>
      </trkpt>
      <trkpt lat="45.879939906299114" lon="9.406349938362837">
        <ele>463.97000000000003</ele>
        <time>2014-05-24T13:13:46Z</time>
      </trkpt>
      <trkpt lat="45.879972008988261" lon="9.406390422955155">
        <ele>464.93000000000001</ele>
        <time>2014-05-24T13:14:11Z</time>
      </trkpt>
      <trkpt lat="45.880112573504448" lon="9.406362427398562">
        <ele>467.33999999999997</ele>
        <time>2014-05-24T13:14:27Z</time>
      </trkpt>
      <trkpt lat="45.880218353122473" lon="9.406271316111088">
        <ele>469.25999999999999</ele>
        <time>2014-05-24T13:14:47Z</time>
      </trkpt>
      <trkpt lat="45.880510546267033" lon="9.406314818188548">
        <ele>470.22000000000003</ele>
        <time>2014-05-24T13:15:03Z</time>
      </trkpt>
      <trkpt lat="45.880597550421953" lon="9.406324457377195">
        <ele>470.69999999999999</ele>
        <time>2014-05-24T13:15:08Z</time>
      </trkpt>
      <trkpt lat="45.880704754963517" lon="9.406309872865677">
        <ele>472.13999999999999</ele>
        <time>2014-05-24T13:15:22Z</time>
      </trkpt>
      <trkpt lat="45.880807936191559" lon="9.40637793391943">
        <ele>472.13999999999999</ele>
        <time>2014-05-24T13:15:37Z</time>
      </trkpt>
      <trkpt lat="45.880959145724773" lon="9.406460244208574">
        <ele>472.13999999999999</ele>
        <time>2014-05-24T13:15:52Z</time>
      </trkpt>
      <trkpt lat="45.881010610610247" lon="9.406474912539125">
        <ele>471.66000000000003</ele>
        <time>2014-05-24T13:15:59Z</time>
      </trkpt>
      <trkpt lat="45.881011364981532" lon="9.406507266685367">
        <ele>471.66000000000003</ele>
        <time>2014-05-24T13:16:12Z</time>
      </trkpt>
    </trkseg>
  </trk>

</gpx>